| time (UTC) | temp C | wind direction | speed KPH | gust KPH | rain 1hr cm | rain 24hr cm | rain mn cm | humidity % | barometer mb |
| 20260507091006 | 6 | 281 | 0.0 | 4.8 | 0.00 | 0.15 | 0.00 | 79 | 1014.6 |
| 20260507090906 | 6 | 281 | 0.0 | 4.8 | 0.00 | 0.15 | 0.00 | 79 | 1014.6 |
| 20260507090806 | 6 | 231 | 0.0 | 4.8 | 0.00 | 0.15 | 0.00 | 80 | 1014.6 |
| 20260507090706 | 5 | 231 | 0.0 | 4.8 | 0.00 | 0.15 | 0.00 | 80 | 1014.6 |
| 20260507090606 | 5 | 291 | 0.0 | 4.8 | 0.00 | 0.15 | 0.00 | 80 | 1014.6 |
| 20260507090507 | 5 | 243 | 0.0 | 4.8 | 0.00 | 0.15 | 0.00 | 80 | 1014.6 |
| 20260507090406 | 5 | 212 | 0.0 | 4.8 | 0.00 | 0.15 | 0.00 | 80 | 1014.6 |
| 20260507090306 | 5 | 236 | 1.6 | 4.8 | 0.00 | 0.15 | 0.00 | 80 | 1014.6 |
| 20260507090206 | 5 | 278 | 0.0 | 4.8 | 0.00 | 0.15 | 0.00 | 80 | 1014.6 |
| 20260507090106 | 5 | 250 | 1.6 | 4.8 | 0.00 | 0.15 | 0.00 | 80 | 1014.6 |
| 20260507090006 | 6 | 295 | 0.0 | 4.8 | 0.00 | 0.15 | 0.00 | 80 | 1014.6 |
| 20260507085906 | 5 | 295 | 0.0 | 4.8 | 0.00 | 0.15 | 0.00 | 80 | 1014.6 |
| 20260507085806 | 5 | 295 | 0.0 | 4.8 | 0.00 | 0.15 | 0.00 | 80 | 1014.6 |
| 20260507085706 | 5 | 295 | 0.0 | 4.8 | 0.00 | 0.15 | 0.00 | 80 | 1014.3 |
| 20260507085606 | 5 | 295 | 0.0 | 4.8 | 0.00 | 0.15 | 0.00 | 80 | 1014.6 |
| 20260507085506 | 6 | 295 | 0.0 | 4.8 | 0.00 | 0.15 | 0.00 | 80 | 1014.3 |
| 20260507085406 | 5 | 295 | 0.0 | 4.8 | 0.00 | 0.15 | 0.00 | 80 | 1014.3 |
| 20260507085306 | 6 | 295 | 0.0 | 4.8 | 0.00 | 0.15 | 0.00 | 80 | 1014.3 |
| 20260507085206 | 5 | 295 | 1.6 | 4.8 | 0.00 | 0.15 | 0.00 | 80 | 1014.3 |
| 20260507085106 | 5 | 253 | 0.0 | 0.0 | 0.00 | 0.15 | 0.00 | 80 | 1014.3 |
| 20260507085006 | 5 | 253 | 0.0 | 0.0 | 0.00 | 0.15 | 0.00 | 80 | 1014.3 |
| 20260507084906 | 5 | 253 | 0.0 | 0.0 | 0.00 | 0.15 | 0.00 | 80 | 1014.3 |
| 20260507084806 | 6 | 253 | 0.0 | 0.0 | 0.00 | 0.15 | 0.00 | 80 | 1014.6 |
| 20260507084706 | 5 | 253 | 0.0 | 0.0 | 0.00 | 0.15 | 0.00 | 80 | 1014.6 |
| 20260507084606 | 5 | 253 | 0.0 | 0.0 | 0.00 | 0.15 | 0.00 | 80 | 1014.3 |
| 20260507084506 | 6 | 253 | 0.0 | 0.0 | 0.00 | 0.15 | 0.00 | 80 | 1014.6 |
| 20260507084406 | 5 | 253 | 0.0 | 0.0 | 0.00 | 0.15 | 0.00 | 80 | 1014.3 |
| 20260507084306 | 5 | 253 | 0.0 | 0.0 | 0.00 | 0.15 | 0.00 | 80 | 1014.3 |
| 20260507084206 | 5 | 253 | 0.0 | 0.0 | 0.00 | 0.15 | 0.00 | 80 | 1014.3 |
| 20260507084106 | 5 | 253 | 0.0 | 0.0 | 0.00 | 0.15 | 0.00 | 80 | 1014.3 |
| 20260507084006 | 6 | 253 | 0.0 | 0.0 | 0.00 | 0.15 | 0.00 | 80 | 1014.3 |
| 20260507083906 | 5 | 253 | 0.0 | 0.0 | 0.00 | 0.15 | 0.00 | 80 | 1014.3 |
| 20260507083806 | 5 | 253 | 0.0 | 0.0 | 0.00 | 0.15 | 0.00 | 80 | 1014.3 |
| 20260507083706 | 5 | 253 | 0.0 | 1.6 | 0.00 | 0.15 | 0.00 | 80 | 1014.3 |
| 20260507083606 | 5 | 253 | 0.0 | 1.6 | 0.00 | 0.15 | 0.00 | 80 | 1014.3 |
| 20260507083506 | 6 | 253 | 0.0 | 1.6 | 0.00 | 0.15 | 0.00 | 80 | 1014.3 |
| 20260507083406 | 6 | 253 | 0.0 | 1.6 | 0.00 | 0.15 | 0.00 | 80 | 1014.3 |
| 20260507083306 | 6 | 253 | 0.0 | 1.6 | 0.00 | 0.15 | 0.00 | 80 | 1014.3 |
| 20260507083206 | 5 | 253 | 0.0 | 1.6 | 0.00 | 0.15 | 0.00 | 80 | 1014.3 |
| 20260507083106 | 6 | 253 | 0.0 | 1.6 | 0.00 | 0.15 | 0.00 | 80 | 1014.3 |
| 20260507083006 | 6 | 253 | 0.0 | 1.6 | 0.00 | 0.15 | 0.00 | 80 | 1014.3 |
| 20260507082906 | 6 | 253 | 0.0 | 1.6 | 0.00 | 0.15 | 0.00 | 80 | 1014.3 |
| 20260507082806 | 6 | 253 | 0.0 | 1.6 | 0.00 | 0.15 | 0.00 | 80 | 1014.3 |
| 20260507082706 | 6 | 287 | 0.0 | 0.0 | 0.00 | 0.15 | 0.00 | 80 | 1014.3 |
| 20260507082606 | 6 | 287 | 0.0 | 0.0 | 0.00 | 0.15 | 0.00 | 80 | 1014.3 |
| 20260507082506 | 6 | 287 | 0.0 | 0.0 | 0.00 | 0.15 | 0.00 | 80 | 1014.3 |
| 20260507082406 | 6 | 287 | 0.0 | 0.0 | 0.00 | 0.15 | 0.00 | 80 | 1014.3 |
| 20260507082307 | 6 | 287 | 0.0 | 0.0 | 0.00 | 0.15 | 0.00 | 80 | 1014.3 |
| 20260507082206 | 6 | 287 | 0.0 | 0.0 | 0.00 | 0.15 | 0.00 | 80 | 1014.3 |
| 20260507082106 | 6 | 287 | 0.0 | 0.0 | 0.00 | 0.15 | 0.00 | 80 | 1014.3 |
| 20260507082006 | 6 | 287 | 0.0 | 0.0 | 0.00 | 0.15 | 0.00 | 80 | 1014.3 |
| 20260507081906 | 6 | 287 | 0.0 | 0.0 | 0.00 | 0.15 | 0.00 | 80 | 1014.3 |
| 20260507081806 | 6 | 287 | 0.0 | 0.0 | 0.00 | 0.15 | 0.00 | 80 | 1014.3 |
| 20260507081706 | 6 | 287 | 0.0 | 0.0 | 0.00 | 0.15 | 0.00 | 80 | 1014.3 |
| 20260507081606 | 6 | 287 | 0.0 | 0.0 | 0.00 | 0.15 | 0.00 | 80 | 1014.3 |
| 20260507081506 | 6 | 287 | 0.0 | 0.0 | 0.00 | 0.15 | 0.00 | 80 | 1014.3 |
| 20260507081406 | 6 | 287 | 0.0 | 0.0 | 0.00 | 0.15 | 0.00 | 80 | 1014.3 |
| 20260507081306 | 6 | 287 | 0.0 | 3.2 | 0.00 | 0.15 | 0.00 | 80 | 1014.3 |
| 20260507081206 | 6 | 287 | 0.0 | 3.2 | 0.00 | 0.15 | 0.00 | 80 | 1014.3 |
| 20260507081106 | 6 | 287 | 0.0 | 3.2 | 0.00 | 0.15 | 0.00 | 80 | 1014.3 |
| 20260507081006 | 6 | 287 | 0.0 | 6.4 | 0.00 | 0.15 | 0.00 | 80 | 1014.3 |
| 20260507080906 | 6 | 287 | 0.0 | 6.4 | 0.00 | 0.15 | 0.00 | 80 | 1014.3 |
| 20260507080806 | 6 | 287 | 0.0 | 6.4 | 0.00 | 0.15 | 0.00 | 80 | 1014.3 |
| 20260507080706 | 6 | 287 | 0.0 | 6.4 | 0.00 | 0.15 | 0.00 | 80 | 1014.3 |
| 20260507080606 | 6 | 287 | 0.0 | 6.4 | 0.00 | 0.15 | 0.00 | 80 | 1014.3 |
| 20260507080506 | 6 | 287 | 0.0 | 6.4 | 0.00 | 0.15 | 0.00 | 80 | 1014.3 |
| 20260507080406 | 6 | 287 | 1.6 | 6.4 | 0.00 | 0.15 | 0.00 | 80 | 1014.3 |
| 20260507080306 | 6 | 239 | 0.0 | 6.4 | 0.00 | 0.15 | 0.00 | 80 | 1014.3 |
| 20260507080206 | 6 | 239 | 0.0 | 6.4 | 0.00 | 0.15 | 0.00 | 80 | 1014.3 |
| 20260507080106 | 6 | 239 | 1.6 | 6.4 | 0.00 | 0.15 | 0.00 | 80 | 1014.3 |
| 20260507080006 | 6 | 273 | 0.0 | 3.2 | 0.00 | 0.15 | 0.00 | 80 | 1014.3 |
| 20260507075906 | 6 | 273 | 0.0 | 3.2 | 0.00 | 0.15 | 0.00 | 80 | 1014.3 |
| 20260507075806 | 6 | 273 | 0.0 | 3.2 | 0.00 | 0.15 | 0.00 | 80 | 1014.3 |
| 20260507075706 | 6 | 293 | 0.0 | 3.2 | 0.00 | 0.15 | 0.00 | 80 | 1014.3 |
| 20260507075606 | 6 | 249 | 0.0 | 1.6 | 0.00 | 0.15 | 0.00 | 80 | 1014.3 |
| 20260507075506 | 6 | 273 | 0.0 | 1.6 | 0.00 | 0.15 | 0.00 | 80 | 1014.3 |
| 20260507075406 | 6 | 273 | 0.0 | 1.6 | 0.00 | 0.15 | 0.00 | 80 | 1014.3 |
| 20260507075307 | 6 | 273 | 0.0 | 1.6 | 0.00 | 0.15 | 0.00 | 80 | 1014.3 |
| 20260507075206 | 6 | 273 | 0.0 | 1.6 | 0.00 | 0.15 | 0.00 | 80 | 1014.3 |
| 20260507075106 | 6 | 273 | 0.0 | 1.6 | 0.00 | 0.15 | 0.00 | 80 | 1014.3 |
| 20260507075006 | 6 | 273 | 0.0 | 4.8 | 0.00 | 0.15 | 0.00 | 80 | 1014.3 |
| 20260507074906 | 6 | 295 | 0.0 | 4.8 | 0.00 | 0.15 | 0.00 | 80 | 1014.3 |
| 20260507074806 | 6 | 183 | 0.0 | 4.8 | 0.00 | 0.15 | 0.00 | 80 | 1014.3 |
| 20260507074706 | 6 | 183 | 0.0 | 4.8 | 0.00 | 0.15 | 0.00 | 80 | 1014.3 |
| 20260507074606 | 6 | 183 | 0.0 | 4.8 | 0.00 | 0.15 | 0.00 | 80 | 1014.3 |
| 20260507074506 | 6 | 183 | 0.0 | 4.8 | 0.00 | 0.15 | 0.00 | 80 | 1014.3 |
| 20260507074406 | 6 | 183 | 0.0 | 4.8 | 0.00 | 0.15 | 0.00 | 80 | 1014.3 |
| 20260507074306 | 6 | 183 | 0.0 | 4.8 | 0.00 | 0.15 | 0.00 | 80 | 1014.3 |
| 20260507074206 | 6 | 183 | 0.0 | 4.8 | 0.00 | 0.15 | 0.00 | 80 | 1014.3 |
| 20260507074106 | 6 | 183 | 1.6 | 4.8 | 0.00 | 0.15 | 0.00 | 80 | 1014.3 |
| 20260507074006 | 6 | 262 | 0.0 | 1.6 | 0.00 | 0.15 | 0.00 | 80 | 1014.3 |
| 20260507073906 | 6 | 262 | 0.0 | 1.6 | 0.00 | 0.15 | 0.00 | 80 | 1014.3 |
| 20260507073806 | 6 | 262 | 0.0 | 1.6 | 0.00 | 0.15 | 0.00 | 80 | 1014.3 |
| 20260507073706 | 6 | 262 | 0.0 | 1.6 | 0.00 | 0.15 | 0.00 | 80 | 1014.3 |
| 20260507073606 | 6 | 262 | 0.0 | 1.6 | 0.00 | 0.15 | 0.00 | 80 | 1014.3 |
| 20260507073506 | 6 | 262 | 0.0 | 1.6 | 0.00 | 0.15 | 0.00 | 80 | 1014.3 |
| 20260507073406 | 6 | 262 | 0.0 | 1.6 | 0.00 | 0.15 | 0.00 | 80 | 1014.3 |
| 20260507073306 | 6 | 288 | 0.0 | 1.6 | 0.00 | 0.15 | 0.00 | 80 | 1014.3 |
| 20260507073206 | 6 | 288 | 0.0 | 1.6 | 0.00 | 0.15 | 0.00 | 80 | 1014.3 |
| 20260507073106 | 6 | 288 | 0.0 | 1.6 | 0.00 | 0.15 | 0.00 | 80 | 1014.3 |
| 20260507073006 | 6 | 288 | 0.0 | 1.6 | 0.00 | 0.15 | 0.00 | 80 | 1014.3 |
| 20260507072906 | 6 | 288 | 0.0 | 1.6 | 0.00 | 0.15 | 0.00 | 80 | 1014.3 |
| 20260507072806 | 6 | 288 | 0.0 | 1.6 | 0.00 | 0.15 | 0.00 | 80 | 1014.3 |
| 20260507072706 | 6 | 288 | 0.0 | 1.6 | 0.00 | 0.15 | 0.00 | 80 | 1014.3 |
| 20260507072606 | 6 | 288 | 0.0 | 1.6 | 0.00 | 0.15 | 0.00 | 80 | 1014.3 |
| 20260507072506 | 6 | 288 | 0.0 | 1.6 | 0.00 | 0.15 | 0.00 | 80 | 1014.3 |
| 20260507072406 | 6 | 149 | 0.0 | 3.2 | 0.00 | 0.15 | 0.00 | 80 | 1014.3 |
| 20260507072308 | 6 | 149 | 0.0 | 3.2 | 0.00 | 0.15 | 0.00 | 79 | 1014.3 |
| 20260507072206 | 6 | 149 | 0.0 | 3.2 | 0.00 | 0.15 | 0.00 | 79 | 1014.3 |
| 20260507072107 | 6 | 149 | 0.0 | 3.2 | 0.00 | 0.15 | 0.00 | 79 | 1014.3 |
| 20260507072006 | 6 | 149 | 0.0 | 3.2 | 0.00 | 0.15 | 0.00 | 79 | 1014.3 |
| 20260507071906 | 6 | 149 | 0.0 | 3.2 | 0.00 | 0.15 | 0.00 | 79 | 1014.3 |
| 20260507071806 | 6 | 149 | 0.0 | 3.2 | 0.00 | 0.15 | 0.00 | 79 | 1014.3 |
| 20260507071706 | 6 | 149 | 0.0 | 3.2 | 0.00 | 0.15 | 0.00 | 79 | 1014.3 |
| 20260507071606 | 6 | 149 | 0.0 | 3.2 | 0.00 | 0.15 | 0.00 | 79 | 1014.3 |
| 20260507071506 | 6 | 149 | 1.6 | 3.2 | 0.00 | 0.15 | 0.00 | 79 | 1014.3 |
| 20260507071407 | 6 | 253 | 0.0 | 0.0 | 0.00 | 0.15 | 0.00 | 79 | 1014.3 |
| 20260507071306 | 7 | 253 | 0.0 | 0.0 | 0.00 | 0.15 | 0.00 | 79 | 1014.3 |
| 20260507071206 | 7 | 253 | 0.0 | 0.0 | 0.00 | 0.15 | 0.00 | 79 | 1014.3 |
| 20260507071106 | 6 | 253 | 0.0 | 0.0 | 0.00 | 0.15 | 0.00 | 79 | 1014.3 |
| 20260507071006 | 7 | 253 | 0.0 | 1.6 | 0.00 | 0.15 | 0.00 | 79 | 1014.3 |
| 20260507070906 | 7 | 253 | 0.0 | 1.6 | 0.00 | 0.15 | 0.00 | 79 | 1014.3 |
| 20260507070806 | 7 | 253 | 0.0 | 3.2 | 0.00 | 0.15 | 0.00 | 79 | 1014.3 |
| 20260507070706 | 7 | 253 | 0.0 | 3.2 | 0.00 | 0.15 | 0.00 | 79 | 1014.3 |
| 20260507070606 | 7 | 253 | 0.0 | 3.2 | 0.00 | 0.15 | 0.00 | 79 | 1014.3 |
| 20260507070506 | 7 | 253 | 0.0 | 3.2 | 0.00 | 0.15 | 0.00 | 79 | 1014.3 |
| 20260507070406 | 7 | 253 | 0.0 | 3.2 | 0.00 | 0.15 | 0.00 | 79 | 1014.3 |
| 20260507070306 | 7 | 253 | 0.0 | 3.2 | 0.00 | 0.15 | 0.00 | 79 | 1014.3 |
| 20260507070206 | 7 | 253 | 0.0 | 3.2 | 0.00 | 0.15 | 0.00 | 79 | 1014.3 |
| 20260507070106 | 7 | 253 | 0.0 | 3.2 | 0.00 | 0.15 | 0.00 | 79 | 1014.3 |
| 20260507070010 | 7 | 295 | 0.0 | 3.2 | 0.00 | 0.15 | 0.00 | 79 | 1014.3 |
| 20260507065906 | 7 | 295 | 0.0 | 3.2 | 0.00 | 0.15 | 0.00 | 79 | 1014.3 |
| 20260507065806 | 7 | 239 | 1.6 | 3.2 | 0.00 | 0.15 | 0.00 | 79 | 1014.3 |
| 20260507065706 | 7 | 316 | 0.0 | 1.6 | 0.00 | 0.15 | 0.00 | 79 | 1014.3 |
| 20260507065606 | 7 | 316 | 0.0 | 3.2 | 0.00 | 0.15 | 0.00 | 79 | 1014.3 |
| 20260507065506 | 7 | 316 | 0.0 | 3.2 | 0.00 | 0.15 | 0.00 | 79 | 1014.3 |
| 20260507065406 | 7 | 316 | 0.0 | 3.2 | 0.00 | 0.15 | 0.00 | 79 | 1014.3 |
| 20260507065306 | 7 | 316 | 0.0 | 3.2 | 0.00 | 0.15 | 0.00 | 79 | 1014.3 |
| 20260507065206 | 7 | 316 | 0.0 | 3.2 | 0.00 | 0.15 | 0.00 | 78 | 1014.3 |
| 20260507065106 | 7 | 316 | 0.0 | 3.2 | 0.00 | 0.15 | 0.00 | 78 | 1014.3 |
| 20260507065006 | 7 | 316 | 0.0 | 3.2 | 0.00 | 0.15 | 0.00 | 78 | 1014.3 |
| 20260507064906 | 7 | 316 | 0.0 | 3.2 | 0.00 | 0.15 | 0.00 | 78 | 1014.3 |
| 20260507064806 | 7 | 316 | 0.0 | 3.2 | 0.00 | 0.15 | 0.00 | 78 | 1014.3 |
| 20260507064706 | 7 | 287 | 0.0 | 3.2 | 0.00 | 0.15 | 0.00 | 78 | 1014.3 |
| 20260507064606 | 7 | 278 | 0.0 | 1.6 | 0.00 | 0.15 | 0.00 | 78 | 1014.3 |
| 20260507064506 | 7 | 143 | 0.0 | 1.6 | 0.00 | 0.15 | 0.00 | 78 | 1014.3 |
| 20260507064406 | 7 | 273 | 0.0 | 3.2 | 0.00 | 0.15 | 0.00 | 78 | 1014.3 |
| 20260507064306 | 7 | 273 | 0.0 | 3.2 | 0.00 | 0.15 | 0.00 | 78 | 1014.3 |
| 20260507064206 | 7 | 273 | 0.0 | 4.8 | 0.00 | 0.15 | 0.00 | 78 | 1014.6 |
| 20260507064106 | 7 | 273 | 0.0 | 4.8 | 0.00 | 0.15 | 0.00 | 78 | 1014.6 |
| 20260507064006 | 7 | 273 | 0.0 | 4.8 | 0.00 | 0.15 | 0.00 | 78 | 1014.6 |
| 20260507063906 | 7 | 273 | 0.0 | 4.8 | 0.00 | 0.15 | 0.00 | 78 | 1014.6 |
| 20260507063806 | 7 | 291 | 0.0 | 4.8 | 0.00 | 0.15 | 0.00 | 78 | 1014.6 |
| 20260507063706 | 7 | 252 | 0.0 | 4.8 | 0.00 | 0.15 | 0.00 | 78 | 1014.6 |
| 20260507063606 | 7 | 252 | 0.0 | 4.8 | 0.00 | 0.15 | 0.00 | 78 | 1014.6 |
| 20260507063506 | 7 | 252 | 1.6 | 4.8 | 0.00 | 0.15 | 0.00 | 78 | 1014.6 |
| 20260507063406 | 7 | 297 | 1.6 | 4.8 | 0.00 | 0.15 | 0.00 | 78 | 1014.6 |
| 20260507063306 | 7 | 283 | 1.6 | 4.8 | 0.00 | 0.15 | 0.00 | 78 | 1014.6 |
| 20260507063206 | 7 | 242 | 1.6 | 4.8 | 0.00 | 0.15 | 0.00 | 78 | 1014.6 |
| 20260507063106 | 7 | 342 | 0.0 | 1.6 | 0.00 | 0.15 | 0.00 | 78 | 1014.6 |
| 20260507063006 | 7 | 342 | 0.0 | 1.6 | 0.00 | 0.15 | 0.00 | 77 | 1014.6 |
| 20260507062906 | 7 | 342 | 0.0 | 1.6 | 0.00 | 0.15 | 0.00 | 77 | 1014.6 |
| 20260507062806 | 7 | 342 | 0.0 | 3.2 | 0.00 | 0.15 | 0.00 | 77 | 1014.6 |
| 20260507062706 | 7 | 342 | 0.0 | 3.2 | 0.00 | 0.15 | 0.00 | 77 | 1014.6 |
| 20260507062606 | 7 | 342 | 0.0 | 3.2 | 0.00 | 0.15 | 0.00 | 77 | 1014.6 |
| 20260507062506 | 7 | 342 | 0.0 | 3.2 | 0.00 | 0.15 | 0.00 | 77 | 1014.6 |
| 20260507062406 | 7 | 342 | 0.0 | 3.2 | 0.00 | 0.15 | 0.00 | 77 | 1014.6 |
| 20260507062306 | 7 | 342 | 0.0 | 4.8 | 0.00 | 0.15 | 0.00 | 77 | 1014.3 |
| 20260507062206 | 7 | 342 | 0.0 | 4.8 | 0.00 | 0.15 | 0.00 | 77 | 1014.6 |
| 20260507062106 | 7 | 280 | 0.0 | 4.8 | 0.00 | 0.15 | 0.00 | 77 | 1014.6 |
| 20260507062006 | 7 | 280 | 0.0 | 4.8 | 0.00 | 0.15 | 0.00 | 77 | 1014.6 |
| 20260507061906 | 7 | 280 | 0.0 | 4.8 | 0.00 | 0.15 | 0.00 | 77 | 1014.3 |
| 20260507061806 | 7 | 263 | 0.0 | 4.8 | 0.00 | 0.15 | 0.00 | 77 | 1014.6 |
| 20260507061706 | 7 | 263 | 0.0 | 4.8 | 0.00 | 0.15 | 0.00 | 77 | 1014.3 |
| 20260507061606 | 7 | 263 | 1.6 | 4.8 | 0.00 | 0.15 | 0.00 | 77 | 1014.6 |
| 20260507061506 | 7 | 173 | 0.0 | 4.8 | 0.00 | 0.15 | 0.00 | 77 | 1014.6 |
| 20260507061406 | 7 | 173 | 1.6 | 4.8 | 0.00 | 0.15 | 0.00 | 77 | 1014.6 |
| 20260507061306 | 7 | 274 | 1.6 | 4.8 | 0.00 | 0.15 | 0.00 | 77 | 1014.6 |
| 20260507061206 | 7 | 207 | 0.0 | 4.8 | 0.00 | 0.15 | 0.00 | 77 | 1014.6 |
| 20260507061106 | 7 | 170 | 0.0 | 4.8 | 0.00 | 0.15 | 0.00 | 77 | 1014.6 |
| 20260507061006 | 7 | 170 | 0.0 | 4.8 | 0.00 | 0.15 | 0.00 | 77 | 1014.6 |
| 20260507060906 | 7 | 326 | 0.0 | 4.8 | 0.00 | 0.15 | 0.00 | 77 | 1014.6 |
| 20260507060806 | 7 | 326 | 0.0 | 4.8 | 0.00 | 0.15 | 0.00 | 77 | 1014.6 |
| 20260507060706 | 7 | 204 | 0.0 | 4.8 | 0.00 | 0.15 | 0.00 | 77 | 1014.6 |
| 20260507060606 | 7 | 204 | 0.0 | 4.8 | 0.00 | 0.15 | 0.00 | 77 | 1014.6 |
| 20260507060506 | 7 | 204 | 1.6 | 4.8 | 0.00 | 0.15 | 0.00 | 77 | 1014.6 |
| 20260507060406 | 7 | 224 | 1.6 | 4.8 | 0.00 | 0.15 | 0.00 | 77 | 1014.6 |
| 20260507060306 | 7 | 214 | 0.0 | 4.8 | 0.00 | 0.15 | 0.00 | 77 | 1014.6 |
| 20260507060207 | 7 | 214 | 0.0 | 4.8 | 0.00 | 0.15 | 0.00 | 77 | 1014.6 |
| 20260507060106 | 7 | 239 | 1.6 | 4.8 | 0.00 | 0.15 | 0.00 | 78 | 1014.6 |
| 20260507060006 | 7 | 117 | 1.6 | 4.8 | 0.00 | 0.15 | 0.00 | 77 | 1014.6 |
| 20260507055906 | 7 | 167 | 0.0 | 4.8 | 0.00 | 0.15 | 0.00 | 77 | 1014.6 |
| 20260507055806 | 7 | 225 | 1.6 | 4.8 | 0.00 | 0.15 | 0.00 | 78 | 1014.6 |
| 20260507055706 | 7 | 211 | 1.6 | 4.8 | 0.00 | 0.15 | 0.00 | 77 | 1014.6 |
| 20260507055606 | 7 | 245 | 0.0 | 1.6 | 0.00 | 0.15 | 0.00 | 77 | 1014.6 |
| 20260507055506 | 7 | 245 | 0.0 | 1.6 | 0.00 | 0.15 | 0.00 | 77 | 1014.6 |
| 20260507055406 | 7 | 245 | 0.0 | 3.2 | 0.00 | 0.15 | 0.00 | 77 | 1014.6 |
| 20260507055306 | 7 | 191 | 0.0 | 4.8 | 0.00 | 0.15 | 0.00 | 77 | 1014.6 |
| 20260507055206 | 7 | 166 | 0.0 | 4.8 | 0.00 | 0.15 | 0.00 | 77 | 1014.6 |
| 20260507055106 | 7 | 186 | 0.0 | 4.8 | 0.00 | 0.15 | 0.00 | 77 | 1014.6 |
| 20260507055006 | 7 | 186 | 0.0 | 4.8 | 0.00 | 0.15 | 0.00 | 77 | 1014.6 |
| 20260507054906 | 7 | 159 | 0.0 | 4.8 | 0.00 | 0.15 | 0.00 | 77 | 1014.6 |
| 20260507054806 | 7 | 159 | 0.0 | 4.8 | 0.00 | 0.15 | 0.00 | 77 | 1014.6 |
| 20260507054706 | 8 | 159 | 0.0 | 4.8 | 0.00 | 0.15 | 0.00 | 77 | 1014.6 |
| 20260507054606 | 7 | 194 | 0.0 | 4.8 | 0.00 | 0.15 | 0.00 | 77 | 1014.6 |
| 20260507054506 | 8 | 194 | 1.6 | 4.8 | 0.00 | 0.15 | 0.00 | 77 | 1014.6 |
| 20260507054406 | 8 | 233 | 1.6 | 4.8 | 0.00 | 0.15 | 0.00 | 77 | 1014.6 |
| 20260507054306 | 8 | 129 | 0.0 | 4.8 | 0.00 | 0.15 | 0.00 | 77 | 1014.6 |
| 20260507054206 | 8 | 203 | 0.0 | 4.8 | 0.00 | 0.15 | 0.00 | 77 | 1014.6 |
| 20260507054106 | 8 | 203 | 0.0 | 4.8 | 0.00 | 0.15 | 0.00 | 77 | 1014.6 |
| 20260507054006 | 8 | 203 | 0.0 | 4.8 | 0.00 | 0.15 | 0.00 | 77 | 1014.6 |
| 20260507053906 | 8 | 203 | 0.0 | 4.8 | 0.00 | 0.15 | 0.00 | 77 | 1014.6 |
| 20260507053806 | 8 | 222 | 3.2 | 6.4 | 0.00 | 0.15 | 0.00 | 78 | 1014.6 |
| 20260507053707 | 8 | 263 | 1.6 | 6.4 | 0.00 | 0.15 | 0.00 | 78 | 1014.6 |
| 20260507053606 | 8 | 236 | 0.0 | 6.4 | 0.00 | 0.15 | 0.00 | 78 | 1014.6 |
| 20260507053506 | 8 | 236 | 0.0 | 6.4 | 0.00 | 0.15 | 0.00 | 78 | 1014.6 |
| 20260507053406 | 8 | 276 | 0.0 | 6.4 | 0.00 | 0.15 | 0.00 | 78 | 1014.6 |
| 20260507053306 | 8 | 298 | 1.6 | 6.4 | 0.00 | 0.15 | 0.00 | 78 | 1014.6 |
| 20260507053206 | 8 | 197 | 1.6 | 6.4 | 0.00 | 0.15 | 0.00 | 78 | 1014.6 |
| 20260507053106 | 8 | 236 | 1.6 | 6.4 | 0.00 | 0.15 | 0.00 | 78 | 1014.6 |
| 20260507053006 | 8 | 114 | 0.0 | 6.4 | 0.00 | 0.15 | 0.00 | 78 | 1014.6 |
| 20260507052906 | 8 | 114 | 3.2 | 6.4 | 0.00 | 0.15 | 0.00 | 78 | 1014.6 |
| 20260507052806 | 8 | 259 | 1.6 | 6.4 | 0.00 | 0.15 | 0.00 | 78 | 1014.6 |
| 20260507052706 | 8 | 243 | 3.2 | 6.4 | 0.00 | 0.15 | 0.00 | 78 | 1014.6 |
| 20260507052606 | 8 | 240 | 0.0 | 6.4 | 0.00 | 0.15 | 0.00 | 78 | 1014.6 |
| 20260507052506 | 7 | 240 | 1.6 | 6.4 | 0.00 | 0.15 | 0.00 | 78 | 1014.6 |
| 20260507052406 | 7 | 229 | 3.2 | 6.4 | 0.00 | 0.15 | 0.00 | 79 | 1014.6 |
| 20260507052307 | 7 | 167 | 0.0 | 6.4 | 0.00 | 0.15 | 0.00 | 79 | 1014.6 |
| 20260507052206 | 7 | 167 | 1.6 | 6.4 | 0.00 | 0.15 | 0.00 | 79 | 1014.6 |
| 20260507052106 | 7 | 235 | 0.0 | 6.4 | 0.00 | 0.15 | 0.00 | 79 | 1014.6 |
| 20260507052006 | 7 | 235 | 0.0 | 6.4 | 0.00 | 0.15 | 0.00 | 79 | 1014.6 |
| 20260507051906 | 7 | 228 | 1.6 | 6.4 | 0.00 | 0.15 | 0.00 | 79 | 1014.6 |
| 20260507051806 | 7 | 276 | 1.6 | 8.0 | 0.00 | 0.15 | 0.00 | 79 | 1014.6 |
| 20260507051706 | 7 | 141 | 0.0 | 8.0 | 0.00 | 0.15 | 0.00 | 80 | 1014.6 |
| 20260507051606 | 7 | 141 | 0.0 | 8.0 | 0.00 | 0.15 | 0.00 | 80 | 1014.6 |
| 20260507051506 | 7 | 245 | 1.6 | 8.0 | 0.00 | 0.15 | 0.00 | 80 | 1014.6 |
| 20260507051406 | 7 | 111 | 0.0 | 8.0 | 0.00 | 0.15 | 0.00 | 80 | 1014.6 |
| 20260507051306 | 7 | 218 | 1.6 | 8.0 | 0.00 | 0.15 | 0.00 | 80 | 1014.6 |
| 20260507051206 | 7 | 304 | 0.0 | 8.0 | 0.00 | 0.15 | 0.00 | 80 | 1014.6 |
| 20260507051106 | 7 | 135 | 1.6 | 8.0 | 0.00 | 0.15 | 0.00 | 81 | 1014.6 |
| 20260507051006 | 7 | 141 | 0.0 | 8.0 | 0.00 | 0.15 | 0.00 | 81 | 1014.6 |
| 20260507050906 | 7 | 283 | 3.2 | 8.0 | 0.00 | 0.15 | 0.00 | 81 | 1014.6 |
| 20260507050806 | 7 | 240 | 1.6 | 4.8 | 0.00 | 0.15 | 0.00 | 81 | 1014.6 |
| 20260507050706 | 7 | 233 | 1.6 | 4.8 | 0.00 | 0.15 | 0.00 | 81 | 1014.6 |
| 20260507050606 | 7 | 129 | 0.0 | 4.8 | 0.00 | 0.15 | 0.00 | 81 | 1014.6 |
| 20260507050506 | 7 | 204 | 0.0 | 4.8 | 0.00 | 0.15 | 0.00 | 81 | 1014.6 |
| 20260507050406 | 7 | 204 | 0.0 | 4.8 | 0.00 | 0.15 | 0.00 | 81 | 1014.6 |
| 20260507050306 | 7 | 204 | 0.0 | 4.8 | 0.00 | 0.15 | 0.00 | 81 | 1014.6 |
| 20260507050206 | 7 | 207 | 0.0 | 4.8 | 0.00 | 0.15 | 0.00 | 81 | 1014.6 |
| 20260507050106 | 7 | 252 | 1.6 | 4.8 | 0.00 | 0.15 | 0.00 | 82 | 1014.6 |
| 20260507050006 | 7 | 217 | 1.6 | 3.2 | 0.00 | 0.15 | 0.00 | 82 | 1014.6 |
| 20260507045906 | 7 | 250 | 0.0 | 0.0 | 0.00 | 0.15 | 0.00 | 82 | 1014.6 |
| 20260507045806 | 7 | 250 | 0.0 | 0.0 | 0.00 | 0.15 | 0.00 | 82 | 1014.6 |
| 20260507045706 | 7 | 250 | 0.0 | 1.6 | 0.00 | 0.15 | 0.00 | 82 | 1014.6 |
| 20260507045606 | 7 | 250 | 0.0 | 1.6 | 0.00 | 0.15 | 0.00 | 82 | 1014.6 |
| 20260507045506 | 7 | 250 | 0.0 | 1.6 | 0.00 | 0.15 | 0.00 | 82 | 1014.6 |
| 20260507045406 | 7 | 250 | 0.0 | 1.6 | 0.00 | 0.15 | 0.00 | 82 | 1014.6 |
| 20260507045307 | 7 | 250 | 0.0 | 1.6 | 0.00 | 0.15 | 0.00 | 82 | 1014.6 |
| 20260507045206 | 7 | 250 | 0.0 | 1.6 | 0.00 | 0.15 | 0.00 | 82 | 1014.6 |
| 20260507045106 | 7 | 250 | 0.0 | 1.6 | 0.00 | 0.15 | 0.00 | 82 | 1014.6 |
| 20260507045006 | 7 | 250 | 0.0 | 3.2 | 0.00 | 0.15 | 0.00 | 82 | 1014.6 |
| 20260507044906 | 7 | 250 | 0.0 | 3.2 | 0.00 | 0.15 | 0.00 | 82 | 1014.6 |
| 20260507044806 | 7 | 250 | 0.0 | 3.2 | 0.00 | 0.15 | 0.00 | 82 | 1014.6 |
| 20260507044706 | 7 | 228 | 0.0 | 3.2 | 0.00 | 0.15 | 0.00 | 82 | 1014.6 |
| 20260507044606 | 7 | 228 | 0.0 | 4.8 | 0.00 | 0.15 | 0.00 | 82 | 1014.3 |
| 20260507044506 | 7 | 228 | 0.0 | 4.8 | 0.00 | 0.15 | 0.00 | 82 | 1014.6 |
| 20260507044406 | 7 | 228 | 0.0 | 4.8 | 0.00 | 0.15 | 0.00 | 82 | 1014.3 |
| 20260507044306 | 7 | 228 | 0.0 | 4.8 | 0.00 | 0.15 | 0.00 | 82 | 1014.6 |
| 20260507044206 | 7 | 228 | 1.6 | 4.8 | 0.00 | 0.15 | 0.00 | 82 | 1014.6 |
| 20260507044106 | 7 | 277 | 1.6 | 4.8 | 0.00 | 0.15 | 0.00 | 83 | 1014.6 |
| 20260507044006 | 7 | 259 | 3.2 | 4.8 | 0.00 | 0.15 | 0.00 | 83 | 1014.3 |
| 20260507043906 | 7 | 269 | 1.6 | 4.8 | 0.00 | 0.15 | 0.00 | 83 | 1014.6 |
| 20260507043806 | 7 | 256 | 3.2 | 4.8 | 0.00 | 0.15 | 0.00 | 83 | 1014.6 |
| 20260507043706 | 7 | 262 | 3.2 | 4.8 | 0.00 | 0.15 | 0.00 | 83 | 1014.6 |
| 20260507043606 | 7 | 267 | 3.2 | 3.2 | 0.00 | 0.15 | 0.00 | 83 | 1014.6 |
| 20260507043506 | 7 | 266 | 1.6 | 3.2 | 0.00 | 0.15 | 0.00 | 83 | 1014.6 |
| 20260507043406 | 7 | 233 | 1.6 | 3.2 | 0.00 | 0.15 | 0.00 | 83 | 1014.6 |
| 20260507043306 | 7 | 256 | 1.6 | 3.2 | 0.00 | 0.15 | 0.00 | 83 | 1014.6 |
| 20260507043206 | 7 | 264 | 1.6 | 3.2 | 0.00 | 0.15 | 0.00 | 83 | 1014.6 |
| 20260507043106 | 7 | 270 | 1.6 | 3.2 | 0.00 | 0.15 | 0.00 | 83 | 1014.6 |
| 20260507043006 | 7 | 260 | 1.6 | 3.2 | 0.00 | 0.15 | 0.00 | 83 | 1014.6 |
| 20260507042906 | 7 | 270 | 1.6 | 3.2 | 0.00 | 0.15 | 0.00 | 83 | 1014.6 |
| 20260507042806 | 7 | 262 | 1.6 | 3.2 | 0.00 | 0.15 | 0.00 | 83 | 1014.6 |
| 20260507042706 | 7 | 266 | 1.6 | 3.2 | 0.00 | 0.15 | 0.00 | 83 | 1014.6 |
| 20260507042606 | 7 | 266 | 3.2 | 3.2 | 0.00 | 0.15 | 0.00 | 84 | 1014.3 |
| 20260507042506 | 7 | 271 | 1.6 | 3.2 | 0.00 | 0.15 | 0.00 | 84 | 1014.6 |
| 20260507042406 | 7 | 266 | 3.2 | 3.2 | 0.00 | 0.15 | 0.00 | 84 | 1014.6 |
| 20260507042307 | 7 | 271 | 1.6 | 3.2 | 0.00 | 0.15 | 0.00 | 84 | 1014.6 |
| 20260507042206 | 7 | 271 | 3.2 | 3.2 | 0.00 | 0.15 | 0.00 | 84 | 1014.6 |
| 20260507042106 | 7 | 273 | 1.6 | 3.2 | 0.00 | 0.15 | 0.00 | 84 | 1014.6 |
| 20260507042006 | 7 | 266 | 1.6 | 3.2 | 0.00 | 0.15 | 0.00 | 84 | 1014.6 |
| 20260507041906 | 7 | 273 | 1.6 | 3.2 | 0.00 | 0.15 | 0.00 | 84 | 1014.6 |
| 20260507041806 | 7 | 271 | 1.6 | 3.2 | 0.00 | 0.15 | 0.00 | 84 | 1014.6 |
| 20260507041706 | 7 | 270 | 0.0 | 1.6 | 0.00 | 0.15 | 0.00 | 84 | 1014.3 |
| 20260507041606 | 7 | 309 | 0.0 | 0.0 | 0.00 | 0.15 | 0.00 | 83 | 1014.3 |
| 20260507041506 | 7 | 309 | 0.0 | 0.0 | 0.00 | 0.15 | 0.00 | 83 | 1014.3 |
| 20260507041406 | 7 | 309 | 0.0 | 0.0 | 0.00 | 0.15 | 0.00 | 83 | 1014.3 |
| 20260507041306 | 7 | 309 | 0.0 | 0.0 | 0.00 | 0.15 | 0.00 | 83 | 1014.3 |
| 20260507041206 | 7 | 309 | 0.0 | 0.0 | 0.00 | 0.15 | 0.00 | 83 | 1014.3 |
| 20260507041106 | 7 | 309 | 0.0 | 0.0 | 0.00 | 0.15 | 0.00 | 83 | 1014.3 |
| 20260507041006 | 7 | 309 | 0.0 | 0.0 | 0.00 | 0.15 | 0.00 | 83 | 1014.3 |
| 20260507040906 | 7 | 309 | 0.0 | 0.0 | 0.00 | 0.15 | 0.00 | 83 | 1014.3 |
| 20260507040806 | 7 | 309 | 0.0 | 0.0 | 0.00 | 0.15 | 0.00 | 83 | 1014.3 |
| 20260507040706 | 7 | 309 | 0.0 | 0.0 | 0.00 | 0.15 | 0.00 | 83 | 1014.3 |
| 20260507040606 | 7 | 309 | 0.0 | 0.0 | 0.00 | 0.15 | 0.00 | 83 | 1014.3 |
| 20260507040506 | 7 | 309 | 0.0 | 0.0 | 0.00 | 0.15 | 0.00 | 83 | 1014.3 |
| 20260507040406 | 7 | 309 | 0.0 | 0.0 | 0.00 | 0.15 | 0.00 | 83 | 1014.3 |
| 20260507040306 | 7 | 309 | 0.0 | 0.0 | 0.00 | 0.15 | 0.00 | 83 | 1014.3 |
| 20260507040206 | 7 | 309 | 0.0 | 0.0 | 0.00 | 0.15 | 0.00 | 83 | 1014.3 |
| 20260507040106 | 7 | 309 | 0.0 | 0.0 | 0.00 | 0.15 | 0.00 | 83 | 1014.3 |
| 20260507040006 | 7 | 309 | 0.0 | 0.0 | 0.00 | 0.15 | 0.00 | 83 | 1014.3 |
| 20260507035906 | 7 | 309 | 0.0 | 0.0 | 0.00 | 1.75 | 0.15 | 83 | 1014.3 |
| 20260507035806 | 7 | 309 | 0.0 | 0.0 | 0.00 | 1.75 | 0.15 | 83 | 1014.3 |
| 20260507035706 | 7 | 309 | 0.0 | 0.0 | 0.00 | 1.75 | 0.15 | 83 | 1014.3 |
| 20260507035606 | 7 | 309 | 0.0 | 0.0 | 0.00 | 1.75 | 0.15 | 83 | 1014.3 |
| 20260507035506 | 7 | 309 | 0.0 | 0.0 | 0.00 | 1.75 | 0.15 | 83 | 1014.6 |
| 20260507035406 | 7 | 309 | 0.0 | 0.0 | 0.00 | 1.75 | 0.15 | 83 | 1014.3 |
| 20260507035306 | 7 | 309 | 0.0 | 0.0 | 0.00 | 1.75 | 0.15 | 83 | 1014.3 |
| 20260507035206 | 7 | 309 | 0.0 | 0.0 | 0.00 | 1.75 | 0.15 | 82 | 1014.3 |
| 20260507035106 | 7 | 309 | 0.0 | 0.0 | 0.00 | 1.75 | 0.15 | 82 | 1014.3 |
| 20260507035007 | 7 | 309 | 0.0 | 0.0 | 0.00 | 1.75 | 0.15 | 82 | 1014.3 |
| 20260507034906 | 7 | 309 | 0.0 | 0.0 | 0.00 | 1.75 | 0.15 | 82 | 1014.3 |
| 20260507034806 | 7 | 309 | 0.0 | 0.0 | 0.00 | 1.75 | 0.15 | 82 | 1014.3 |
| 20260507034706 | 7 | 309 | 0.0 | 0.0 | 0.00 | 1.75 | 0.15 | 82 | 1014.6 |
| 20260507034606 | 7 | 309 | 0.0 | 0.0 | 0.00 | 1.75 | 0.15 | 82 | 1014.3 |
| 20260507034506 | 7 | 309 | 0.0 | 0.0 | 0.00 | 1.75 | 0.15 | 81 | 1014.6 |
| 20260507034406 | 7 | 309 | 0.0 | 0.0 | 0.00 | 1.75 | 0.15 | 81 | 1014.6 |
| 20260507034306 | 7 | 309 | 0.0 | 0.0 | 0.00 | 1.75 | 0.15 | 81 | 1014.6 |
| 20260507034206 | 7 | 309 | 0.0 | 0.0 | 0.00 | 1.75 | 0.15 | 81 | 1014.6 |
| 20260507034106 | 7 | 309 | 0.0 | 0.0 | 0.00 | 1.75 | 0.15 | 81 | 1014.3 |
| 20260507034006 | 7 | 309 | 0.0 | 0.0 | 0.00 | 1.75 | 0.15 | 81 | 1014.3 |
| 20260507033906 | 7 | 309 | 0.0 | 0.0 | 0.00 | 1.75 | 0.15 | 81 | 1014.6 |
| 20260507033806 | 7 | 309 | 0.0 | 0.0 | 0.00 | 1.75 | 0.15 | 81 | 1014.6 |
| 20260507033706 | 7 | 309 | 0.0 | 0.0 | 0.00 | 1.75 | 0.15 | 81 | 1014.6 |
| 20260507033606 | 7 | 309 | 0.0 | 0.0 | 0.00 | 1.75 | 0.15 | 81 | 1014.6 |
| 20260507033506 | 7 | 309 | 0.0 | 0.0 | 0.00 | 1.75 | 0.15 | 81 | 1014.6 |
| 20260507033406 | 7 | 309 | 0.0 | 0.0 | 0.00 | 1.75 | 0.15 | 80 | 1014.6 |
| 20260507033306 | 7 | 309 | 0.0 | 0.0 | 0.00 | 1.75 | 0.15 | 80 | 1014.6 |
| 20260507033206 | 7 | 309 | 0.0 | 0.0 | 0.00 | 1.75 | 0.15 | 80 | 1014.6 |
| 20260507033106 | 7 | 309 | 0.0 | 0.0 | 0.00 | 1.75 | 0.15 | 80 | 1014.6 |
| 20260507033006 | 7 | 309 | 0.0 | 0.0 | 0.00 | 1.75 | 0.15 | 80 | 1014.6 |
| 20260507032906 | 7 | 309 | 0.0 | 0.0 | 0.00 | 1.75 | 0.15 | 80 | 1014.6 |
| 20260507032806 | 7 | 309 | 0.0 | 0.0 | 0.00 | 1.75 | 0.15 | 80 | 1014.6 |
| 20260507032706 | 7 | 309 | 0.0 | 0.0 | 0.00 | 1.75 | 0.15 | 80 | 1014.6 |
| 20260507032606 | 7 | 309 | 0.0 | 0.0 | 0.00 | 1.75 | 0.15 | 80 | 1014.3 |
| 20260507032506 | 7 | 309 | 0.0 | 0.0 | 0.00 | 1.75 | 0.15 | 80 | 1014.6 |
| 20260507032406 | 7 | 309 | 0.0 | 0.0 | 0.00 | 1.75 | 0.15 | 80 | 1014.3 |
| 20260507032306 | 7 | 309 | 0.0 | 0.0 | 0.00 | 1.75 | 0.15 | 79 | 1014.6 |
| 20260507032206 | 7 | 309 | 0.0 | 0.0 | 0.00 | 1.75 | 0.15 | 79 | 1014.6 |
| 20260507032106 | 7 | 309 | 0.0 | 0.0 | 0.00 | 1.75 | 0.15 | 79 | 1014.6 |
| 20260507032006 | 7 | 309 | 0.0 | 0.0 | 0.00 | 1.75 | 0.15 | 79 | 1014.3 |
| 20260507031906 | 7 | 309 | 0.0 | 0.0 | 0.00 | 1.75 | 0.15 | 79 | 1014.6 |
| 20260507031806 | 7 | 309 | 0.0 | 0.0 | 0.00 | 1.75 | 0.15 | 79 | 1014.6 |
| 20260507031706 | 7 | 309 | 0.0 | 0.0 | 0.00 | 1.75 | 0.15 | 79 | 1014.6 |
| 20260507031606 | 7 | 309 | 0.0 | 0.0 | 0.00 | 1.75 | 0.15 | 79 | 1014.6 |
| 20260507031506 | 7 | 309 | 0.0 | 0.0 | 0.00 | 1.75 | 0.15 | 79 | 1014.6 |
| 20260507031406 | 7 | 309 | 0.0 | 0.0 | 0.00 | 1.75 | 0.15 | 79 | 1014.6 |
| 20260507031306 | 7 | 309 | 0.0 | 0.0 | 0.00 | 1.75 | 0.15 | 79 | 1014.6 |
| 20260507031206 | 7 | 309 | 0.0 | 0.0 | 0.00 | 1.75 | 0.15 | 79 | 1014.6 |
| 20260507031106 | 7 | 309 | 0.0 | 0.0 | 0.00 | 1.75 | 0.15 | 79 | 1014.6 |
| 20260507031006 | 7 | 309 | 0.0 | 0.0 | 0.00 | 1.75 | 0.15 | 78 | 1014.6 |
| 20260507030906 | 7 | 309 | 0.0 | 0.0 | 0.00 | 1.75 | 0.15 | 78 | 1014.6 |
| 20260507030806 | 7 | 309 | 0.0 | 0.0 | 0.00 | 1.75 | 0.15 | 78 | 1014.6 |
| 20260507030706 | 8 | 309 | 0.0 | 0.0 | 0.00 | 1.75 | 0.15 | 78 | 1014.6 |
| 20260507030606 | 8 | 309 | 0.0 | 0.0 | 0.00 | 1.75 | 0.15 | 78 | 1014.6 |
| 20260507030506 | 8 | 309 | 0.0 | 0.0 | 0.00 | 1.75 | 0.15 | 78 | 1014.6 |
| 20260507030406 | 8 | 309 | 0.0 | 0.0 | 0.00 | 1.75 | 0.15 | 78 | 1014.6 |
| 20260507030306 | 8 | 309 | 0.0 | 0.0 | 0.00 | 1.75 | 0.15 | 78 | 1014.6 |
| 20260507030206 | 8 | 309 | 0.0 | 0.0 | 0.00 | 1.75 | 0.15 | 78 | 1014.6 |
| 20260507030106 | 8 | 309 | 0.0 | 0.0 | 0.00 | 1.75 | 0.15 | 78 | 1014.6 |
| 20260507030006 | 8 | 309 | 0.0 | 0.0 | 0.00 | 1.75 | 0.15 | 77 | 1014.6 |
| 20260507025906 | 8 | 309 | 0.0 | 0.0 | 0.00 | 1.75 | 0.15 | 77 | 1014.6 |
| 20260507025806 | 8 | 309 | 0.0 | 0.0 | 0.00 | 1.75 | 0.15 | 77 | 1014.6 |
| 20260507025706 | 8 | 309 | 0.0 | 0.0 | 0.00 | 1.75 | 0.15 | 77 | 1014.6 |
| 20260507025606 | 8 | 309 | 0.0 | 0.0 | 0.00 | 1.75 | 0.15 | 77 | 1014.6 |
| 20260507025506 | 8 | 309 | 0.0 | 0.0 | 0.00 | 1.75 | 0.15 | 77 | 1014.6 |
| 20260507025406 | 8 | 309 | 0.0 | 0.0 | 0.00 | 1.75 | 0.15 | 77 | 1014.6 |
| 20260507025307 | 8 | 309 | 0.0 | 0.0 | 0.00 | 1.75 | 0.15 | 77 | 1014.6 |
| 20260507025206 | 8 | 309 | 0.0 | 0.0 | 0.00 | 1.75 | 0.15 | 77 | 1014.6 |
| 20260507025106 | 8 | 309 | 0.0 | 0.0 | 0.00 | 1.75 | 0.15 | 77 | 1014.6 |
| 20260507025006 | 8 | 309 | 0.0 | 0.0 | 0.00 | 1.75 | 0.15 | 77 | 1014.6 |
| 20260507024906 | 8 | 309 | 0.0 | 0.0 | 0.00 | 1.75 | 0.15 | 77 | 1014.6 |
| 20260507024806 | 8 | 309 | 0.0 | 0.0 | 0.00 | 1.75 | 0.15 | 77 | 1014.6 |
| 20260507024706 | 8 | 309 | 0.0 | 0.0 | 0.00 | 1.75 | 0.15 | 77 | 1014.6 |
| 20260507024606 | 8 | 309 | 0.0 | 0.0 | 0.00 | 1.75 | 0.15 | 76 | 1014.6 |
| 20260507024506 | 8 | 309 | 0.0 | 0.0 | 0.00 | 1.75 | 0.15 | 76 | 1014.6 |
| 20260507024406 | 8 | 309 | 0.0 | 0.0 | 0.00 | 1.75 | 0.15 | 76 | 1014.6 |
| 20260507024306 | 8 | 309 | 0.0 | 0.0 | 0.00 | 1.75 | 0.15 | 76 | 1014.6 |
| 20260507024206 | 8 | 309 | 0.0 | 0.0 | 0.00 | 1.75 | 0.15 | 76 | 1014.6 |
| 20260507024106 | 8 | 309 | 0.0 | 0.0 | 0.00 | 1.75 | 0.15 | 76 | 1014.6 |
| 20260507024006 | 8 | 309 | 0.0 | 0.0 | 0.00 | 1.75 | 0.15 | 75 | 1014.6 |
| 20260507023906 | 8 | 309 | 0.0 | 0.0 | 0.00 | 1.75 | 0.15 | 75 | 1014.6 |
| 20260507023806 | 8 | 309 | 0.0 | 0.0 | 0.00 | 1.75 | 0.15 | 75 | 1014.6 |
| 20260507023706 | 8 | 309 | 0.0 | 0.0 | 0.00 | 1.75 | 0.15 | 75 | 1014.6 |
| 20260507023606 | 8 | 309 | 0.0 | 0.0 | 0.00 | 1.75 | 0.15 | 75 | 1014.6 |
| 20260507023506 | 8 | 309 | 0.0 | 0.0 | 0.00 | 1.75 | 0.15 | 76 | 1014.6 |
| 20260507023406 | 8 | 309 | 0.0 | 0.0 | 0.00 | 1.75 | 0.15 | 76 | 1014.6 |
| 20260507023306 | 8 | 309 | 0.0 | 0.0 | 0.00 | 1.75 | 0.15 | 76 | 1014.6 |
| 20260507023206 | 8 | 309 | 0.0 | 0.0 | 0.00 | 1.75 | 0.15 | 76 | 1014.6 |
| 20260507023106 | 8 | 309 | 0.0 | 0.0 | 0.00 | 1.75 | 0.15 | 75 | 1014.6 |
| 20260507023006 | 8 | 309 | 0.0 | 0.0 | 0.00 | 1.75 | 0.15 | 75 | 1014.6 |
| 20260507022906 | 8 | 309 | 0.0 | 0.0 | 0.00 | 1.75 | 0.15 | 75 | 1014.6 |
| 20260507022806 | 8 | 309 | 0.0 | 0.0 | 0.00 | 1.75 | 0.15 | 75 | 1014.6 |
| 20260507022706 | 8 | 309 | 0.0 | 0.0 | 0.00 | 1.75 | 0.15 | 75 | 1014.6 |
| 20260507022606 | 8 | 309 | 0.0 | 0.0 | 0.00 | 1.75 | 0.15 | 75 | 1014.6 |
| 20260507022506 | 8 | 309 | 0.0 | 0.0 | 0.00 | 1.75 | 0.15 | 75 | 1014.6 |
| 20260507022406 | 8 | 309 | 0.0 | 0.0 | 0.00 | 1.75 | 0.15 | 75 | 1014.6 |
| 20260507022306 | 8 | 309 | 0.0 | 0.0 | 0.00 | 1.75 | 0.15 | 75 | 1014.6 |
| 20260507022206 | 8 | 309 | 0.0 | 0.0 | 0.00 | 1.75 | 0.15 | 75 | 1014.6 |
| 20260507022106 | 8 | 309 | 0.0 | 0.0 | 0.00 | 1.75 | 0.15 | 75 | 1014.6 |
| 20260507022006 | 8 | 309 | 0.0 | 0.0 | 0.00 | 1.75 | 0.15 | 75 | 1014.6 |
| 20260507021906 | 8 | 309 | 0.0 | 0.0 | 0.00 | 1.75 | 0.15 | 75 | 1014.6 |
| 20260507021806 | 8 | 309 | 0.0 | 0.0 | 0.00 | 1.75 | 0.15 | 75 | 1014.6 |
| 20260507021706 | 8 | 309 | 0.0 | 0.0 | 0.00 | 1.75 | 0.15 | 75 | 1014.6 |
| 20260507021606 | 8 | 309 | 0.0 | 0.0 | 0.00 | 1.75 | 0.15 | 75 | 1014.6 |
| 20260507021506 | 8 | 309 | 0.0 | 0.0 | 0.00 | 1.75 | 0.15 | 75 | 1014.6 |
| 20260507021406 | 8 | 309 | 0.0 | 0.0 | 0.00 | 1.75 | 0.15 | 74 | 1014.6 |
| 20260507021306 | 8 | 309 | 0.0 | 0.0 | 0.00 | 1.75 | 0.15 | 74 | 1014.9 |
| 20260507021206 | 8 | 309 | 0.0 | 0.0 | 0.00 | 1.75 | 0.15 | 74 | 1014.6 |
| 20260507021106 | 8 | 309 | 0.0 | 0.0 | 0.00 | 1.75 | 0.15 | 73 | 1014.6 |
| 20260507021006 | 8 | 309 | 0.0 | 0.0 | 0.00 | 1.75 | 0.15 | 73 | 1014.6 |
| 20260507020906 | 8 | 309 | 0.0 | 0.0 | 0.00 | 1.75 | 0.15 | 73 | 1014.6 |
| 20260507020806 | 8 | 309 | 0.0 | 0.0 | 0.00 | 1.75 | 0.15 | 73 | 1014.6 |
| 20260507020706 | 8 | 309 | 0.0 | 0.0 | 0.00 | 1.75 | 0.15 | 73 | 1014.6 |
| 20260507020606 | 8 | 309 | 0.0 | 0.0 | 0.00 | 1.75 | 0.15 | 73 | 1014.6 |
| 20260507020506 | 8 | 309 | 0.0 | 0.0 | 0.00 | 1.75 | 0.15 | 73 | 1014.6 |
| 20260507020406 | 8 | 309 | 0.0 | 0.0 | 0.00 | 1.75 | 0.15 | 73 | 1014.6 |
| 20260507020306 | 8 | 309 | 0.0 | 0.0 | 0.00 | 1.75 | 0.15 | 72 | 1014.6 |
| 20260507020206 | 8 | 309 | 0.0 | 0.0 | 0.00 | 1.75 | 0.15 | 72 | 1014.6 |
| 20260507020106 | 8 | 309 | 0.0 | 0.0 | 0.00 | 1.75 | 0.15 | 72 | 1014.6 |
| 20260507020006 | 8 | 309 | 0.0 | 0.0 | 0.00 | 1.75 | 0.15 | 72 | 1014.6 |
| 20260507015906 | 8 | 309 | 0.0 | 0.0 | 0.00 | 1.75 | 0.15 | 72 | 1014.6 |
| 20260507015806 | 8 | 309 | 0.0 | 0.0 | 0.00 | 1.75 | 0.15 | 71 | 1014.6 |
| 20260507015707 | 8 | 309 | 0.0 | 0.0 | 0.00 | 1.75 | 0.15 | 71 | 1014.3 |
| 20260507015606 | 8 | 309 | 0.0 | 0.0 | 0.00 | 1.75 | 0.15 | 71 | 1014.3 |
| 20260507015506 | 8 | 309 | 0.0 | 0.0 | 0.00 | 1.75 | 0.15 | 70 | 1014.6 |
| 20260507015406 | 8 | 309 | 0.0 | 0.0 | 0.00 | 1.75 | 0.15 | 70 | 1014.6 |
| 20260507015306 | 8 | 309 | 0.0 | 0.0 | 0.00 | 1.75 | 0.15 | 70 | 1014.3 |
| 20260507015206 | 8 | 309 | 0.0 | 0.0 | 0.00 | 1.75 | 0.15 | 70 | 1014.3 |
| 20260507015106 | 8 | 309 | 0.0 | 0.0 | 0.00 | 1.75 | 0.15 | 70 | 1014.3 |
| 20260507015006 | 8 | 309 | 0.0 | 0.0 | 0.00 | 1.75 | 0.15 | 70 | 1014.3 |
| 20260507014906 | 8 | 309 | 0.0 | 0.0 | 0.00 | 1.75 | 0.15 | 70 | 1014.3 |
| 20260507014806 | 8 | 309 | 0.0 | 0.0 | 0.00 | 1.75 | 0.15 | 70 | 1014.3 |
| 20260507014706 | 9 | 309 | 0.0 | 0.0 | 0.00 | 1.75 | 0.15 | 70 | 1014.3 |
| 20260507014606 | 9 | 309 | 0.0 | 0.0 | 0.00 | 1.75 | 0.15 | 70 | 1014.3 |
| 20260507014506 | 9 | 309 | 0.0 | 0.0 | 0.00 | 1.75 | 0.15 | 70 | 1014.3 |
| 20260507014406 | 9 | 309 | 0.0 | 0.0 | 0.00 | 1.75 | 0.15 | 70 | 1014.3 |
| 20260507014306 | 9 | 309 | 0.0 | 0.0 | 0.00 | 1.75 | 0.15 | 69 | 1014.3 |
| 20260507014206 | 9 | 309 | 0.0 | 0.0 | 0.00 | 1.75 | 0.15 | 69 | 1014.3 |
| 20260507014106 | 9 | 309 | 0.0 | 0.0 | 0.00 | 1.75 | 0.15 | 69 | 1013.9 |
| 20260507014006 | 9 | 309 | 0.0 | 0.0 | 0.00 | 1.75 | 0.15 | 69 | 1013.9 |
| 20260507013906 | 9 | 309 | 0.0 | 0.0 | 0.00 | 1.75 | 0.15 | 69 | 1013.9 |
| 20260507013806 | 9 | 309 | 0.0 | 0.0 | 0.00 | 1.75 | 0.15 | 68 | 1013.9 |
| 20260507013706 | 9 | 309 | 0.0 | 0.0 | 0.00 | 1.75 | 0.15 | 68 | 1013.9 |
| 20260507013606 | 9 | 309 | 0.0 | 0.0 | 0.00 | 1.75 | 0.15 | 68 | 1013.9 |
| 20260507013506 | 9 | 309 | 0.0 | 0.0 | 0.00 | 1.75 | 0.15 | 68 | 1013.9 |
| 20260507013406 | 9 | 309 | 0.0 | 0.0 | 0.00 | 1.75 | 0.15 | 67 | 1014.3 |
| 20260507013306 | 9 | 309 | 0.0 | 0.0 | 0.00 | 1.75 | 0.15 | 67 | 1014.3 |
| 20260507013206 | 9 | 309 | 0.0 | 0.0 | 0.00 | 1.75 | 0.15 | 67 | 1014.3 |
| 20260507013106 | 10 | 309 | 0.0 | 0.0 | 0.00 | 1.75 | 0.15 | 67 | 1013.9 |
| 20260507013006 | 10 | 309 | 0.0 | 0.0 | 0.00 | 1.75 | 0.15 | 67 | 1013.9 |
| 20260507012906 | 10 | 309 | 0.0 | 0.0 | 0.00 | 1.75 | 0.15 | 67 | 1013.9 |
| 20260507012806 | 10 | 309 | 0.0 | 0.0 | 0.00 | 1.75 | 0.15 | 67 | 1013.9 |
| 20260507012706 | 10 | 309 | 0.0 | 0.0 | 0.00 | 1.75 | 0.15 | 67 | 1013.9 |
| 20260507012606 | 10 | 309 | 0.0 | 0.0 | 0.00 | 1.75 | 0.15 | 67 | 1013.9 |
| 20260507012506 | 10 | 309 | 0.0 | 0.0 | 0.00 | 1.75 | 0.15 | 66 | 1013.9 |
| 20260507012406 | 10 | 309 | 0.0 | 0.0 | 0.00 | 1.75 | 0.15 | 66 | 1013.9 |
| 20260507012307 | 10 | 309 | 0.0 | 0.0 | 0.00 | 1.75 | 0.15 | 66 | 1014.3 |
| 20260507012206 | 10 | 309 | 0.0 | 0.0 | 0.00 | 1.75 | 0.15 | 66 | 1013.9 |
| 20260507012106 | 10 | 309 | 0.0 | 0.0 | 0.00 | 1.75 | 0.15 | 66 | 1013.9 |
| 20260507012006 | 10 | 309 | 0.0 | 0.0 | 0.00 | 1.75 | 0.15 | 66 | 1013.9 |
| 20260507011906 | 10 | 309 | 0.0 | 0.0 | 0.00 | 1.75 | 0.15 | 66 | 1013.9 |
| 20260507011806 | 10 | 309 | 0.0 | 0.0 | 0.00 | 1.75 | 0.15 | 65 | 1013.9 |
| 20260507011706 | 10 | 309 | 0.0 | 0.0 | 0.00 | 1.75 | 0.15 | 65 | 1013.9 |
| 20260507011606 | 10 | 309 | 0.0 | 0.0 | 0.00 | 1.75 | 0.15 | 65 | 1013.9 |
| 20260507011506 | 10 | 309 | 0.0 | 0.0 | 0.00 | 1.75 | 0.15 | 65 | 1013.9 |
| 20260507011406 | 10 | 309 | 0.0 | 0.0 | 0.00 | 1.75 | 0.15 | 65 | 1013.9 |
| 20260507011306 | 10 | 309 | 0.0 | 0.0 | 0.00 | 1.75 | 0.15 | 64 | 1013.9 |
| 20260507011206 | 10 | 309 | 0.0 | 0.0 | 0.00 | 1.75 | 0.15 | 64 | 1013.9 |
| 20260507011106 | 10 | 309 | 0.0 | 0.0 | 0.00 | 1.75 | 0.15 | 64 | 1013.9 |
| 20260507011006 | 10 | 309 | 0.0 | 0.0 | 0.00 | 1.75 | 0.15 | 63 | 1013.9 |
| 20260507010906 | 10 | 309 | 0.0 | 0.0 | 0.00 | 1.75 | 0.15 | 63 | 1013.9 |
| 20260507010806 | 10 | 309 | 0.0 | 0.0 | 0.00 | 1.75 | 0.15 | 63 | 1013.9 |
| 20260507010706 | 10 | 309 | 0.0 | 0.0 | 0.00 | 1.75 | 0.15 | 63 | 1013.9 |
| 20260507010606 | 10 | 309 | 0.0 | 0.0 | 0.00 | 1.75 | 0.15 | 63 | 1013.9 |
| 20260507010506 | 10 | 309 | 0.0 | 0.0 | 0.00 | 1.75 | 0.15 | 63 | 1013.9 |
| 20260507010406 | 10 | 309 | 0.0 | 0.0 | 0.00 | 1.75 | 0.15 | 63 | 1013.9 |
| 20260507010306 | 10 | 309 | 0.0 | 0.0 | 0.00 | 1.75 | 0.15 | 62 | 1013.9 |
| 20260507010206 | 10 | 309 | 0.0 | 0.0 | 0.00 | 1.75 | 0.15 | 62 | 1013.9 |
| 20260507010106 | 10 | 309 | 0.0 | 0.0 | 0.00 | 1.75 | 0.15 | 62 | 1013.9 |
| 20260507010006 | 10 | 309 | 0.0 | 0.0 | 0.00 | 1.75 | 0.15 | 62 | 1013.9 |
| 20260507005906 | 11 | 309 | 0.0 | 0.0 | 0.00 | 1.75 | 0.15 | 62 | 1013.9 |
| 20260507005806 | 11 | 309 | 0.0 | 0.0 | 0.00 | 1.75 | 0.15 | 62 | 1013.9 |
| 20260507005706 | 11 | 309 | 0.0 | 0.0 | 0.00 | 1.75 | 0.15 | 61 | 1013.9 |
| 20260507005606 | 11 | 309 | 0.0 | 0.0 | 0.00 | 1.75 | 0.15 | 61 | 1013.9 |
| 20260507005506 | 11 | 309 | 0.0 | 0.0 | 0.00 | 1.75 | 0.15 | 61 | 1013.9 |
| 20260507005406 | 11 | 309 | 0.0 | 0.0 | 0.00 | 1.75 | 0.15 | 60 | 1013.9 |
| 20260507005306 | 11 | 309 | 0.0 | 0.0 | 0.00 | 1.75 | 0.15 | 60 | 1013.9 |
| 20260507005206 | 11 | 309 | 0.0 | 0.0 | 0.00 | 1.75 | 0.15 | 60 | 1013.9 |
| 20260507005106 | 11 | 309 | 0.0 | 0.0 | 0.00 | 1.75 | 0.15 | 60 | 1013.9 |
| 20260507005006 | 11 | 309 | 0.0 | 0.0 | 0.00 | 1.75 | 0.15 | 59 | 1013.9 |
| 20260507004906 | 11 | 309 | 0.0 | 0.0 | 0.00 | 1.75 | 0.15 | 59 | 1013.9 |
| 20260507004806 | 11 | 309 | 0.0 | 0.0 | 0.00 | 1.75 | 0.15 | 59 | 1013.9 |
| 20260507004706 | 11 | 309 | 0.0 | 0.0 | 0.00 | 1.75 | 0.15 | 58 | 1013.9 |
| 20260507004606 | 11 | 309 | 0.0 | 0.0 | 0.00 | 1.75 | 0.15 | 58 | 1013.9 |
| 20260507004506 | 11 | 309 | 0.0 | 1.6 | 0.00 | 1.75 | 0.15 | 58 | 1013.6 |
| 20260507004406 | 11 | 309 | 0.0 | 3.2 | 0.00 | 1.75 | 0.15 | 58 | 1013.6 |
| 20260507004306 | 11 | 309 | 0.0 | 3.2 | 0.00 | 1.75 | 0.15 | 58 | 1013.6 |
| 20260507004206 | 11 | 309 | 0.0 | 3.2 | 0.00 | 1.75 | 0.15 | 57 | 1013.6 |
| 20260507004106 | 11 | 309 | 0.0 | 3.2 | 0.00 | 1.75 | 0.15 | 57 | 1013.6 |
| 20260507004006 | 11 | 309 | 0.0 | 3.2 | 0.00 | 1.75 | 0.15 | 57 | 1013.6 |
| 20260507003906 | 11 | 309 | 0.0 | 3.2 | 0.00 | 1.75 | 0.15 | 57 | 1013.6 |
| 20260507003806 | 11 | 309 | 0.0 | 4.8 | 0.00 | 1.75 | 0.15 | 57 | 1013.6 |
| 20260507003706 | 11 | 309 | 0.0 | 4.8 | 0.00 | 1.75 | 0.15 | 57 | 1013.6 |
| 20260507003606 | 11 | 309 | 0.0 | 4.8 | 0.00 | 1.75 | 0.15 | 57 | 1013.6 |
| 20260507003506 | 11 | 336 | 1.6 | 6.4 | 0.00 | 1.75 | 0.15 | 57 | 1013.6 |
| 20260507003406 | 11 | 295 | 0.0 | 6.4 | 0.00 | 1.75 | 0.15 | 57 | 1013.6 |
| 20260507003306 | 11 | 295 | 1.6 | 6.4 | 0.00 | 1.75 | 0.15 | 56 | 1013.6 |
| 20260507003206 | 11 | 290 | 0.0 | 6.4 | 0.00 | 1.75 | 0.15 | 56 | 1013.6 |
| 20260507003106 | 11 | 290 | 0.0 | 6.4 | 0.00 | 1.75 | 0.15 | 56 | 1013.6 |
| 20260507003006 | 11 | 309 | 1.6 | 6.4 | 0.00 | 1.75 | 0.15 | 56 | 1013.6 |
| 20260507002906 | 11 | 332 | 3.2 | 6.4 | 0.00 | 1.75 | 0.15 | 56 | 1013.6 |
| 20260507002806 | 11 | 322 | 0.0 | 6.4 | 0.00 | 1.75 | 0.15 | 56 | 1013.6 |
| 20260507002706 | 11 | 333 | 0.0 | 6.4 | 0.00 | 1.75 | 0.15 | 56 | 1013.6 |
| 20260507002606 | 11 | 336 | 3.2 | 6.4 | 0.00 | 1.75 | 0.15 | 56 | 1013.6 |
| 20260507002506 | 12 | 307 | 3.2 | 8.0 | 0.00 | 1.75 | 0.15 | 55 | 1013.6 |
| 20260507002406 | 12 | 312 | 1.6 | 8.0 | 0.00 | 1.75 | 0.15 | 55 | 1013.6 |
| 20260507002306 | 12 | 305 | 1.6 | 8.0 | 0.00 | 1.75 | 0.15 | 55 | 1013.6 |
| 20260507002206 | 12 | 325 | 0.0 | 8.0 | 0.00 | 1.75 | 0.15 | 55 | 1013.6 |
| 20260507002106 | 12 | 285 | 0.0 | 8.0 | 0.00 | 1.75 | 0.15 | 55 | 1013.6 |
| 20260507002006 | 12 | 285 | 1.6 | 8.0 | 0.00 | 1.75 | 0.15 | 55 | 1013.6 |
| 20260507001906 | 12 | 294 | 4.8 | 8.0 | 0.00 | 1.75 | 0.15 | 55 | 1013.6 |
| 20260507001806 | 12 | 315 | 4.8 | 8.0 | 0.00 | 1.75 | 0.15 | 55 | 1013.6 |
| 20260507001706 | 12 | 309 | 3.2 | 8.0 | 0.00 | 1.75 | 0.15 | 54 | 1013.6 |
| 20260507001606 | 12 | 336 | 3.2 | 8.0 | 0.00 | 1.75 | 0.15 | 54 | 1013.6 |
| 20260507001506 | 12 | 333 | 3.2 | 8.0 | 0.00 | 1.75 | 0.15 | 54 | 1013.6 |
| 20260507001406 | 12 | 294 | 4.8 | 9.7 | 0.00 | 1.75 | 0.15 | 54 | 1013.6 |
| 20260507001306 | 12 | 326 | 6.4 | 9.7 | 0.00 | 1.75 | 0.15 | 54 | 1013.6 |
| 20260507001206 | 12 | 305 | 4.8 | 9.7 | 0.00 | 1.75 | 0.15 | 54 | 1013.6 |
| 20260507001106 | 12 | 267 | 3.2 | 11.3 | 0.00 | 1.75 | 0.15 | 54 | 1013.6 |
| 20260507001006 | 12 | 297 | 3.2 | 11.3 | 0.00 | 1.75 | 0.15 | 54 | 1013.6 |
| 20260507000907 | 12 | 307 | 3.2 | 11.3 | 0.00 | 1.75 | 0.15 | 54 | 1013.6 |
| 20260507000806 | 12 | 328 | 3.2 | 11.3 | 0.00 | 1.75 | 0.15 | 54 | 1013.6 |
| 20260507000706 | 12 | 295 | 4.8 | 11.3 | 0.00 | 1.75 | 0.15 | 54 | 1013.6 |
| 20260507000606 | 12 | 311 | 6.4 | 11.3 | 0.00 | 1.75 | 0.15 | 54 | 1013.6 |
| 20260507000506 | 12 | 309 | 8.0 | 11.3 | 0.00 | 1.75 | 0.15 | 53 | 1013.6 |
| 20260507000406 | 12 | 318 | 3.2 | 11.3 | 0.00 | 1.75 | 0.15 | 54 | 1013.6 |
| 20260507000306 | 12 | 312 | 6.4 | 11.3 | 0.00 | 1.75 | 0.15 | 53 | 1013.6 |
| 20260507000206 | 12 | 343 | 4.8 | 11.3 | 0.00 | 1.75 | 0.15 | 53 | 1013.6 |
| 20260507000106 | 12 | 308 | 1.6 | 12.9 | 0.00 | 1.75 | 0.15 | 54 | 1013.6 |
| 20260507000006 | 12 | 333 | 0.0 | 12.9 | 0.00 | 1.75 | 0.15 | 54 | 1013.6 |
| 20260506235906 | 12 | 262 | 0.0 | 12.9 | 0.00 | 1.75 | 0.15 | 54 | 1013.6 |
| 20260506235806 | 12 | 307 | 0.0 | 12.9 | 0.00 | 1.75 | 0.15 | 54 | 1013.6 |
| 20260506235706 | 12 | 298 | 3.2 | 12.9 | 0.00 | 1.75 | 0.15 | 54 | 1013.6 |
| 20260506235606 | 12 | 270 | 1.6 | 12.9 | 0.00 | 1.75 | 0.15 | 53 | 1013.6 |
| 20260506235506 | 12 | 300 | 3.2 | 12.9 | 0.00 | 1.75 | 0.15 | 52 | 1013.6 |
| 20260506235406 | 12 | 283 | 3.2 | 12.9 | 0.00 | 1.75 | 0.15 | 53 | 1013.6 |
| 20260506235307 | 12 | 280 | 3.2 | 12.9 | 0.00 | 1.75 | 0.15 | 52 | 1013.6 |
| 20260506235206 | 12 | 332 | 6.4 | 12.9 | 0.00 | 1.75 | 0.15 | 52 | 1013.6 |
| 20260506235106 | 12 | 274 | 6.4 | 11.3 | 0.00 | 1.75 | 0.15 | 51 | 1013.6 |
| 20260506235006 | 12 | 339 | 6.4 | 11.3 | 0.00 | 1.75 | 0.15 | 51 | 1013.6 |
| 20260506234906 | 12 | 283 | 8.0 | 11.3 | 0.00 | 1.75 | 0.15 | 51 | 1013.6 |
| 20260506234806 | 12 | 304 | 3.2 | 9.7 | 0.00 | 1.75 | 0.15 | 52 | 1013.6 |
| 20260506234706 | 12 | 301 | 4.8 | 9.7 | 0.00 | 1.75 | 0.15 | 52 | 1013.6 |
| 20260506234606 | 12 | 280 | 3.2 | 9.7 | 0.00 | 1.75 | 0.15 | 53 | 1013.6 |
| 20260506234506 | 12 | 253 | 3.2 | 9.7 | 0.00 | 1.75 | 0.15 | 53 | 1013.6 |
| 20260506234406 | 12 | 290 | 6.4 | 9.7 | 0.00 | 1.75 | 0.15 | 52 | 1013.6 |
| 20260506234306 | 12 | 325 | 4.8 | 8.0 | 0.00 | 1.75 | 0.15 | 53 | 1013.6 |
| 20260506234206 | 12 | 330 | 1.6 | 8.0 | 0.00 | 1.75 | 0.15 | 54 | 1013.6 |
| 20260506234106 | 12 | 323 | 3.2 | 8.0 | 0.00 | 1.75 | 0.15 | 53 | 1013.6 |
| 20260506234006 | 12 | 293 | 4.8 | 9.7 | 0.00 | 1.75 | 0.15 | 53 | 1013.6 |
| 20260506233906 | 12 | 332 | 4.8 | 9.7 | 0.00 | 1.75 | 0.15 | 54 | 1013.6 |
| 20260506233806 | 12 | 328 | 4.8 | 11.3 | 0.00 | 1.75 | 0.15 | 53 | 1013.6 |
| 20260506233706 | 12 | 339 | 3.2 | 11.3 | 0.00 | 1.75 | 0.15 | 54 | 1013.6 |
| 20260506233606 | 12 | 314 | 1.6 | 11.3 | 0.00 | 1.75 | 0.15 | 53 | 1013.6 |
| 20260506233506 | 12 | 316 | 1.6 | 11.3 | 0.00 | 1.75 | 0.15 | 53 | 1013.6 |
| 20260506233406 | 12 | 322 | 6.4 | 11.3 | 0.00 | 1.75 | 0.15 | 53 | 1013.6 |
| 20260506233306 | 12 | 336 | 6.4 | 11.3 | 0.00 | 1.75 | 0.15 | 53 | 1013.6 |
| 20260506233206 | 12 | 326 | 6.4 | 11.3 | 0.00 | 1.75 | 0.15 | 53 | 1013.6 |
| 20260506233106 | 12 | 345 | 6.4 | 11.3 | 0.00 | 1.75 | 0.15 | 53 | 1013.6 |
| 20260506233006 | 12 | 290 | 3.2 | 11.3 | 0.00 | 1.75 | 0.15 | 53 | 1013.6 |
| 20260506232906 | 12 | 328 | 8.0 | 11.3 | 0.00 | 1.75 | 0.15 | 52 | 1013.6 |
| 20260506232806 | 12 | 4 | 9.7 | 11.3 | 0.00 | 1.75 | 0.15 | 53 | 1013.6 |
| 20260506232707 | 12 | 309 | 3.2 | 11.3 | 0.00 | 1.75 | 0.15 | 53 | 1013.6 |
| 20260506232606 | 12 | 271 | 6.4 | 11.3 | 0.00 | 1.75 | 0.15 | 53 | 1013.6 |
| 20260506232506 | 12 | 281 | 6.4 | 11.3 | 0.00 | 1.75 | 0.15 | 53 | 1013.6 |
| 20260506232407 | 12 | 340 | 6.4 | 11.3 | 0.00 | 1.75 | 0.15 | 53 | 1013.6 |
| 20260506232307 | 12 | 308 | 6.4 | 11.3 | 0.00 | 1.75 | 0.15 | 53 | 1013.6 |
| 20260506232206 | 12 | 273 | 6.4 | 11.3 | 0.00 | 1.75 | 0.15 | 53 | 1013.6 |
| 20260506232106 | 12 | 294 | 3.2 | 11.3 | 0.00 | 1.75 | 0.15 | 54 | 1013.6 |
| 20260506232006 | 12 | 350 | 4.8 | 11.3 | 0.00 | 1.75 | 0.15 | 54 | 1013.6 |
| 20260506231907 | 12 | 328 | 4.8 | 11.3 | 0.00 | 1.75 | 0.15 | 54 | 1013.6 |
| 20260506231806 | 12 | 322 | 1.6 | 11.3 | 0.00 | 1.75 | 0.15 | 54 | 1013.6 |
| 20260506231706 | 12 | 309 | 0.0 | 11.3 | 0.00 | 1.75 | 0.15 | 54 | 1013.6 |
| 20260506231607 | 12 | 309 | 1.6 | 11.3 | 0.00 | 1.75 | 0.15 | 53 | 1013.6 |
| 20260506231506 | 12 | 283 | 1.6 | 11.3 | 0.00 | 1.75 | 0.15 | 53 | 1013.6 |
| 20260506231407 | 12 | 276 | 4.8 | 11.3 | 0.00 | 1.75 | 0.15 | 53 | 1013.6 |
| 20260506231306 | 12 | 305 | 6.4 | 11.3 | 0.00 | 1.75 | 0.15 | 53 | 1013.6 |
| 20260506231206 | 12 | 300 | 6.4 | 8.0 | 0.00 | 1.75 | 0.15 | 53 | 1013.6 |
| 20260506231106 | 12 | 263 | 0.0 | 8.0 | 0.00 | 1.75 | 0.15 | 53 | 1013.6 |
| 20260506231006 | 12 | 291 | 3.2 | 8.0 | 0.00 | 1.75 | 0.15 | 53 | 1013.6 |
| 20260506230907 | 12 | 305 | 1.6 | 9.7 | 0.00 | 1.75 | 0.15 | 53 | 1013.6 |
| 20260506230806 | 12 | 302 | 1.6 | 9.7 | 0.00 | 1.75 | 0.15 | 54 | 1013.6 |
| 20260506230706 | 12 | 304 | 1.6 | 9.7 | 0.00 | 1.75 | 0.15 | 53 | 1013.6 |
| 20260506230606 | 12 | 297 | 3.2 | 9.7 | 0.00 | 1.75 | 0.15 | 53 | 1013.6 |
| 20260506230507 | 12 | 328 | 0.0 | 9.7 | 0.00 | 1.75 | 0.15 | 53 | 1013.6 |
| 20260506230406 | 12 | 312 | 1.6 | 11.3 | 0.00 | 1.75 | 0.15 | 53 | 1013.6 |
| 20260506230307 | 12 | 307 | 1.6 | 11.3 | 0.00 | 1.75 | 0.15 | 53 | 1013.6 |
| 20260506230206 | 12 | 308 | 3.2 | 11.3 | 0.00 | 1.75 | 0.15 | 52 | 1013.6 |
| 20260506230106 | 12 | 297 | 4.8 | 11.3 | 0.00 | 1.75 | 0.15 | 51 | 1013.6 |
| 20260506230006 | 12 | 298 | 6.4 | 11.3 | 0.00 | 1.75 | 0.15 | 52 | 1013.6 |
| 20260506225906 | 12 | 322 | 4.8 | 12.9 | 0.00 | 1.75 | 0.15 | 52 | 1013.6 |
| 20260506225806 | 12 | 302 | 3.2 | 12.9 | 0.00 | 1.75 | 0.15 | 53 | 1013.6 |
| 20260506225707 | 12 | 314 | 1.6 | 12.9 | 0.00 | 1.75 | 0.15 | 52 | 1013.9 |
| 20260506225607 | 12 | 319 | 6.4 | 12.9 | 0.00 | 1.75 | 0.15 | 52 | 1013.6 |
| 20260506225506 | 12 | 338 | 8.0 | 12.9 | 0.00 | 1.75 | 0.15 | 52 | 1013.6 |
| 20260506225406 | 12 | 319 | 3.2 | 12.9 | 0.00 | 1.75 | 0.15 | 53 | 1013.6 |
| 20260506225306 | 12 | 316 | 6.4 | 12.9 | 0.00 | 1.75 | 0.15 | 52 | 1013.6 |
| 20260506225206 | 12 | 339 | 3.2 | 12.9 | 0.00 | 1.75 | 0.15 | 52 | 1013.9 |
| 20260506225107 | 12 | 332 | 6.4 | 12.9 | 0.00 | 1.75 | 0.15 | 51 | 1013.9 |
| 20260506225007 | 12 | 316 | 8.0 | 12.9 | 0.00 | 1.75 | 0.15 | 51 | 1013.9 |
| 20260506224906 | 12 | 311 | 3.2 | 12.9 | 0.00 | 1.75 | 0.15 | 52 | 1013.9 |
| 20260506224806 | 12 | 287 | 3.2 | 12.9 | 0.00 | 1.75 | 0.15 | 51 | 1013.9 |
| 20260506224707 | 12 | 297 | 4.8 | 12.9 | 0.00 | 1.75 | 0.15 | 51 | 1013.9 |
| 20260506224607 | 12 | 297 | 8.0 | 12.9 | 0.00 | 1.75 | 0.15 | 51 | 1013.9 |
| 20260506224506 | 12 | 316 | 4.8 | 12.9 | 0.00 | 1.75 | 0.15 | 51 | 1013.9 |
| 20260506224406 | 12 | 297 | 8.0 | 12.9 | 0.00 | 1.75 | 0.15 | 51 | 1013.9 |
| 20260506224306 | 12 | 335 | 8.0 | 12.9 | 0.00 | 1.75 | 0.15 | 51 | 1013.9 |
| 20260506224206 | 12 | 295 | 6.4 | 12.9 | 0.00 | 1.75 | 0.15 | 51 | 1013.9 |
| 20260506224107 | 12 | 345 | 6.4 | 14.5 | 0.00 | 1.75 | 0.15 | 50 | 1013.9 |
| 20260506224006 | 12 | 312 | 8.0 | 14.5 | 0.00 | 1.75 | 0.15 | 51 | 1013.9 |
| 20260506223906 | 12 | 335 | 8.0 | 14.5 | 0.00 | 1.75 | 0.15 | 51 | 1013.9 |
| 20260506223807 | 12 | 276 | 6.4 | 14.5 | 0.00 | 1.75 | 0.15 | 51 | 1014.3 |
| 20260506223707 | 12 | 293 | 3.2 | 14.5 | 0.00 | 1.75 | 0.15 | 50 | 1014.3 |
| 20260506223607 | 12 | 264 | 6.4 | 14.5 | 0.00 | 1.75 | 0.15 | 50 | 1014.3 |
| 20260506223506 | 12 | 266 | 6.4 | 14.5 | 0.00 | 1.75 | 0.15 | 50 | 1014.3 |
| 20260506223406 | 12 | 269 | 6.4 | 14.5 | 0.00 | 1.75 | 0.15 | 50 | 1014.3 |
| 20260506223306 | 12 | 311 | 4.8 | 14.5 | 0.00 | 1.75 | 0.15 | 50 | 1014.3 |
| 20260506223207 | 12 | 288 | 8.0 | 14.5 | 0.00 | 1.75 | 0.15 | 50 | 1014.3 |
| 20260506223107 | 12 | 328 | 8.0 | 12.9 | 0.00 | 1.75 | 0.15 | 50 | 1014.3 |
| 20260506223007 | 12 | 274 | 4.8 | 12.9 | 0.00 | 1.75 | 0.15 | 51 | 1014.3 |
| 20260506222906 | 12 | 260 | 6.4 | 12.9 | 0.00 | 1.75 | 0.15 | 50 | 1014.3 |
| 20260506222806 | 12 | 290 | 6.4 | 12.9 | 0.00 | 1.75 | 0.15 | 50 | 1014.3 |
| 20260506222706 | 12 | 302 | 8.0 | 12.9 | 0.00 | 1.75 | 0.15 | 50 | 1014.3 |
| 20260506222606 | 12 | 284 | 4.8 | 12.9 | 0.00 | 1.75 | 0.15 | 51 | 1013.9 |
| 20260506222507 | 12 | 294 | 3.2 | 12.9 | 0.00 | 1.75 | 0.15 | 51 | 1013.9 |
| 20260506222407 | 12 | 301 | 3.2 | 19.3 | 0.00 | 1.75 | 0.15 | 50 | 1013.9 |
| 20260506222307 | 12 | 281 | 6.4 | 19.3 | 0.00 | 1.75 | 0.15 | 50 | 1013.9 |
| 20260506222207 | 12 | 293 | 8.0 | 19.3 | 0.00 | 1.75 | 0.15 | 50 | 1013.9 |
| 20260506222107 | 12 | 304 | 8.0 | 19.3 | 0.00 | 1.75 | 0.15 | 50 | 1013.9 |
| 20260506222007 | 12 | 359 | 4.8 | 19.3 | 0.00 | 1.75 | 0.15 | 50 | 1013.9 |
| 20260506221907 | 12 | 319 | 3.2 | 19.3 | 0.00 | 1.75 | 0.15 | 50 | 1013.9 |
| 20260506221807 | 12 | 312 | 4.8 | 19.3 | 0.00 | 1.75 | 0.15 | 50 | 1013.9 |
| 20260506221707 | 12 | 311 | 6.4 | 19.3 | 0.00 | 1.75 | 0.15 | 50 | 1013.9 |
| 20260506221606 | 12 | 349 | 6.4 | 19.3 | 0.00 | 1.75 | 0.15 | 49 | 1013.9 |
| 20260506221506 | 12 | 281 | 9.7 | 19.3 | 0.00 | 1.75 | 0.15 | 49 | 1013.9 |
| 20260506221406 | 12 | 305 | 8.0 | 12.9 | 0.00 | 1.75 | 0.15 | 50 | 1013.9 |
| 20260506221306 | 12 | 318 | 9.7 | 12.9 | 0.00 | 1.75 | 0.15 | 50 | 1013.9 |
| 20260506221206 | 12 | 335 | 4.8 | 16.1 | 0.00 | 1.75 | 0.15 | 50 | 1013.9 |
| 20260506221107 | 12 | 336 | 8.0 | 16.1 | 0.00 | 1.75 | 0.15 | 49 | 1013.6 |
| 20260506221006 | 12 | 326 | 4.8 | 16.1 | 0.00 | 1.75 | 0.15 | 50 | 1013.6 |
| 20260506220907 | 12 | 288 | 6.4 | 16.1 | 0.00 | 1.75 | 0.15 | 49 | 1013.6 |
| 20260506220807 | 12 | 284 | 4.8 | 16.1 | 0.00 | 1.75 | 0.15 | 49 | 1013.6 |
| 20260506220706 | 12 | 277 | 8.0 | 16.1 | 0.00 | 1.75 | 0.15 | 48 | 1013.6 |
| 20260506220606 | 12 | 263 | 4.8 | 16.1 | 0.00 | 1.75 | 0.15 | 49 | 1013.6 |
| 20260506220507 | 12 | 270 | 4.8 | 16.1 | 0.00 | 1.75 | 0.15 | 49 | 1013.6 |
| 20260506220407 | 12 | 288 | 4.8 | 16.1 | 0.00 | 1.75 | 0.15 | 49 | 1013.6 |
| 20260506220307 | 12 | 329 | 9.7 | 16.1 | 0.00 | 1.75 | 0.15 | 48 | 1013.6 |
| 20260506220207 | 12 | 281 | 6.4 | 16.1 | 0.00 | 1.75 | 0.15 | 48 | 1013.6 |
| 20260506220106 | 12 | 283 | 4.8 | 16.1 | 0.00 | 1.75 | 0.15 | 50 | 1013.6 |
| 20260506220007 | 12 | 308 | 1.6 | 16.1 | 0.00 | 1.75 | 0.15 | 50 | 1013.6 |
| 20260506215907 | 12 | 314 | 6.4 | 16.1 | 0.00 | 1.75 | 0.15 | 49 | 1013.6 |
| 20260506215806 | 12 | 294 | 8.0 | 16.1 | 0.00 | 1.75 | 0.15 | 49 | 1013.6 |
| 20260506215707 | 12 | 274 | 4.8 | 16.1 | 0.00 | 1.75 | 0.15 | 49 | 1013.6 |
| 20260506215607 | 12 | 291 | 8.0 | 16.1 | 0.00 | 1.75 | 0.15 | 48 | 1013.6 |
| 20260506215506 | 12 | 295 | 8.0 | 16.1 | 0.00 | 1.75 | 0.15 | 48 | 1013.6 |
| 20260506215407 | 12 | 318 | 8.0 | 16.1 | 0.00 | 1.75 | 0.15 | 48 | 1013.6 |
| 20260506215307 | 12 | 321 | 8.0 | 16.1 | 0.00 | 1.75 | 0.15 | 47 | 1013.6 |
| 20260506215206 | 12 | 267 | 3.2 | 16.1 | 0.00 | 1.75 | 0.15 | 50 | 1013.6 |
| 20260506215107 | 12 | 322 | 3.2 | 16.1 | 0.00 | 1.75 | 0.15 | 49 | 1013.6 |
| 20260506215007 | 12 | 283 | 8.0 | 16.1 | 0.00 | 1.75 | 0.15 | 48 | 1013.6 |
| 20260506214907 | 12 | 319 | 4.8 | 16.1 | 0.00 | 1.75 | 0.15 | 48 | 1013.6 |
| 20260506214807 | 12 | 302 | 9.7 | 16.1 | 0.00 | 1.75 | 0.15 | 48 | 1013.6 |
| 20260506214707 | 12 | 290 | 9.7 | 16.1 | 0.00 | 1.75 | 0.15 | 48 | 1013.6 |
| 20260506214607 | 12 | 323 | 1.6 | 16.1 | 0.00 | 1.75 | 0.15 | 49 | 1013.6 |
| 20260506214507 | 12 | 328 | 1.6 | 16.1 | 0.00 | 1.75 | 0.15 | 48 | 1013.6 |
| 20260506214406 | 12 | 308 | 4.8 | 16.1 | 0.00 | 1.75 | 0.15 | 47 | 1013.6 |
| 20260506214307 | 12 | 316 | 9.7 | 16.1 | 0.00 | 1.75 | 0.15 | 46 | 1013.6 |
| 20260506214207 | 12 | 347 | 6.4 | 16.1 | 0.00 | 1.75 | 0.15 | 47 | 1013.6 |
| 20260506214107 | 12 | 345 | 8.0 | 16.1 | 0.00 | 1.75 | 0.15 | 47 | 1013.6 |
| 20260506214007 | 12 | 314 | 11.3 | 16.1 | 0.00 | 1.75 | 0.15 | 46 | 1013.6 |
| 20260506213907 | 12 | 318 | 9.7 | 16.1 | 0.00 | 1.75 | 0.15 | 47 | 1013.6 |
| 20260506213807 | 12 | 319 | 11.3 | 14.5 | 0.00 | 1.75 | 0.15 | 47 | 1013.6 |
| 20260506213707 | 12 | 343 | 8.0 | 14.5 | 0.00 | 1.75 | 0.15 | 48 | 1013.6 |
| 20260506213607 | 12 | 305 | 8.0 | 11.3 | 0.00 | 1.75 | 0.15 | 48 | 1013.6 |
| 20260506213507 | 12 | 346 | 8.0 | 11.3 | 0.00 | 1.75 | 0.15 | 48 | 1013.6 |
| 20260506213407 | 12 | 290 | 8.0 | 11.3 | 0.00 | 1.75 | 0.15 | 48 | 1013.6 |
| 20260506213307 | 12 | 290 | 3.2 | 11.3 | 0.00 | 1.75 | 0.15 | 48 | 1013.6 |
| 20260506213207 | 12 | 281 | 1.6 | 11.3 | 0.00 | 1.75 | 0.15 | 48 | 1013.6 |
| 20260506213107 | 12 | 281 | 4.8 | 11.3 | 0.00 | 1.75 | 0.15 | 47 | 1013.6 |
| 20260506213006 | 12 | 300 | 4.8 | 11.3 | 0.00 | 1.75 | 0.15 | 47 | 1013.6 |
| 20260506212907 | 12 | 218 | 3.2 | 11.3 | 0.00 | 1.75 | 0.15 | 47 | 1013.6 |
| 20260506212807 | 12 | 300 | 6.4 | 14.5 | 0.00 | 1.75 | 0.15 | 46 | 1013.6 |
| 20260506212706 | 12 | 291 | 6.4 | 14.5 | 0.00 | 1.75 | 0.15 | 45 | 1013.6 |
| 20260506212607 | 12 | 284 | 3.2 | 14.5 | 0.00 | 1.75 | 0.15 | 45 | 1013.6 |
| 20260506212507 | 12 | 266 | 1.6 | 14.5 | 0.00 | 1.75 | 0.15 | 45 | 1013.6 |
| 20260506212406 | 12 | 198 | 3.2 | 14.5 | 0.00 | 1.75 | 0.15 | 44 | 1013.6 |
| 20260506212307 | 12 | 277 | 4.8 | 14.5 | 0.00 | 1.75 | 0.15 | 45 | 1013.6 |
| 20260506212206 | 12 | 280 | 3.2 | 14.5 | 0.00 | 1.75 | 0.15 | 46 | 1013.2 |
| 20260506212107 | 12 | 287 | 4.8 | 14.5 | 0.00 | 1.75 | 0.15 | 46 | 1013.2 |
| 20260506212007 | 12 | 328 | 6.4 | 14.5 | 0.00 | 1.75 | 0.15 | 46 | 1013.2 |
| 20260506211907 | 12 | 312 | 9.7 | 14.5 | 0.00 | 1.75 | 0.15 | 45 | 1013.2 |
| 20260506211807 | 12 | 283 | 6.4 | 14.5 | 0.00 | 1.75 | 0.15 | 46 | 1013.2 |
| 20260506211707 | 12 | 274 | 6.4 | 14.5 | 0.00 | 1.75 | 0.15 | 46 | 1013.2 |
| 20260506211607 | 12 | 273 | 4.8 | 16.1 | 0.00 | 1.75 | 0.15 | 49 | 1013.2 |
| 20260506211507 | 12 | 284 | 1.6 | 16.1 | 0.00 | 1.75 | 0.15 | 49 | 1013.2 |
| 20260506211407 | 12 | 308 | 3.2 | 16.1 | 0.00 | 1.75 | 0.15 | 48 | 1013.2 |
| 20260506211307 | 12 | 201 | 4.8 | 16.1 | 0.00 | 1.75 | 0.15 | 48 | 1013.2 |
| 20260506211207 | 12 | 301 | 6.4 | 16.1 | 0.00 | 1.75 | 0.15 | 48 | 1013.2 |
| 20260506211107 | 12 | 285 | 3.2 | 17.7 | 0.00 | 1.75 | 0.15 | 50 | 1013.2 |
| 20260506211007 | 12 | 326 | 6.4 | 17.7 | 0.00 | 1.75 | 0.15 | 49 | 1013.2 |
| 20260506210907 | 12 | 326 | 6.4 | 17.7 | 0.00 | 1.75 | 0.15 | 49 | 1013.2 |
| 20260506210807 | 12 | 318 | 8.0 | 17.7 | 0.00 | 1.75 | 0.15 | 48 | 1013.2 |
| 20260506210707 | 12 | 307 | 9.7 | 17.7 | 0.00 | 1.75 | 0.15 | 47 | 1013.2 |
| 20260506210607 | 12 | 350 | 8.0 | 17.7 | 0.00 | 1.75 | 0.15 | 48 | 1013.2 |
| 20260506210507 | 12 | 1 | 6.4 | 17.7 | 0.00 | 1.75 | 0.15 | 48 | 1013.2 |
| 20260506210407 | 12 | 322 | 6.4 | 17.7 | 0.00 | 1.75 | 0.15 | 48 | 1013.2 |
| 20260506210307 | 12 | 297 | 8.0 | 17.7 | 0.00 | 1.75 | 0.15 | 47 | 1013.2 |
| 20260506210207 | 12 | 314 | 11.3 | 17.7 | 0.00 | 1.75 | 0.15 | 48 | 1013.2 |
| 20260506210106 | 12 | 311 | 8.0 | 14.5 | 0.00 | 1.75 | 0.15 | 48 | 1013.2 |
| 20260506210007 | 12 | 284 | 9.7 | 16.1 | 0.00 | 1.75 | 0.15 | 50 | 1013.2 |
| 20260506205907 | 12 | 329 | 6.4 | 16.1 | 0.00 | 1.75 | 0.15 | 49 | 1013.2 |
| 20260506205807 | 12 | 298 | 6.4 | 16.1 | 0.00 | 1.75 | 0.15 | 49 | 1013.2 |
| 20260506205707 | 12 | 276 | 8.0 | 16.1 | 0.00 | 1.75 | 0.15 | 48 | 1013.2 |
| 20260506205607 | 12 | 295 | 6.4 | 16.1 | 0.00 | 1.75 | 0.15 | 49 | 1013.2 |
| 20260506205506 | 12 | 280 | 9.7 | 17.7 | 0.00 | 1.75 | 0.15 | 48 | 1013.2 |
| 20260506205406 | 12 | 308 | 6.4 | 17.7 | 0.00 | 1.75 | 0.15 | 49 | 1013.2 |
| 20260506205307 | 12 | 340 | 8.0 | 17.7 | 0.00 | 1.75 | 0.15 | 48 | 1013.6 |
| 20260506205207 | 12 | 300 | 9.7 | 17.7 | 0.00 | 1.75 | 0.15 | 48 | 1013.6 |
| 20260506205107 | 12 | 322 | 11.3 | 17.7 | 0.00 | 1.75 | 0.15 | 48 | 1013.2 |
| 20260506205007 | 12 | 340 | 8.0 | 17.7 | 0.00 | 1.75 | 0.15 | 48 | 1013.6 |
| 20260506204907 | 12 | 309 | 9.7 | 17.7 | 0.00 | 1.75 | 0.15 | 49 | 1013.6 |
| 20260506204807 | 12 | 298 | 6.4 | 17.7 | 0.00 | 1.75 | 0.15 | 50 | 1013.6 |
| 20260506204707 | 12 | 325 | 8.0 | 17.7 | 0.00 | 1.75 | 0.15 | 50 | 1013.2 |
| 20260506204607 | 12 | 300 | 11.3 | 17.7 | 0.00 | 1.75 | 0.15 | 49 | 1013.2 |
| 20260506204507 | 12 | 338 | 9.7 | 14.5 | 0.00 | 1.75 | 0.15 | 49 | 1013.2 |
| 20260506204407 | 12 | 284 | 3.2 | 12.9 | 0.00 | 1.75 | 0.15 | 51 | 1013.2 |
| 20260506204307 | 12 | 285 | 9.7 | 14.5 | 0.00 | 1.75 | 0.15 | 51 | 1013.2 |
| 20260506204207 | 12 | 304 | 6.4 | 14.5 | 0.00 | 1.75 | 0.15 | 52 | 1013.2 |
| 20260506204107 | 12 | 321 | 6.4 | 14.5 | 0.00 | 1.75 | 0.15 | 52 | 1013.2 |
| 20260506204007 | 12 | 330 | 6.4 | 14.5 | 0.00 | 1.75 | 0.15 | 51 | 1013.2 |
| 20260506203907 | 12 | 311 | 9.7 | 14.5 | 0.00 | 1.75 | 0.15 | 50 | 1013.2 |
| 20260506203807 | 12 | 314 | 8.0 | 14.5 | 0.00 | 1.75 | 0.15 | 51 | 1013.2 |
| 20260506203707 | 12 | 336 | 6.4 | 14.5 | 0.00 | 1.75 | 0.15 | 51 | 1013.2 |
| 20260506203607 | 12 | 329 | 6.4 | 14.5 | 0.00 | 1.75 | 0.15 | 51 | 1013.2 |
| 20260506203507 | 12 | 315 | 8.0 | 16.1 | 0.00 | 1.75 | 0.15 | 52 | 1013.2 |
| 20260506203407 | 12 | 343 | 9.7 | 16.1 | 0.00 | 1.75 | 0.15 | 52 | 1013.2 |
| 20260506203307 | 12 | 287 | 8.0 | 16.1 | 0.00 | 1.75 | 0.15 | 52 | 1013.2 |
| 20260506203207 | 12 | 276 | 1.6 | 16.1 | 0.00 | 1.75 | 0.15 | 52 | 1013.2 |
| 20260506203107 | 12 | 298 | 1.6 | 16.1 | 0.00 | 1.75 | 0.15 | 52 | 1013.2 |
| 20260506203007 | 12 | 293 | 4.8 | 17.7 | 0.00 | 1.75 | 0.15 | 50 | 1013.2 |
| 20260506202907 | 12 | 280 | 9.7 | 17.7 | 0.00 | 1.75 | 0.15 | 50 | 1013.2 |
| 20260506202807 | 12 | 262 | 4.8 | 17.7 | 0.00 | 1.75 | 0.15 | 51 | 1013.2 |
| 20260506202707 | 12 | 285 | 6.4 | 17.7 | 0.00 | 1.75 | 0.15 | 49 | 1013.2 |
| 20260506202607 | 12 | 297 | 9.7 | 17.7 | 0.00 | 1.75 | 0.15 | 49 | 1013.2 |
| 20260506202507 | 12 | 276 | 4.8 | 17.7 | 0.00 | 1.75 | 0.15 | 51 | 1013.2 |
| 20260506202407 | 12 | 342 | 4.8 | 17.7 | 0.00 | 1.75 | 0.15 | 50 | 1013.2 |
| 20260506202307 | 12 | 322 | 8.0 | 17.7 | 0.00 | 1.75 | 0.15 | 50 | 1013.6 |
| 20260506202207 | 12 | 300 | 9.7 | 17.7 | 0.00 | 1.75 | 0.15 | 50 | 1013.6 |
| 20260506202107 | 12 | 308 | 8.0 | 17.7 | 0.00 | 1.75 | 0.15 | 51 | 1013.6 |
| 20260506202007 | 12 | 297 | 8.0 | 16.1 | 0.00 | 1.75 | 0.15 | 52 | 1013.2 |
| 20260506201907 | 12 | 323 | 9.7 | 14.5 | 0.00 | 1.75 | 0.15 | 52 | 1013.2 |
| 20260506201807 | 12 | 339 | 8.0 | 12.9 | 0.00 | 1.75 | 0.15 | 52 | 1013.2 |
| 20260506201706 | 12 | 1 | 8.0 | 12.9 | 0.00 | 1.75 | 0.15 | 52 | 1013.2 |
| 20260506201607 | 12 | 350 | 8.0 | 16.1 | 0.00 | 1.75 | 0.15 | 51 | 1013.6 |
| 20260506201507 | 12 | 4 | 8.0 | 16.1 | 0.00 | 1.75 | 0.15 | 51 | 1013.2 |
| 20260506201407 | 12 | 347 | 8.0 | 16.1 | 0.00 | 1.75 | 0.15 | 51 | 1013.2 |
| 20260506201307 | 12 | 329 | 3.2 | 16.1 | 0.00 | 1.75 | 0.15 | 52 | 1013.2 |
| 20260506201207 | 12 | 284 | 6.4 | 16.1 | 0.00 | 1.75 | 0.15 | 51 | 1013.2 |
| 20260506201107 | 12 | 3 | 8.0 | 16.1 | 0.00 | 1.75 | 0.15 | 52 | 1013.2 |
| 20260506201007 | 12 | 20 | 6.4 | 16.1 | 0.00 | 1.75 | 0.15 | 52 | 1013.2 |
| 20260506200907 | 12 | 300 | 4.8 | 16.1 | 0.00 | 1.75 | 0.15 | 51 | 1013.2 |
| 20260506200807 | 12 | 297 | 9.7 | 16.1 | 0.00 | 1.75 | 0.15 | 51 | 1013.2 |
| 20260506200707 | 12 | 304 | 9.7 | 16.1 | 0.00 | 1.75 | 0.15 | 51 | 1013.2 |
| 20260506200607 | 12 | 298 | 9.7 | 16.1 | 0.00 | 1.75 | 0.15 | 51 | 1013.2 |
| 20260506200507 | 12 | 325 | 9.7 | 16.1 | 0.00 | 1.75 | 0.15 | 51 | 1013.2 |
| 20260506200407 | 12 | 301 | 11.3 | 16.1 | 0.00 | 1.75 | 0.15 | 50 | 1013.2 |
| 20260506200307 | 12 | 323 | 6.4 | 12.9 | 0.00 | 1.75 | 0.15 | 51 | 1013.2 |
| 20260506200207 | 12 | 336 | 6.4 | 12.9 | 0.00 | 1.75 | 0.15 | 52 | 1013.2 |
| 20260506200107 | 12 | 319 | 9.7 | 12.9 | 0.00 | 1.75 | 0.15 | 51 | 1013.2 |
| 20260506200007 | 12 | 345 | 6.4 | 12.9 | 0.00 | 1.75 | 0.15 | 51 | 1013.2 |
| 20260506195907 | 12 | 359 | 9.7 | 12.9 | 0.00 | 1.75 | 0.15 | 51 | 1013.2 |
| 20260506195807 | 12 | 314 | 4.8 | 12.9 | 0.00 | 1.75 | 0.15 | 51 | 1013.2 |
| 20260506195707 | 12 | 294 | 4.8 | 12.9 | 0.00 | 1.75 | 0.15 | 52 | 1013.2 |
| 20260506195607 | 12 | 284 | 8.0 | 12.9 | 0.00 | 1.75 | 0.15 | 51 | 1013.2 |
| 20260506195507 | 12 | 298 | 8.0 | 12.9 | 0.00 | 1.75 | 0.15 | 52 | 1013.2 |
| 20260506195407 | 12 | 311 | 4.8 | 12.9 | 0.00 | 1.75 | 0.15 | 53 | 1013.2 |
| 20260506195307 | 12 | 346 | 1.6 | 12.9 | 0.00 | 1.75 | 0.15 | 52 | 1013.2 |
| 20260506195207 | 12 | 274 | 3.2 | 12.9 | 0.00 | 1.75 | 0.15 | 52 | 1013.2 |
| 20260506195107 | 12 | 290 | 6.4 | 12.9 | 0.00 | 1.75 | 0.15 | 52 | 1013.2 |
| 20260506195007 | 12 | 319 | 3.2 | 14.5 | 0.00 | 1.75 | 0.15 | 52 | 1013.2 |
| 20260506194907 | 12 | 297 | 4.8 | 14.5 | 0.00 | 1.75 | 0.15 | 51 | 1013.2 |
| 20260506194807 | 12 | 316 | 6.4 | 14.5 | 0.00 | 1.75 | 0.15 | 51 | 1013.2 |
| 20260506194707 | 12 | 302 | 8.0 | 14.5 | 0.00 | 1.75 | 0.15 | 50 | 1013.2 |
| 20260506194607 | 12 | 293 | 8.0 | 14.5 | 0.00 | 1.75 | 0.15 | 51 | 1013.2 |
| 20260506194507 | 12 | 347 | 9.7 | 14.5 | 0.00 | 1.75 | 0.15 | 51 | 1013.2 |
| 20260506194407 | 12 | 316 | 6.4 | 14.5 | 0.00 | 1.75 | 0.15 | 52 | 1013.2 |
| 20260506194307 | 12 | 332 | 6.4 | 14.5 | 0.00 | 1.75 | 0.15 | 51 | 1013.2 |
| 20260506194207 | 12 | 276 | 4.8 | 14.5 | 0.00 | 1.75 | 0.15 | 52 | 1013.2 |
| 20260506194107 | 12 | 308 | 8.0 | 14.5 | 0.00 | 1.75 | 0.15 | 51 | 1013.2 |
| 20260506194007 | 12 | 280 | 8.0 | 12.9 | 0.00 | 1.75 | 0.15 | 52 | 1013.2 |
| 20260506193907 | 12 | 295 | 6.4 | 12.9 | 0.00 | 1.75 | 0.15 | 52 | 1013.2 |
| 20260506193807 | 12 | 281 | 6.4 | 9.7 | 0.00 | 1.75 | 0.15 | 51 | 1013.2 |
| 20260506193707 | 12 | 278 | 4.8 | 9.7 | 0.00 | 1.75 | 0.15 | 51 | 1013.2 |
| 20260506193607 | 12 | 291 | 6.4 | 9.7 | 0.00 | 1.75 | 0.15 | 51 | 1013.6 |
| 20260506193507 | 12 | 318 | 1.6 | 9.7 | 0.00 | 1.75 | 0.15 | 52 | 1013.2 |
| 20260506193407 | 12 | 330 | 3.2 | 9.7 | 0.00 | 1.75 | 0.15 | 53 | 1013.2 |
| 20260506193307 | 12 | 271 | 6.4 | 9.7 | 0.00 | 1.75 | 0.15 | 52 | 1013.2 |
| 20260506193207 | 12 | 294 | 4.8 | 9.7 | 0.00 | 1.75 | 0.15 | 51 | 1013.2 |
| 20260506193107 | 12 | 211 | 4.8 | 12.9 | 0.00 | 1.75 | 0.15 | 53 | 1013.2 |
| 20260506193007 | 12 | 305 | 4.8 | 12.9 | 0.00 | 1.75 | 0.15 | 52 | 1013.2 |
| 20260506192907 | 12 | 335 | 4.8 | 16.1 | 0.00 | 1.75 | 0.15 | 52 | 1013.2 |
| 20260506192807 | 12 | 298 | 4.8 | 16.1 | 0.00 | 1.75 | 0.15 | 52 | 1013.2 |
| 20260506192707 | 12 | 281 | 4.8 | 16.1 | 0.00 | 1.75 | 0.15 | 52 | 1013.6 |
| 20260506192607 | 12 | 301 | 3.2 | 16.1 | 0.00 | 1.75 | 0.15 | 52 | 1013.6 |
| 20260506192507 | 12 | 276 | 3.2 | 16.1 | 0.00 | 1.75 | 0.15 | 51 | 1013.6 |
| 20260506192407 | 12 | 264 | 4.8 | 16.1 | 0.00 | 1.75 | 0.15 | 51 | 1013.6 |
| 20260506192307 | 12 | 300 | 6.4 | 16.1 | 0.00 | 1.75 | 0.15 | 50 | 1013.6 |
| 20260506192207 | 12 | 295 | 6.4 | 16.1 | 0.00 | 1.75 | 0.15 | 50 | 1013.6 |
| 20260506192107 | 12 | 285 | 9.7 | 16.1 | 0.00 | 1.75 | 0.15 | 50 | 1013.6 |
| 20260506192007 | 12 | 277 | 8.0 | 16.1 | 0.00 | 1.75 | 0.15 | 50 | 1013.6 |
| 20260506191907 | 12 | 347 | 8.0 | 16.1 | 0.00 | 1.75 | 0.15 | 49 | 1013.6 |
| 20260506191807 | 12 | 264 | 8.0 | 16.1 | 0.00 | 1.75 | 0.15 | 50 | 1013.6 |
| 20260506191707 | 12 | 359 | 8.0 | 16.1 | 0.00 | 1.75 | 0.15 | 49 | 1013.6 |
| 20260506191607 | 12 | 318 | 9.7 | 16.1 | 0.00 | 1.75 | 0.15 | 48 | 1013.6 |
| 20260506191507 | 12 | 312 | 8.0 | 14.5 | 0.00 | 1.75 | 0.15 | 49 | 1013.6 |
| 20260506191407 | 12 | 318 | 8.0 | 14.5 | 0.00 | 1.75 | 0.15 | 48 | 1013.6 |
| 20260506191307 | 12 | 276 | 6.4 | 14.5 | 0.00 | 1.75 | 0.15 | 49 | 1013.6 |
| 20260506191207 | 12 | 309 | 6.4 | 14.5 | 0.00 | 1.75 | 0.15 | 50 | 1013.6 |
| 20260506191107 | 12 | 357 | 9.7 | 14.5 | 0.00 | 1.75 | 0.15 | 49 | 1013.6 |
| 20260506191007 | 12 | 300 | 6.4 | 14.5 | 0.00 | 1.75 | 0.15 | 50 | 1013.2 |
| 20260506190907 | 12 | 290 | 4.8 | 14.5 | 0.00 | 1.75 | 0.15 | 50 | 1013.2 |
| 20260506190807 | 12 | 274 | 4.8 | 16.1 | 0.00 | 1.75 | 0.15 | 50 | 1013.2 |
| 20260506190707 | 12 | 315 | 6.4 | 16.1 | 0.00 | 1.75 | 0.15 | 50 | 1013.6 |
| 20260506190607 | 12 | 308 | 6.4 | 16.1 | 0.00 | 1.75 | 0.15 | 50 | 1013.2 |
| 20260506190507 | 12 | 302 | 3.2 | 16.1 | 0.00 | 1.75 | 0.15 | 49 | 1013.2 |
| 20260506190407 | 12 | 263 | 8.0 | 16.1 | 0.00 | 1.75 | 0.15 | 48 | 1013.2 |
| 20260506190307 | 12 | 316 | 9.7 | 16.1 | 0.00 | 1.75 | 0.15 | 49 | 1013.2 |
| 20260506190207 | 12 | 326 | 11.3 | 16.1 | 0.00 | 1.75 | 0.15 | 48 | 1013.2 |
| 20260506190107 | 12 | 328 | 9.7 | 16.1 | 0.00 | 1.75 | 0.15 | 48 | 1013.2 |
| 20260506190007 | 12 | 312 | 9.7 | 16.1 | 0.00 | 1.75 | 0.15 | 48 | 1013.2 |
| 20260506185907 | 12 | 274 | 8.0 | 16.1 | 0.00 | 1.75 | 0.15 | 48 | 1013.2 |
| 20260506185807 | 12 | 311 | 4.8 | 14.5 | 0.00 | 1.75 | 0.15 | 50 | 1013.2 |
| 20260506185707 | 12 | 315 | 3.2 | 14.5 | 0.00 | 1.75 | 0.15 | 49 | 1013.2 |
| 20260506185607 | 12 | 305 | 4.8 | 14.5 | 0.00 | 1.75 | 0.15 | 49 | 1013.2 |
| 20260506185507 | 12 | 263 | 6.4 | 14.5 | 0.00 | 1.75 | 0.15 | 49 | 1013.2 |
| 20260506185407 | 12 | 291 | 4.8 | 14.5 | 0.00 | 1.75 | 0.15 | 48 | 1013.2 |
| 20260506185307 | 12 | 325 | 8.0 | 14.5 | 0.00 | 1.75 | 0.15 | 46 | 1013.2 |
| 20260506185207 | 12 | 270 | 6.4 | 14.5 | 0.00 | 1.75 | 0.15 | 48 | 1013.2 |
| 20260506185107 | 12 | 311 | 9.7 | 14.5 | 0.00 | 1.75 | 0.15 | 47 | 1013.6 |
| 20260506185007 | 12 | 267 | 8.0 | 14.5 | 0.00 | 1.75 | 0.15 | 47 | 1013.6 |
| 20260506184907 | 12 | 269 | 8.0 | 14.5 | 0.00 | 1.75 | 0.15 | 48 | 1013.2 |
| 20260506184807 | 12 | 291 | 4.8 | 14.5 | 0.00 | 1.75 | 0.15 | 49 | 1013.2 |
| 20260506184707 | 12 | 284 | 9.7 | 14.5 | 0.00 | 1.75 | 0.15 | 47 | 1013.2 |
| 20260506184607 | 12 | 297 | 6.4 | 14.5 | 0.00 | 1.75 | 0.15 | 50 | 1013.2 |
| 20260506184507 | 12 | 280 | 1.6 | 12.9 | 0.00 | 1.75 | 0.15 | 50 | 1013.2 |
| 20260506184407 | 12 | 300 | 6.4 | 12.9 | 0.00 | 1.75 | 0.15 | 49 | 1013.2 |
| 20260506184307 | 12 | 293 | 3.2 | 12.9 | 0.00 | 1.75 | 0.15 | 51 | 1013.2 |
| 20260506184207 | 12 | 281 | 4.8 | 14.5 | 0.00 | 1.75 | 0.15 | 51 | 1013.2 |
| 20260506184107 | 12 | 329 | 6.4 | 14.5 | 0.00 | 1.75 | 0.15 | 50 | 1013.2 |
| 20260506184007 | 12 | 283 | 6.4 | 14.5 | 0.00 | 1.75 | 0.15 | 50 | 1013.2 |
| 20260506183907 | 12 | 295 | 6.4 | 14.5 | 0.00 | 1.75 | 0.15 | 51 | 1013.2 |
| 20260506183807 | 12 | 304 | 6.4 | 14.5 | 0.00 | 1.75 | 0.15 | 51 | 1013.2 |
| 20260506183707 | 12 | 304 | 8.0 | 14.5 | 0.00 | 1.75 | 0.15 | 50 | 1013.2 |
| 20260506183607 | 12 | 300 | 6.4 | 14.5 | 0.00 | 1.75 | 0.15 | 50 | 1013.2 |
| 20260506183507 | 12 | 285 | 4.8 | 14.5 | 0.00 | 1.75 | 0.15 | 50 | 1013.2 |
| 20260506183407 | 12 | 270 | 6.4 | 14.5 | 0.00 | 1.75 | 0.15 | 50 | 1013.2 |
| 20260506183307 | 12 | 281 | 4.8 | 14.5 | 0.00 | 1.75 | 0.15 | 50 | 1013.2 |
| 20260506183207 | 12 | 305 | 4.8 | 12.9 | 0.00 | 1.75 | 0.15 | 50 | 1013.2 |
| 20260506183107 | 12 | 330 | 6.4 | 16.1 | 0.00 | 1.75 | 0.15 | 49 | 1013.2 |
| 20260506183007 | 12 | 315 | 3.2 | 16.1 | 0.00 | 1.75 | 0.15 | 49 | 1013.2 |
| 20260506182907 | 12 | 249 | 3.2 | 16.1 | 0.00 | 1.75 | 0.15 | 49 | 1013.2 |
| 20260506182807 | 12 | 335 | 1.6 | 16.1 | 0.00 | 1.75 | 0.15 | 49 | 1013.2 |
| 20260506182707 | 12 | 335 | 4.8 | 16.1 | 0.00 | 1.75 | 0.15 | 48 | 1013.2 |
| 20260506182607 | 12 | 294 | 6.4 | 16.1 | 0.00 | 1.75 | 0.15 | 49 | 1013.2 |
| 20260506182507 | 12 | 301 | 8.0 | 16.1 | 0.00 | 1.75 | 0.15 | 50 | 1013.2 |
| 20260506182407 | 12 | 315 | 8.0 | 16.1 | 0.00 | 1.75 | 0.15 | 49 | 1013.2 |
| 20260506182307 | 12 | 287 | 6.4 | 16.1 | 0.00 | 1.75 | 0.15 | 50 | 1013.2 |
| 20260506182207 | 12 | 288 | 6.4 | 16.1 | 0.00 | 1.75 | 0.15 | 49 | 1013.2 |
| 20260506182107 | 12 | 285 | 9.7 | 14.5 | 0.00 | 1.75 | 0.15 | 48 | 1012.9 |
| 20260506182007 | 12 | 278 | 9.7 | 12.9 | 0.00 | 1.75 | 0.15 | 49 | 1012.9 |
| 20260506181907 | 12 | 307 | 6.4 | 12.9 | 0.00 | 1.75 | 0.15 | 49 | 1012.9 |
| 20260506181807 | 12 | 276 | 6.4 | 14.5 | 0.00 | 1.75 | 0.15 | 50 | 1012.9 |
| 20260506181707 | 12 | 332 | 4.8 | 14.5 | 0.00 | 1.75 | 0.15 | 49 | 1012.9 |
| 20260506181607 | 12 | 284 | 3.2 | 14.5 | 0.00 | 1.75 | 0.15 | 50 | 1012.9 |
| 20260506181507 | 12 | 315 | 6.4 | 14.5 | 0.00 | 1.75 | 0.15 | 50 | 1012.9 |
| 20260506181407 | 12 | 359 | 8.0 | 14.5 | 0.00 | 1.75 | 0.15 | 49 | 1013.2 |
| 20260506181307 | 12 | 336 | 4.8 | 14.5 | 0.00 | 1.75 | 0.15 | 51 | 1013.2 |
| 20260506181207 | 12 | 309 | 8.0 | 14.5 | 0.00 | 1.75 | 0.15 | 50 | 1013.2 |
| 20260506181107 | 12 | 340 | 8.0 | 14.5 | 0.00 | 1.75 | 0.15 | 50 | 1013.2 |
| 20260506181007 | 12 | 336 | 9.7 | 14.5 | 0.00 | 1.75 | 0.15 | 50 | 1013.2 |
| 20260506180907 | 12 | 339 | 11.3 | 14.5 | 0.00 | 1.75 | 0.15 | 49 | 1013.2 |
| 20260506180807 | 12 | 302 | 8.0 | 14.5 | 0.00 | 1.75 | 0.15 | 49 | 1013.2 |
| 20260506180707 | 12 | 291 | 8.0 | 14.5 | 0.00 | 1.75 | 0.15 | 49 | 1013.2 |
| 20260506180607 | 12 | 326 | 9.7 | 14.5 | 0.00 | 1.75 | 0.15 | 48 | 1013.2 |
| 20260506180507 | 12 | 280 | 9.7 | 14.5 | 0.00 | 1.75 | 0.15 | 49 | 1013.2 |
| 20260506180407 | 12 | 325 | 6.4 | 14.5 | 0.00 | 1.75 | 0.15 | 49 | 1013.2 |
| 20260506180307 | 12 | 294 | 4.8 | 12.9 | 0.00 | 1.75 | 0.15 | 49 | 1013.2 |
| 20260506180207 | 12 | 316 | 3.2 | 12.9 | 0.00 | 1.75 | 0.15 | 50 | 1013.2 |
| 20260506180107 | 12 | 294 | 4.8 | 12.9 | 0.00 | 1.75 | 0.15 | 49 | 1013.6 |
| 20260506180007 | 12 | 276 | 4.8 | 12.9 | 0.00 | 1.75 | 0.15 | 50 | 1013.6 |
| 20260506175907 | 12 | 307 | 4.8 | 12.9 | 0.00 | 1.75 | 0.15 | 50 | 1013.6 |
| 20260506175807 | 12 | 236 | 6.4 | 12.9 | 0.00 | 1.75 | 0.15 | 50 | 1013.6 |
| 20260506175707 | 12 | 273 | 6.4 | 12.9 | 0.00 | 1.75 | 0.15 | 50 | 1013.6 |
| 20260506175607 | 12 | 293 | 6.4 | 14.5 | 0.00 | 1.75 | 0.15 | 50 | 1013.6 |
| 20260506175507 | 12 | 273 | 8.0 | 14.5 | 0.00 | 1.75 | 0.15 | 49 | 1013.6 |
| 20260506175407 | 12 | 287 | 6.4 | 16.1 | 0.00 | 1.75 | 0.15 | 52 | 1013.6 |
| 20260506175307 | 12 | 339 | 4.8 | 24.1 | 0.00 | 1.75 | 0.15 | 52 | 1013.6 |
| 20260506175207 | 12 | 287 | 4.8 | 24.1 | 0.00 | 1.75 | 0.15 | 53 | 1013.6 |
| 20260506175107 | 12 | 298 | 3.2 | 24.1 | 0.00 | 1.75 | 0.15 | 52 | 1013.6 |
| 20260506175007 | 12 | 304 | 6.4 | 24.1 | 0.00 | 1.75 | 0.15 | 52 | 1013.2 |
| 20260506174907 | 12 | 312 | 8.0 | 24.1 | 0.00 | 1.75 | 0.15 | 51 | 1013.2 |
| 20260506174807 | 12 | 308 | 6.4 | 24.1 | 0.00 | 1.75 | 0.15 | 51 | 1013.2 |
| 20260506174707 | 12 | 345 | 11.3 | 24.1 | 0.00 | 1.75 | 0.15 | 49 | 1013.2 |
| 20260506174607 | 12 | 343 | 11.3 | 24.1 | 0.00 | 1.75 | 0.15 | 49 | 1013.2 |
| 20260506174507 | 12 | 340 | 12.9 | 24.1 | 0.00 | 1.75 | 0.15 | 50 | 1013.2 |
| 20260506174407 | 12 | 346 | 14.5 | 24.1 | 0.00 | 1.75 | 0.15 | 51 | 1013.6 |
| 20260506174307 | 12 | 13 | 9.7 | 17.7 | 0.00 | 1.75 | 0.15 | 52 | 1013.6 |
| 20260506174207 | 12 | 325 | 6.4 | 14.5 | 0.00 | 1.75 | 0.15 | 52 | 1013.6 |
| 20260506174107 | 12 | 276 | 9.7 | 14.5 | 0.00 | 1.75 | 0.15 | 51 | 1013.6 |
| 20260506174007 | 12 | 273 | 6.4 | 14.5 | 0.00 | 1.75 | 0.15 | 52 | 1013.6 |
| 20260506173907 | 12 | 195 | 3.2 | 14.5 | 0.00 | 1.75 | 0.15 | 52 | 1013.6 |
| 20260506173807 | 12 | 322 | 6.4 | 16.1 | 0.00 | 1.75 | 0.15 | 51 | 1013.6 |
| 20260506173707 | 12 | 312 | 9.7 | 16.1 | 0.00 | 1.75 | 0.15 | 50 | 1013.6 |
| 20260506173607 | 12 | 338 | 9.7 | 16.1 | 0.00 | 1.75 | 0.15 | 51 | 1013.6 |
| 20260506173507 | 12 | 280 | 6.4 | 16.1 | 0.00 | 1.75 | 0.15 | 50 | 1013.6 |
| 20260506173407 | 12 | 304 | 8.0 | 16.1 | 0.00 | 1.75 | 0.15 | 50 | 1013.6 |
| 20260506173307 | 12 | 322 | 8.0 | 16.1 | 0.00 | 1.75 | 0.15 | 50 | 1013.2 |
| 20260506173207 | 12 | 269 | 6.4 | 16.1 | 0.00 | 1.75 | 0.15 | 50 | 1013.2 |
| 20260506173107 | 12 | 264 | 8.0 | 16.1 | 0.00 | 1.75 | 0.15 | 50 | 1013.2 |
| 20260506173007 | 12 | 287 | 8.0 | 17.7 | 0.00 | 1.75 | 0.15 | 51 | 1013.2 |
| 20260506172907 | 12 | 283 | 9.7 | 19.3 | 0.00 | 1.75 | 0.15 | 51 | 1013.2 |
| 20260506172807 | 13 | 242 | 8.0 | 19.3 | 0.00 | 1.75 | 0.15 | 52 | 1013.2 |
| 20260506172707 | 12 | 354 | 11.3 | 20.9 | 0.00 | 1.75 | 0.15 | 51 | 1013.2 |
| 20260506172607 | 12 | 354 | 9.7 | 20.9 | 0.00 | 1.75 | 0.15 | 51 | 1013.2 |
| 20260506172507 | 12 | 311 | 11.3 | 20.9 | 0.00 | 1.75 | 0.15 | 50 | 1013.2 |
| 20260506172407 | 12 | 345 | 9.7 | 20.9 | 0.00 | 1.75 | 0.15 | 52 | 1013.2 |
| 20260506172307 | 12 | 309 | 11.3 | 20.9 | 0.00 | 1.75 | 0.15 | 53 | 1013.2 |
| 20260506172207 | 12 | 338 | 11.3 | 20.9 | 0.00 | 1.75 | 0.15 | 52 | 1013.2 |
| 20260506172107 | 12 | 340 | 11.3 | 20.9 | 0.00 | 1.75 | 0.15 | 53 | 1013.2 |
| 20260506172007 | 12 | 332 | 11.3 | 20.9 | 0.00 | 1.75 | 0.15 | 53 | 1012.9 |
| 20260506171907 | 13 | 328 | 6.4 | 24.1 | 0.00 | 1.75 | 0.15 | 53 | 1012.9 |
| 20260506171807 | 12 | 319 | 16.1 | 24.1 | 0.00 | 1.75 | 0.15 | 51 | 1012.9 |
| 20260506171707 | 12 | 343 | 14.5 | 24.1 | 0.00 | 1.75 | 0.15 | 50 | 1012.9 |
| 20260506171607 | 13 | 350 | 9.7 | 24.1 | 0.00 | 1.75 | 0.15 | 52 | 1012.9 |
| 20260506171507 | 13 | 291 | 9.7 | 24.1 | 0.00 | 1.75 | 0.15 | 51 | 1012.9 |
| 20260506171407 | 13 | 290 | 8.0 | 24.1 | 0.00 | 1.75 | 0.15 | 52 | 1012.9 |
| 20260506171307 | 13 | 233 | 6.4 | 24.1 | 0.00 | 1.75 | 0.15 | 51 | 1012.9 |
| 20260506171207 | 13 | 300 | 8.0 | 24.1 | 0.00 | 1.75 | 0.15 | 52 | 1012.9 |
| 20260506171107 | 13 | 300 | 9.7 | 24.1 | 0.00 | 1.75 | 0.15 | 52 | 1012.9 |
| 20260506171007 | 13 | 291 | 6.4 | 24.1 | 0.00 | 1.75 | 0.15 | 53 | 1012.9 |
| 20260506170907 | 13 | 300 | 4.8 | 16.1 | 0.00 | 1.75 | 0.15 | 53 | 1012.9 |
| 20260506170807 | 13 | 340 | 9.7 | 16.1 | 0.00 | 1.75 | 0.15 | 53 | 1013.2 |
| 20260506170707 | 13 | 297 | 8.0 | 16.1 | 0.00 | 1.75 | 0.15 | 53 | 1013.2 |
| 20260506170607 | 13 | 285 | 8.0 | 17.7 | 0.00 | 1.75 | 0.15 | 52 | 1013.2 |
| 20260506170507 | 13 | 332 | 3.2 | 19.3 | 0.00 | 1.75 | 0.15 | 53 | 1013.2 |
| 20260506170407 | 13 | 322 | 6.4 | 19.3 | 0.00 | 1.75 | 0.15 | 52 | 1013.2 |
| 20260506170307 | 13 | 323 | 11.3 | 19.3 | 0.00 | 1.75 | 0.15 | 52 | 1013.2 |
| 20260506170207 | 13 | 325 | 9.7 | 19.3 | 0.00 | 1.75 | 0.15 | 52 | 1013.2 |
| 20260506170107 | 13 | 352 | 9.7 | 19.3 | 0.00 | 1.75 | 0.15 | 52 | 1013.2 |
| 20260506170007 | 13 | 288 | 8.0 | 19.3 | 0.00 | 1.75 | 0.15 | 53 | 1013.2 |
| 20260506165907 | 13 | 297 | 8.0 | 19.3 | 0.00 | 1.75 | 0.15 | 53 | 1013.2 |
| 20260506165807 | 13 | 269 | 9.7 | 19.3 | 0.00 | 1.75 | 0.15 | 53 | 1013.2 |
| 20260506165707 | 13 | 280 | 12.9 | 19.3 | 0.00 | 1.75 | 0.15 | 51 | 1013.2 |
| 20260506165607 | 13 | 347 | 12.9 | 19.3 | 0.00 | 1.75 | 0.15 | 51 | 1013.2 |
| 20260506165507 | 13 | 294 | 11.3 | 17.7 | 0.00 | 1.75 | 0.15 | 53 | 1013.2 |
| 20260506165407 | 13 | 314 | 6.4 | 17.7 | 0.00 | 1.75 | 0.15 | 54 | 1013.2 |
| 20260506165307 | 13 | 298 | 6.4 | 17.7 | 0.00 | 1.75 | 0.15 | 54 | 1013.2 |
| 20260506165207 | 13 | 359 | 8.0 | 19.3 | 0.00 | 1.75 | 0.15 | 53 | 1013.2 |
| 20260506165107 | 13 | 325 | 11.3 | 19.3 | 0.00 | 1.75 | 0.15 | 53 | 1013.2 |
| 20260506165007 | 13 | 302 | 9.7 | 24.1 | 0.00 | 1.75 | 0.15 | 53 | 1013.6 |
| 20260506164907 | 13 | 285 | 11.3 | 24.1 | 0.00 | 1.75 | 0.15 | 53 | 1013.6 |
| 20260506164807 | 13 | 338 | 6.4 | 24.1 | 0.00 | 1.75 | 0.15 | 53 | 1013.6 |
| 20260506164707 | 13 | 330 | 9.7 | 24.1 | 0.00 | 1.75 | 0.15 | 51 | 1013.2 |
| 20260506164607 | 13 | 335 | 8.0 | 24.1 | 0.00 | 1.75 | 0.15 | 52 | 1013.6 |
| 20260506164507 | 13 | 359 | 12.9 | 24.1 | 0.00 | 1.75 | 0.15 | 51 | 1013.6 |
| 20260506164407 | 13 | 349 | 9.7 | 24.1 | 0.00 | 1.75 | 0.15 | 54 | 1013.2 |
| 20260506164307 | 13 | 304 | 12.9 | 24.1 | 0.00 | 1.75 | 0.15 | 52 | 1013.2 |
| 20260506164207 | 13 | 308 | 8.0 | 24.1 | 0.00 | 1.75 | 0.15 | 51 | 1013.2 |
| 20260506164107 | 13 | 277 | 12.9 | 24.1 | 0.00 | 1.75 | 0.15 | 52 | 1013.2 |
| 20260506164007 | 13 | 316 | 4.8 | 17.7 | 0.00 | 1.75 | 0.15 | 55 | 1013.2 |
| 20260506163907 | 13 | 329 | 6.4 | 17.7 | 0.00 | 1.75 | 0.15 | 53 | 1013.2 |
| 20260506163807 | 13 | 343 | 11.3 | 17.7 | 0.00 | 1.75 | 0.15 | 52 | 1013.2 |
| 20260506163707 | 13 | 339 | 12.9 | 17.7 | 0.00 | 1.75 | 0.15 | 57 | 1013.2 |
| 20260506163607 | 13 | 359 | 11.3 | 16.1 | 0.00 | 1.75 | 0.15 | 54 | 1013.2 |
| 20260506163507 | 13 | 328 | 8.0 | 16.1 | 0.00 | 1.75 | 0.15 | 54 | 1013.2 |
| 20260506163407 | 13 | 343 | 8.0 | 16.1 | 0.00 | 1.75 | 0.15 | 54 | 1013.2 |
| 20260506163307 | 12 | 347 | 11.3 | 16.1 | 0.00 | 1.75 | 0.15 | 53 | 1013.2 |
| 20260506163207 | 13 | 332 | 8.0 | 16.1 | 0.00 | 1.75 | 0.15 | 54 | 1013.2 |
| 20260506163107 | 13 | 301 | 8.0 | 14.5 | 0.00 | 1.75 | 0.15 | 55 | 1013.2 |
| 20260506163007 | 13 | 350 | 9.7 | 16.1 | 0.00 | 1.75 | 0.15 | 56 | 1013.2 |
| 20260506162907 | 13 | 25 | 9.7 | 16.1 | 0.00 | 1.75 | 0.15 | 57 | 1013.2 |
| 20260506162807 | 13 | 339 | 6.4 | 16.1 | 0.00 | 1.75 | 0.15 | 56 | 1013.2 |
| 20260506162707 | 13 | 322 | 11.3 | 16.1 | 0.00 | 1.75 | 0.15 | 56 | 1013.2 |
| 20260506162607 | 13 | 349 | 8.0 | 16.1 | 0.00 | 1.75 | 0.15 | 56 | 1013.2 |
| 20260506162507 | 13 | 319 | 9.7 | 16.1 | 0.00 | 1.75 | 0.15 | 56 | 1013.2 |
| 20260506162407 | 13 | 256 | 8.0 | 16.1 | 0.00 | 1.75 | 0.15 | 56 | 1013.2 |
| 20260506162307 | 12 | 294 | 8.0 | 16.1 | 0.00 | 1.75 | 0.15 | 56 | 1013.2 |
| 20260506162207 | 12 | 263 | 8.0 | 17.7 | 0.00 | 1.75 | 0.15 | 57 | 1012.9 |
| 20260506162107 | 13 | 302 | 8.0 | 17.7 | 0.00 | 1.75 | 0.15 | 57 | 1012.9 |
| 20260506162007 | 12 | 322 | 8.0 | 17.7 | 0.00 | 1.75 | 0.15 | 57 | 1012.9 |
| 20260506161907 | 12 | 343 | 4.8 | 17.7 | 0.00 | 1.75 | 0.15 | 58 | 1012.9 |
| 20260506161807 | 12 | 3 | 9.7 | 17.7 | 0.00 | 1.75 | 0.15 | 58 | 1012.9 |
| 20260506161707 | 12 | 343 | 8.0 | 17.7 | 0.00 | 1.75 | 0.15 | 57 | 1012.9 |
| 20260506161607 | 12 | 332 | 9.7 | 17.7 | 0.00 | 1.75 | 0.15 | 57 | 1012.9 |
| 20260506161507 | 12 | 353 | 11.3 | 17.7 | 0.00 | 1.75 | 0.15 | 57 | 1012.9 |
| 20260506161407 | 12 | 347 | 11.3 | 19.3 | 0.00 | 1.75 | 0.15 | 57 | 1012.9 |
| 20260506161307 | 12 | 342 | 12.9 | 19.3 | 0.00 | 1.75 | 0.15 | 57 | 1013.2 |
| 20260506161207 | 12 | 330 | 8.0 | 19.3 | 0.00 | 1.75 | 0.15 | 56 | 1013.2 |
| 20260506161107 | 12 | 342 | 11.3 | 19.3 | 0.00 | 1.75 | 0.15 | 56 | 1013.2 |
| 20260506161007 | 12 | 332 | 12.9 | 19.3 | 0.00 | 1.75 | 0.15 | 56 | 1013.2 |
| 20260506160907 | 12 | 322 | 9.7 | 19.3 | 0.00 | 1.75 | 0.15 | 58 | 1013.2 |
| 20260506160807 | 12 | 273 | 8.0 | 19.3 | 0.00 | 1.75 | 0.15 | 57 | 1013.2 |
| 20260506160707 | 12 | 309 | 9.7 | 19.3 | 0.00 | 1.75 | 0.15 | 56 | 1013.2 |
| 20260506160607 | 12 | 329 | 11.3 | 19.3 | 0.00 | 1.75 | 0.15 | 58 | 1013.2 |
| 20260506160507 | 12 | 290 | 9.7 | 19.3 | 0.00 | 1.75 | 0.15 | 59 | 1013.2 |
| 20260506160407 | 12 | 283 | 8.0 | 19.3 | 0.00 | 1.75 | 0.15 | 59 | 1013.2 |
| 20260506160307 | 12 | 211 | 9.7 | 19.3 | 0.00 | 1.75 | 0.15 | 58 | 1012.9 |
| 20260506160207 | 12 | 305 | 12.9 | 19.3 | 0.00 | 1.75 | 0.15 | 57 | 1012.9 |
| 20260506160107 | 12 | 309 | 12.9 | 22.5 | 0.00 | 1.75 | 0.15 | 58 | 1012.9 |
| 20260506160007 | 12 | 333 | 11.3 | 22.5 | 0.00 | 1.75 | 0.15 | 57 | 1012.9 |
| 20260506155907 | 12 | 304 | 8.0 | 22.5 | 0.00 | 1.75 | 0.15 | 58 | 1012.9 |
| 20260506155807 | 12 | 311 | 8.0 | 22.5 | 0.00 | 1.75 | 0.15 | 60 | 1012.9 |
| 20260506155707 | 12 | 305 | 6.4 | 22.5 | 0.00 | 1.75 | 0.15 | 59 | 1012.9 |
| 20260506155607 | 12 | 323 | 8.0 | 22.5 | 0.00 | 1.75 | 0.15 | 58 | 1012.9 |
| 20260506155507 | 12 | 353 | 11.3 | 22.5 | 0.00 | 1.75 | 0.15 | 57 | 1013.2 |
| 20260506155407 | 12 | 340 | 9.7 | 22.5 | 0.00 | 1.75 | 0.15 | 58 | 1012.9 |
| 20260506155307 | 12 | 332 | 12.9 | 22.5 | 0.00 | 1.75 | 0.15 | 56 | 1013.2 |
| 20260506155207 | 12 | 322 | 12.9 | 22.5 | 0.00 | 1.75 | 0.15 | 60 | 1013.2 |
| 20260506155107 | 12 | 326 | 8.0 | 16.1 | 0.00 | 1.75 | 0.15 | 60 | 1013.2 |
| 20260506155007 | 12 | 340 | 9.7 | 16.1 | 0.00 | 1.75 | 0.15 | 58 | 1013.2 |
| 20260506154907 | 12 | 307 | 6.4 | 17.7 | 0.00 | 1.75 | 0.15 | 59 | 1013.2 |
| 20260506154807 | 12 | 302 | 11.3 | 17.7 | 0.00 | 1.75 | 0.15 | 57 | 1013.2 |
| 20260506154707 | 12 | 345 | 6.4 | 17.7 | 0.00 | 1.75 | 0.15 | 57 | 1013.2 |
| 20260506154607 | 12 | 330 | 6.4 | 17.7 | 0.00 | 1.75 | 0.15 | 56 | 1013.2 |
| 20260506154507 | 12 | 318 | 4.8 | 17.7 | 0.00 | 1.75 | 0.15 | 58 | 1013.2 |
| 20260506154407 | 12 | 312 | 9.7 | 17.7 | 0.00 | 1.75 | 0.15 | 58 | 1013.2 |
| 20260506154307 | 12 | 346 | 8.0 | 17.7 | 0.00 | 1.75 | 0.15 | 57 | 1013.2 |
| 20260506154207 | 12 | 304 | 8.0 | 17.7 | 0.00 | 1.75 | 0.15 | 56 | 1013.2 |
| 20260506154107 | 12 | 301 | 6.4 | 24.1 | 0.00 | 1.75 | 0.15 | 56 | 1013.2 |
| 20260506154007 | 12 | 285 | 11.3 | 24.1 | 0.00 | 1.75 | 0.15 | 56 | 1013.2 |
| 20260506153907 | 12 | 353 | 14.5 | 24.1 | 0.00 | 1.75 | 0.15 | 58 | 1013.2 |
| 20260506153807 | 12 | 329 | 9.7 | 24.1 | 0.00 | 1.75 | 0.15 | 60 | 1013.2 |
| 20260506153707 | 12 | 326 | 9.7 | 24.1 | 0.00 | 1.75 | 0.15 | 60 | 1013.2 |
| 20260506153607 | 12 | 319 | 8.0 | 24.1 | 0.00 | 1.75 | 0.15 | 60 | 1013.2 |
| 20260506153507 | 12 | 287 | 6.4 | 24.1 | 0.00 | 1.75 | 0.15 | 60 | 1013.2 |
| 20260506153407 | 12 | 332 | 9.7 | 24.1 | 0.00 | 1.75 | 0.15 | 60 | 1013.2 |
| 20260506153307 | 12 | 248 | 9.7 | 24.1 | 0.00 | 1.75 | 0.15 | 59 | 1013.2 |
| 20260506153207 | 12 | 336 | 16.1 | 24.1 | 0.00 | 1.75 | 0.15 | 60 | 1013.2 |
| 20260506153107 | 12 | 329 | 8.0 | 14.5 | 0.00 | 1.75 | 0.15 | 63 | 1013.2 |
| 20260506153007 | 12 | 347 | 9.7 | 14.5 | 0.00 | 1.75 | 0.15 | 62 | 1013.2 |
| 20260506152907 | 12 | 285 | 6.4 | 14.5 | 0.00 | 1.75 | 0.15 | 62 | 1012.9 |
| 20260506152807 | 12 | 280 | 4.8 | 14.5 | 0.00 | 1.75 | 0.15 | 62 | 1012.9 |
| 20260506152707 | 12 | 290 | 9.7 | 14.5 | 0.00 | 1.75 | 0.15 | 63 | 1012.9 |
| 20260506152607 | 12 | 332 | 8.0 | 14.5 | 0.00 | 1.75 | 0.15 | 62 | 1012.9 |
| 20260506152507 | 12 | 349 | 4.8 | 14.5 | 0.00 | 1.75 | 0.15 | 63 | 1012.9 |
| 20260506152407 | 12 | 300 | 9.7 | 14.5 | 0.00 | 1.75 | 0.15 | 62 | 1012.9 |
| 20260506152307 | 12 | 285 | 8.0 | 17.7 | 0.00 | 1.75 | 0.15 | 61 | 1012.9 |
| 20260506152207 | 12 | 329 | 6.4 | 17.7 | 0.00 | 1.75 | 0.15 | 60 | 1012.9 |
| 20260506152107 | 11 | 359 | 8.0 | 17.7 | 0.00 | 1.75 | 0.15 | 59 | 1012.9 |
| 20260506152007 | 11 | 290 | 8.0 | 17.7 | 0.00 | 1.75 | 0.15 | 62 | 1012.9 |
| 20260506151907 | 11 | 302 | 6.4 | 17.7 | 0.00 | 1.75 | 0.15 | 62 | 1012.9 |
| 20260506151807 | 11 | 290 | 4.8 | 17.7 | 0.00 | 1.75 | 0.15 | 62 | 1012.9 |
| 20260506151707 | 11 | 288 | 9.7 | 17.7 | 0.00 | 1.75 | 0.15 | 61 | 1012.9 |
| 20260506151607 | 11 | 243 | 9.7 | 17.7 | 0.00 | 1.75 | 0.15 | 63 | 1012.9 |
| 20260506151507 | 11 | 345 | 9.7 | 17.7 | 0.00 | 1.75 | 0.15 | 62 | 1012.9 |
| 20260506151407 | 11 | 326 | 12.9 | 17.7 | 0.00 | 1.75 | 0.15 | 63 | 1012.9 |
| 20260506151307 | 11 | 8 | 6.4 | 17.7 | 0.00 | 1.75 | 0.15 | 62 | 1012.9 |
| 20260506151207 | 11 | 318 | 8.0 | 17.7 | 0.00 | 1.75 | 0.15 | 63 | 1012.9 |
| 20260506151107 | 11 | 325 | 8.0 | 17.7 | 0.00 | 1.75 | 0.15 | 63 | 1012.9 |
| 20260506151007 | 11 | 277 | 6.4 | 17.7 | 0.00 | 1.75 | 0.15 | 65 | 1012.9 |
| 20260506150907 | 11 | 349 | 4.8 | 17.7 | 0.00 | 1.75 | 0.15 | 63 | 1012.9 |
| 20260506150807 | 11 | 325 | 6.4 | 17.7 | 0.00 | 1.75 | 0.15 | 62 | 1012.6 |
| 20260506150707 | 11 | 300 | 9.7 | 17.7 | 0.00 | 1.75 | 0.15 | 61 | 1012.6 |
| 20260506150607 | 11 | 345 | 12.9 | 17.7 | 0.00 | 1.75 | 0.15 | 60 | 1012.6 |
| 20260506150507 | 11 | 347 | 12.9 | 17.7 | 0.00 | 1.75 | 0.15 | 62 | 1012.6 |
| 20260506150407 | 11 | 315 | 11.3 | 17.7 | 0.00 | 1.75 | 0.15 | 65 | 1012.6 |
| 20260506150307 | 11 | 335 | 6.4 | 16.1 | 0.00 | 1.75 | 0.15 | 66 | 1012.6 |
| 20260506150207 | 11 | 308 | 8.0 | 16.1 | 0.00 | 1.75 | 0.15 | 65 | 1012.6 |
| 20260506150107 | 11 | 243 | 3.2 | 16.1 | 0.00 | 1.75 | 0.15 | 65 | 1012.6 |
| 20260506150007 | 11 | 1 | 9.7 | 16.1 | 0.00 | 1.75 | 0.15 | 65 | 1012.6 |
| 20260506145907 | 11 | 321 | 8.0 | 16.1 | 0.00 | 1.75 | 0.15 | 65 | 1012.6 |
| 20260506145807 | 11 | 339 | 6.4 | 16.1 | 0.00 | 1.75 | 0.15 | 64 | 1012.6 |
| 20260506145707 | 11 | 285 | 8.0 | 16.1 | 0.00 | 1.75 | 0.15 | 64 | 1012.6 |
| 20260506145607 | 11 | 325 | 8.0 | 16.1 | 0.00 | 1.75 | 0.15 | 64 | 1012.6 |
| 20260506145507 | 11 | 343 | 12.9 | 16.1 | 0.00 | 1.75 | 0.15 | 63 | 1012.6 |
| 20260506145407 | 11 | 352 | 11.3 | 16.1 | 0.00 | 1.75 | 0.15 | 65 | 1012.6 |
| 20260506145307 | 11 | 325 | 11.3 | 16.1 | 0.00 | 1.75 | 0.15 | 66 | 1012.6 |
| 20260506145207 | 11 | 343 | 9.7 | 16.1 | 0.00 | 1.75 | 0.15 | 66 | 1012.6 |
| 20260506145107 | 11 | 302 | 9.7 | 16.1 | 0.00 | 1.75 | 0.15 | 65 | 1012.6 |
| 20260506145007 | 11 | 359 | 12.9 | 16.1 | 0.00 | 1.75 | 0.15 | 64 | 1012.6 |
| 20260506144907 | 11 | 14 | 9.7 | 16.1 | 0.00 | 1.75 | 0.15 | 64 | 1012.6 |
| 20260506144807 | 11 | 346 | 11.3 | 14.5 | 0.00 | 1.75 | 0.15 | 63 | 1012.6 |
| 20260506144707 | 11 | 336 | 8.0 | 14.5 | 0.00 | 1.75 | 0.15 | 67 | 1012.2 |
| 20260506144607 | 11 | 332 | 6.4 | 16.1 | 0.00 | 1.75 | 0.15 | 68 | 1012.2 |
| 20260506144507 | 11 | 294 | 9.7 | 16.1 | 0.00 | 1.75 | 0.15 | 68 | 1012.2 |
| 20260506144407 | 11 | 332 | 8.0 | 16.1 | 0.00 | 1.75 | 0.15 | 68 | 1012.6 |
| 20260506144307 | 11 | 322 | 9.7 | 16.1 | 0.00 | 1.75 | 0.15 | 68 | 1012.6 |
| 20260506144207 | 11 | 38 | 1.6 | 16.1 | 0.00 | 1.75 | 0.15 | 69 | 1012.6 |
| 20260506144107 | 11 | 304 | 6.4 | 16.1 | 0.00 | 1.75 | 0.15 | 68 | 1012.6 |
| 20260506144007 | 11 | 301 | 6.4 | 16.1 | 0.00 | 1.75 | 0.15 | 68 | 1012.6 |
| 20260506143907 | 11 | 267 | 8.0 | 16.1 | 0.00 | 1.75 | 0.15 | 70 | 1012.6 |
| 20260506143807 | 11 | 288 | 4.8 | 16.1 | 0.00 | 1.75 | 0.15 | 70 | 1012.6 |
| 20260506143707 | 11 | 274 | 9.7 | 16.1 | 0.00 | 1.75 | 0.15 | 69 | 1012.6 |
| 20260506143607 | 11 | 300 | 8.0 | 16.1 | 0.00 | 1.75 | 0.15 | 69 | 1012.6 |
| 20260506143507 | 11 | 293 | 6.4 | 16.1 | 0.00 | 1.75 | 0.15 | 69 | 1012.6 |
| 20260506143407 | 11 | 336 | 3.2 | 16.1 | 0.00 | 1.75 | 0.15 | 69 | 1012.9 |
| 20260506143307 | 11 | 300 | 6.4 | 16.1 | 0.00 | 1.75 | 0.15 | 68 | 1012.9 |
| 20260506143207 | 10 | 243 | 8.0 | 16.1 | 0.00 | 1.75 | 0.15 | 68 | 1012.9 |
| 20260506143107 | 11 | 280 | 8.0 | 16.1 | 0.00 | 1.75 | 0.15 | 69 | 1012.9 |
| 20260506143007 | 10 | 281 | 8.0 | 16.1 | 0.00 | 1.75 | 0.15 | 70 | 1012.6 |
| 20260506142907 | 10 | 284 | 4.8 | 16.1 | 0.00 | 1.75 | 0.15 | 70 | 1012.6 |
| 20260506142807 | 10 | 269 | 3.2 | 16.1 | 0.00 | 1.75 | 0.15 | 70 | 1012.6 |
| 20260506142707 | 10 | 39 | 4.8 | 16.1 | 0.00 | 1.75 | 0.15 | 70 | 1012.6 |
| 20260506142607 | 10 | 347 | 8.0 | 16.1 | 0.00 | 1.75 | 0.15 | 69 | 1012.6 |
| 20260506142507 | 10 | 345 | 11.3 | 16.1 | 0.00 | 1.75 | 0.15 | 69 | 1012.6 |
| 20260506142407 | 10 | 338 | 9.7 | 19.3 | 0.00 | 1.75 | 0.15 | 70 | 1012.2 |
| 20260506142307 | 10 | 354 | 9.7 | 19.3 | 0.00 | 1.75 | 0.15 | 72 | 1012.2 |
| 20260506142207 | 10 | 322 | 11.3 | 19.3 | 0.00 | 1.75 | 0.15 | 72 | 1012.2 |
| 20260506142107 | 10 | 298 | 6.4 | 19.3 | 0.00 | 1.75 | 0.15 | 72 | 1012.2 |
| 20260506142007 | 10 | 295 | 4.8 | 19.3 | 0.00 | 1.75 | 0.15 | 71 | 1012.2 |
| 20260506141907 | 10 | 315 | 8.0 | 19.3 | 0.00 | 1.75 | 0.15 | 70 | 1012.2 |
| 20260506141807 | 10 | 307 | 8.0 | 19.3 | 0.00 | 1.75 | 0.15 | 71 | 1012.2 |
| 20260506141707 | 10 | 300 | 8.0 | 19.3 | 0.00 | 1.75 | 0.15 | 72 | 1012.6 |
| 20260506141607 | 10 | 301 | 9.7 | 19.3 | 0.00 | 1.75 | 0.15 | 71 | 1012.6 |
| 20260506141507 | 10 | 314 | 9.7 | 19.3 | 0.00 | 1.75 | 0.15 | 71 | 1012.6 |
| 20260506141407 | 10 | 302 | 6.4 | 16.1 | 0.00 | 1.75 | 0.15 | 72 | 1012.6 |
| 20260506141307 | 10 | 253 | 9.7 | 16.1 | 0.00 | 1.75 | 0.15 | 72 | 1012.6 |
| 20260506141207 | 10 | 285 | 4.8 | 16.1 | 0.00 | 1.75 | 0.15 | 72 | 1012.6 |
| 20260506141107 | 10 | 305 | 9.7 | 16.1 | 0.00 | 1.75 | 0.15 | 71 | 1012.6 |
| 20260506141007 | 10 | 347 | 9.7 | 16.1 | 0.00 | 1.75 | 0.15 | 71 | 1012.6 |
| 20260506140907 | 10 | 332 | 8.0 | 22.5 | 0.00 | 1.75 | 0.15 | 73 | 1012.6 |
| 20260506140807 | 10 | 319 | 11.3 | 22.5 | 0.00 | 1.75 | 0.15 | 74 | 1012.6 |
| 20260506140707 | 10 | 347 | 9.7 | 22.5 | 0.00 | 1.75 | 0.15 | 73 | 1012.6 |
| 20260506140607 | 9 | 343 | 11.3 | 22.5 | 0.00 | 1.75 | 0.15 | 72 | 1012.6 |
| 20260506140507 | 10 | 342 | 12.9 | 22.5 | 0.00 | 1.75 | 0.15 | 75 | 1012.6 |
| 20260506140407 | 10 | 325 | 6.4 | 22.5 | 0.00 | 1.75 | 0.15 | 75 | 1012.6 |
| 20260506140307 | 10 | 17 | 6.4 | 22.5 | 0.00 | 1.75 | 0.15 | 74 | 1012.6 |
| 20260506140207 | 10 | 307 | 9.7 | 22.5 | 0.00 | 1.75 | 0.15 | 74 | 1012.6 |
| 20260506140107 | 9 | 332 | 9.7 | 22.5 | 0.00 | 1.75 | 0.15 | 74 | 1012.6 |
| 20260506140007 | 9 | 329 | 12.9 | 22.5 | 0.00 | 1.75 | 0.15 | 73 | 1012.6 |
| 20260506135907 | 10 | 283 | 11.3 | 17.7 | 0.00 | 1.75 | 0.15 | 73 | 1012.6 |
| 20260506135807 | 10 | 308 | 6.4 | 14.5 | 0.00 | 1.75 | 0.15 | 74 | 1012.6 |
| 20260506135707 | 10 | 304 | 6.4 | 14.5 | 0.00 | 1.75 | 0.15 | 74 | 1012.2 |
| 20260506135607 | 10 | 278 | 8.0 | 14.5 | 0.00 | 1.75 | 0.15 | 74 | 1012.2 |
| 20260506135507 | 10 | 280 | 11.3 | 14.5 | 0.00 | 1.75 | 0.15 | 73 | 1012.6 |
| 20260506135407 | 10 | 315 | 8.0 | 14.5 | 0.00 | 1.75 | 0.15 | 74 | 1012.6 |
| 20260506135307 | 10 | 297 | 6.4 | 12.9 | 0.00 | 1.75 | 0.15 | 77 | 1012.2 |
| 20260506135207 | 10 | 347 | 3.2 | 12.9 | 0.00 | 1.75 | 0.15 | 78 | 1012.2 |
| 20260506135107 | 10 | 291 | 3.2 | 16.1 | 0.00 | 1.75 | 0.15 | 77 | 1012.2 |
| 20260506135007 | 10 | 276 | 6.4 | 16.1 | 0.00 | 1.75 | 0.15 | 77 | 1012.2 |
| 20260506134907 | 9 | 323 | 9.7 | 16.1 | 0.00 | 1.75 | 0.15 | 77 | 1012.2 |
| 20260506134807 | 9 | 281 | 9.7 | 16.1 | 0.00 | 1.75 | 0.15 | 78 | 1012.2 |
| 20260506134707 | 9 | 336 | 8.0 | 16.1 | 0.00 | 1.75 | 0.15 | 79 | 1012.2 |
| 20260506134607 | 9 | 309 | 4.8 | 16.1 | 0.00 | 1.75 | 0.15 | 80 | 1012.2 |
| 20260506134507 | 9 | 260 | 8.0 | 16.1 | 0.00 | 1.75 | 0.15 | 78 | 1012.2 |
| 20260506134407 | 9 | 326 | 8.0 | 16.1 | 0.00 | 1.75 | 0.15 | 79 | 1012.2 |
| 20260506134307 | 9 | 333 | 6.4 | 16.1 | 0.00 | 1.75 | 0.15 | 79 | 1012.2 |
| 20260506134207 | 9 | 293 | 12.9 | 16.1 | 0.00 | 1.75 | 0.15 | 79 | 1012.2 |
| 20260506134107 | 9 | 350 | 9.7 | 12.9 | 0.00 | 1.75 | 0.15 | 79 | 1012.2 |
| 20260506134007 | 8 | 330 | 8.0 | 12.9 | 0.00 | 1.75 | 0.15 | 79 | 1012.2 |
| 20260506133907 | 9 | 301 | 8.0 | 14.5 | 0.00 | 1.75 | 0.15 | 80 | 1011.9 |
| 20260506133807 | 9 | 285 | 4.8 | 14.5 | 0.00 | 1.75 | 0.15 | 81 | 1011.9 |
| 20260506133707 | 8 | 290 | 6.4 | 14.5 | 0.00 | 1.75 | 0.15 | 81 | 1011.9 |
| 20260506133607 | 8 | 269 | 4.8 | 14.5 | 0.00 | 1.75 | 0.15 | 81 | 1011.9 |
| 20260506133507 | 8 | 291 | 6.4 | 14.5 | 0.00 | 1.75 | 0.15 | 81 | 1011.9 |
| 20260506133407 | 8 | 319 | 6.4 | 14.5 | 0.00 | 1.75 | 0.15 | 81 | 1011.9 |
| 20260506133307 | 8 | 343 | 6.4 | 14.5 | 0.00 | 1.75 | 0.15 | 80 | 1011.9 |
| 20260506133207 | 8 | 345 | 8.0 | 14.5 | 0.00 | 1.75 | 0.15 | 80 | 1011.9 |
| 20260506133107 | 8 | 350 | 8.0 | 16.1 | 0.00 | 1.75 | 0.15 | 80 | 1011.9 |
| 20260506133007 | 8 | 338 | 9.7 | 16.1 | 0.00 | 1.75 | 0.15 | 79 | 1011.9 |
| 20260506132907 | 8 | 318 | 9.7 | 16.1 | 0.00 | 1.75 | 0.15 | 80 | 1011.9 |
| 20260506132807 | 8 | 340 | 8.0 | 16.1 | 0.00 | 1.75 | 0.15 | 80 | 1011.9 |
| 20260506132707 | 8 | 321 | 8.0 | 16.1 | 0.00 | 1.75 | 0.15 | 80 | 1011.9 |
| 20260506132607 | 8 | 37 | 6.4 | 16.1 | 0.00 | 1.75 | 0.15 | 80 | 1011.9 |
| 20260506132507 | 8 | 316 | 8.0 | 16.1 | 0.00 | 1.75 | 0.15 | 80 | 1011.9 |
| 20260506132407 | 8 | 338 | 8.0 | 16.1 | 0.00 | 1.75 | 0.15 | 80 | 1011.9 |
| 20260506132307 | 8 | 326 | 6.4 | 16.1 | 0.00 | 1.75 | 0.15 | 80 | 1011.9 |
| 20260506132207 | 8 | 302 | 11.3 | 16.1 | 0.00 | 1.75 | 0.15 | 79 | 1011.9 |
| 20260506132107 | 8 | 318 | 8.0 | 16.1 | 0.00 | 1.75 | 0.15 | 79 | 1011.9 |
| 20260506132007 | 8 | 305 | 8.0 | 16.1 | 0.00 | 1.75 | 0.15 | 80 | 1011.9 |
| 20260506131907 | 8 | 266 | 11.3 | 16.1 | 0.00 | 1.75 | 0.15 | 80 | 1011.9 |
| 20260506131807 | 8 | 285 | 6.4 | 14.5 | 0.00 | 1.75 | 0.15 | 81 | 1011.9 |
| 20260506131707 | 8 | 311 | 4.8 | 12.9 | 0.00 | 1.75 | 0.15 | 82 | 1011.9 |
| 20260506131607 | 8 | 293 | 6.4 | 12.9 | 0.00 | 1.75 | 0.15 | 83 | 1011.9 |
| 20260506131507 | 8 | 287 | 4.8 | 12.9 | 0.00 | 1.75 | 0.15 | 83 | 1011.9 |
| 20260506131407 | 8 | 318 | 4.8 | 12.9 | 0.00 | 1.75 | 0.15 | 83 | 1011.9 |
| 20260506131307 | 8 | 311 | 4.8 | 12.9 | 0.00 | 1.75 | 0.15 | 83 | 1011.9 |
| 20260506131207 | 8 | 338 | 9.7 | 12.9 | 0.00 | 1.75 | 0.15 | 83 | 1011.9 |
| 20260506131107 | 8 | 335 | 8.0 | 12.9 | 0.00 | 1.75 | 0.15 | 84 | 1011.9 |
| 20260506131007 | 8 | 262 | 8.0 | 11.3 | 0.00 | 1.75 | 0.15 | 84 | 1011.9 |
| 20260506130907 | 8 | 294 | 4.8 | 11.3 | 0.00 | 1.75 | 0.15 | 85 | 1011.9 |
| 20260506130807 | 8 | 338 | 8.0 | 11.3 | 0.00 | 1.75 | 0.15 | 85 | 1011.9 |
| 20260506130707 | 8 | 353 | 4.8 | 9.7 | 0.00 | 1.75 | 0.15 | 85 | 1011.9 |
| 20260506130607 | 8 | 329 | 3.2 | 9.7 | 0.00 | 1.75 | 0.15 | 85 | 1011.9 |
| 20260506130507 | 8 | 309 | 6.4 | 9.7 | 0.00 | 1.75 | 0.15 | 84 | 1011.9 |
| 20260506130407 | 8 | 0 | 8.0 | 9.7 | 0.00 | 1.75 | 0.15 | 85 | 1012.2 |
| 20260506130307 | 8 | 326 | 3.2 | 9.7 | 0.00 | 1.75 | 0.15 | 85 | 1011.9 |
| 20260506130207 | 8 | 273 | 3.2 | 14.5 | 0.00 | 1.75 | 0.15 | 86 | 1012.2 |
| 20260506130107 | 8 | 297 | 1.6 | 14.5 | 0.00 | 1.75 | 0.15 | 86 | 1012.2 |
| 20260506130007 | 8 | 248 | 3.2 | 14.5 | 0.00 | 1.75 | 0.15 | 86 | 1012.2 |
| 20260506125907 | 8 | 338 | 4.8 | 14.5 | 0.00 | 1.75 | 0.15 | 86 | 1011.9 |
| 20260506125807 | 8 | 291 | 4.8 | 14.5 | 0.00 | 1.75 | 0.15 | 86 | 1011.9 |
| 20260506125707 | 8 | 318 | 4.8 | 14.5 | 0.00 | 1.75 | 0.15 | 86 | 1011.9 |
| 20260506125607 | 8 | 302 | 6.4 | 14.5 | 0.00 | 1.75 | 0.15 | 86 | 1011.9 |
| 20260506125507 | 8 | 338 | 6.4 | 14.5 | 0.00 | 1.75 | 0.15 | 86 | 1011.9 |
| 20260506125407 | 8 | 318 | 4.8 | 14.5 | 0.00 | 1.75 | 0.15 | 86 | 1011.9 |
| 20260506125307 | 8 | 284 | 8.0 | 14.5 | 0.00 | 1.75 | 0.15 | 86 | 1011.9 |
| 20260506125207 | 8 | 312 | 6.4 | 9.7 | 0.00 | 1.75 | 0.15 | 87 | 1011.9 |
| 20260506125107 | 8 | 304 | 6.4 | 9.7 | 0.00 | 1.75 | 0.15 | 87 | 1012.2 |
| 20260506125007 | 8 | 319 | 4.8 | 9.7 | 0.00 | 1.75 | 0.15 | 87 | 1011.9 |
| 20260506124907 | 8 | 315 | 4.8 | 9.7 | 0.00 | 1.75 | 0.15 | 88 | 1012.2 |
| 20260506124807 | 8 | 290 | 1.6 | 11.3 | 0.00 | 1.75 | 0.15 | 88 | 1012.2 |
| 20260506124707 | 8 | 285 | 6.4 | 11.3 | 0.00 | 1.75 | 0.15 | 87 | 1012.2 |
| 20260506124607 | 8 | 277 | 1.6 | 11.3 | 0.00 | 1.75 | 0.15 | 88 | 1012.2 |
| 20260506124507 | 8 | 332 | 0.0 | 11.3 | 0.00 | 1.75 | 0.15 | 88 | 1011.9 |
| 20260506124407 | 7 | 300 | 4.8 | 11.3 | 0.00 | 1.75 | 0.15 | 88 | 1011.9 |
| 20260506124307 | 7 | 312 | 1.6 | 11.3 | 0.00 | 1.75 | 0.15 | 88 | 1011.9 |
| 20260506124207 | 7 | 32 | 3.2 | 11.3 | 0.00 | 1.75 | 0.15 | 88 | 1011.9 |
| 20260506124107 | 7 | 283 | 4.8 | 11.3 | 0.00 | 1.75 | 0.15 | 88 | 1011.9 |
| 20260506124007 | 7 | 314 | 6.4 | 11.3 | 0.00 | 1.75 | 0.15 | 88 | 1011.9 |
| 20260506123907 | 7 | 312 | 8.0 | 11.3 | 0.00 | 1.75 | 0.15 | 88 | 1011.9 |
| 20260506123807 | 7 | 330 | 6.4 | 11.3 | 0.00 | 1.75 | 0.15 | 89 | 1011.9 |
| 20260506123707 | 7 | 311 | 4.8 | 11.3 | 0.00 | 1.75 | 0.15 | 89 | 1011.9 |
| 20260506123607 | 7 | 298 | 4.8 | 11.3 | 0.00 | 1.75 | 0.15 | 89 | 1011.9 |
| 20260506123507 | 7 | 273 | 4.8 | 9.7 | 0.00 | 1.75 | 0.15 | 89 | 1011.6 |
| 20260506123407 | 7 | 321 | 4.8 | 9.7 | 0.00 | 1.75 | 0.15 | 89 | 1011.6 |
| 20260506123307 | 7 | 346 | 4.8 | 9.7 | 0.00 | 1.75 | 0.15 | 89 | 1011.6 |
| 20260506123207 | 7 | 322 | 6.4 | 9.7 | 0.00 | 1.75 | 0.15 | 89 | 1011.6 |
| 20260506123107 | 7 | 330 | 3.2 | 9.7 | 0.00 | 1.75 | 0.15 | 89 | 1011.6 |
| 20260506123007 | 7 | 332 | 4.8 | 9.7 | 0.00 | 1.75 | 0.15 | 89 | 1011.6 |
| 20260506122907 | 7 | 304 | 4.8 | 9.7 | 0.00 | 1.75 | 0.15 | 90 | 1011.6 |
| 20260506122807 | 7 | 336 | 6.4 | 9.7 | 0.00 | 1.75 | 0.15 | 90 | 1011.6 |
| 20260506122707 | 7 | 301 | 6.4 | 9.7 | 0.00 | 1.75 | 0.15 | 90 | 1011.2 |
| 20260506122607 | 7 | 287 | 4.8 | 11.3 | 0.00 | 1.75 | 0.15 | 90 | 1011.2 |
| 20260506122507 | 7 | 14 | 4.8 | 11.3 | 0.00 | 1.75 | 0.15 | 90 | 1011.2 |
| 20260506122407 | 7 | 270 | 6.4 | 11.3 | 0.00 | 1.75 | 0.15 | 90 | 1011.2 |
| 20260506122307 | 7 | 285 | 6.4 | 11.3 | 0.00 | 1.75 | 0.15 | 90 | 1011.2 |
| 20260506122207 | 7 | 315 | 4.8 | 11.3 | 0.00 | 1.75 | 0.15 | 90 | 1011.2 |
| 20260506122107 | 7 | 1 | 6.4 | 11.3 | 0.00 | 1.75 | 0.15 | 90 | 1011.2 |
| 20260506122007 | 7 | 316 | 3.2 | 11.3 | 0.00 | 1.75 | 0.15 | 90 | 1011.2 |
| 20260506121907 | 7 | 307 | 4.8 | 11.3 | 0.00 | 1.75 | 0.15 | 90 | 1011.2 |
| 20260506121807 | 7 | 342 | 3.2 | 11.3 | 0.00 | 1.75 | 0.15 | 90 | 1011.2 |
| 20260506121707 | 7 | 336 | 6.4 | 11.3 | 0.00 | 1.75 | 0.15 | 90 | 1011.2 |
| 20260506121607 | 7 | 349 | 8.0 | 11.3 | 0.00 | 1.75 | 0.15 | 90 | 1010.9 |
| 20260506121507 | 7 | 335 | 6.4 | 11.3 | 0.00 | 1.75 | 0.15 | 91 | 1010.9 |
| 20260506121407 | 7 | 322 | 4.8 | 11.3 | 0.00 | 1.75 | 0.15 | 91 | 1010.9 |
| 20260506121316 | 7 | 321 | 6.4 | 12.9 | 0.00 | 1.75 | 0.15 | 91 | 1010.9 |
| 20260506121207 | 7 | 338 | 8.0 | 12.9 | 0.00 | 1.75 | 0.15 | 91 | 1010.9 |
| 20260506121107 | 7 | 352 | 8.0 | 12.9 | 0.00 | 1.75 | 0.15 | 91 | 1011.2 |
| 20260506121007 | 7 | 325 | 3.2 | 12.9 | 0.00 | 1.75 | 0.15 | 91 | 1011.2 |
| 20260506120907 | 7 | 314 | 3.2 | 12.9 | 0.00 | 1.75 | 0.15 | 91 | 1011.2 |
| 20260506120807 | 7 | 312 | 3.2 | 12.9 | 0.00 | 1.75 | 0.15 | 91 | 1011.2 |
| 20260506120707 | 7 | 340 | 6.4 | 12.9 | 0.00 | 1.75 | 0.15 | 91 | 1011.2 |
| 20260506120607 | 7 | 316 | 8.0 | 12.9 | 0.00 | 1.75 | 0.15 | 91 | 1011.2 |
| 20260506120507 | 7 | 325 | 4.8 | 12.9 | 0.00 | 1.75 | 0.15 | 91 | 1011.2 |
| 20260506120407 | 7 | 349 | 8.0 | 12.9 | 0.00 | 1.75 | 0.15 | 91 | 1010.9 |
| 20260506120307 | 7 | 343 | 6.4 | 12.9 | 0.00 | 1.75 | 0.15 | 91 | 1010.9 |
| 20260506120207 | 7 | 314 | 3.2 | 11.3 | 0.00 | 1.75 | 0.15 | 91 | 1010.9 |
| 20260506120107 | 7 | 300 | 4.8 | 11.3 | 0.00 | 1.75 | 0.15 | 91 | 1010.9 |
| 20260506120007 | 7 | 325 | 6.4 | 11.3 | 0.00 | 1.75 | 0.15 | 91 | 1010.9 |
| 20260506115907 | 7 | 359 | 8.0 | 11.3 | 0.00 | 1.75 | 0.15 | 91 | 1010.9 |
| 20260506115807 | 7 | 332 | 8.0 | 11.3 | 0.00 | 1.75 | 0.15 | 91 | 1010.9 |
| 20260506115707 | 7 | 336 | 6.4 | 11.3 | 0.00 | 1.75 | 0.15 | 91 | 1011.2 |
| 20260506115607 | 7 | 328 | 4.8 | 11.3 | 0.00 | 1.75 | 0.15 | 91 | 1010.9 |
| 20260506115507 | 7 | 323 | 6.4 | 11.3 | 0.00 | 1.75 | 0.15 | 91 | 1010.9 |
| 20260506115407 | 7 | 333 | 6.4 | 11.3 | 0.00 | 1.75 | 0.15 | 91 | 1010.9 |
| 20260506115307 | 7 | 347 | 1.6 | 11.3 | 0.00 | 1.75 | 0.15 | 91 | 1010.9 |
| 20260506115207 | 7 | 314 | 8.0 | 11.3 | 0.00 | 1.75 | 0.15 | 91 | 1010.9 |
| 20260506115107 | 7 | 359 | 8.0 | 11.3 | 0.00 | 1.75 | 0.15 | 91 | 1010.9 |
| 20260506115007 | 7 | 328 | 6.4 | 9.7 | 0.00 | 1.75 | 0.15 | 91 | 1010.9 |
| 20260506114907 | 7 | 276 | 3.2 | 9.7 | 0.00 | 1.75 | 0.15 | 91 | 1010.9 |
| 20260506114807 | 7 | 357 | 3.2 | 9.7 | 0.00 | 1.75 | 0.15 | 91 | 1010.9 |
| 20260506114707 | 7 | 353 | 4.8 | 9.7 | 0.00 | 1.75 | 0.15 | 91 | 1010.9 |
| 20260506114607 | 7 | 323 | 6.4 | 9.7 | 0.00 | 1.75 | 0.15 | 91 | 1010.9 |
| 20260506114507 | 7 | 302 | 6.4 | 9.7 | 0.00 | 1.75 | 0.15 | 91 | 1010.9 |
| 20260506114407 | 7 | 278 | 4.8 | 8.0 | 0.00 | 1.75 | 0.15 | 91 | 1010.9 |
| 20260506114307 | 7 | 342 | 4.8 | 8.0 | 0.00 | 1.75 | 0.15 | 91 | 1010.9 |
| 20260506114207 | 7 | 333 | 4.8 | 8.0 | 0.00 | 1.75 | 0.15 | 91 | 1010.9 |
| 20260506114107 | 7 | 316 | 3.2 | 8.0 | 0.00 | 1.75 | 0.15 | 91 | 1010.9 |
| 20260506114007 | 7 | 314 | 3.2 | 8.0 | 0.00 | 1.75 | 0.15 | 91 | 1010.9 |
| 20260506113907 | 7 | 308 | 1.6 | 4.8 | 0.00 | 1.75 | 0.15 | 91 | 1010.9 |
| 20260506113807 | 7 | 312 | 0.0 | 4.8 | 0.00 | 1.75 | 0.15 | 91 | 1010.9 |
| 20260506113707 | 7 | 330 | 1.6 | 4.8 | 0.00 | 1.75 | 0.15 | 91 | 1010.9 |
| 20260506113607 | 7 | 308 | 1.6 | 6.4 | 0.00 | 1.75 | 0.15 | 91 | 1010.9 |
| 20260506113507 | 7 | 340 | 3.2 | 6.4 | 0.00 | 1.75 | 0.15 | 91 | 1010.9 |
| 20260506113407 | 7 | 271 | 0.0 | 6.4 | 0.00 | 1.75 | 0.15 | 91 | 1010.5 |
| 20260506113307 | 7 | 271 | 0.0 | 6.4 | 0.00 | 1.75 | 0.15 | 91 | 1010.5 |
| 20260506113207 | 7 | 271 | 0.0 | 6.4 | 0.00 | 1.75 | 0.15 | 91 | 1010.5 |
| 20260506113107 | 7 | 271 | 1.6 | 6.4 | 0.00 | 1.75 | 0.15 | 91 | 1010.5 |
| 20260506113007 | 7 | 336 | 3.2 | 8.0 | 0.00 | 1.75 | 0.15 | 91 | 1010.5 |
| 20260506112907 | 7 | 288 | 3.2 | 8.0 | 0.00 | 1.75 | 0.15 | 91 | 1010.5 |
| 20260506112807 | 7 | 294 | 4.8 | 8.0 | 0.00 | 1.75 | 0.15 | 91 | 1010.5 |
| 20260506112707 | 7 | 322 | 4.8 | 8.0 | 0.00 | 1.75 | 0.15 | 91 | 1010.5 |
| 20260506112607 | 7 | 335 | 4.8 | 8.0 | 0.00 | 1.75 | 0.15 | 91 | 1010.5 |
| 20260506112507 | 7 | 339 | 6.4 | 8.0 | 0.00 | 1.75 | 0.15 | 91 | 1010.5 |
| 20260506112407 | 7 | 300 | 3.2 | 8.0 | 0.00 | 1.75 | 0.15 | 91 | 1010.5 |
| 20260506112307 | 7 | 287 | 3.2 | 8.0 | 0.00 | 1.75 | 0.15 | 91 | 1010.5 |
| 20260506112207 | 7 | 332 | 6.4 | 9.7 | 0.00 | 1.75 | 0.15 | 91 | 1010.5 |
| 20260506112107 | 7 | 330 | 6.4 | 9.7 | 0.00 | 1.75 | 0.15 | 91 | 1010.2 |
| 20260506112007 | 7 | 343 | 6.4 | 9.7 | 0.00 | 1.75 | 0.15 | 91 | 1010.2 |
| 20260506111907 | 7 | 297 | 1.6 | 9.7 | 0.00 | 1.75 | 0.15 | 91 | 1010.2 |
| 20260506111807 | 7 | 339 | 3.2 | 9.7 | 0.00 | 1.75 | 0.15 | 91 | 1010.2 |
| 20260506111707 | 7 | 353 | 4.8 | 9.7 | 0.00 | 1.75 | 0.15 | 91 | 1010.2 |
| 20260506111607 | 7 | 3 | 3.2 | 9.7 | 0.00 | 1.75 | 0.15 | 91 | 1010.2 |
| 20260506111507 | 7 | 343 | 3.2 | 9.7 | 0.00 | 1.75 | 0.15 | 90 | 1010.2 |
| 20260506111407 | 7 | 11 | 3.2 | 11.3 | 0.00 | 1.75 | 0.15 | 90 | 1010.2 |
| 20260506111307 | 7 | 325 | 4.8 | 11.3 | 0.00 | 1.75 | 0.15 | 90 | 1010.2 |
| 20260506111207 | 7 | 325 | 6.4 | 11.3 | 0.00 | 1.75 | 0.15 | 90 | 1010.2 |
| 20260506111107 | 7 | 339 | 4.8 | 11.3 | 0.00 | 1.75 | 0.15 | 90 | 1010.2 |
| 20260506111007 | 7 | 347 | 1.6 | 11.3 | 0.00 | 1.75 | 0.15 | 90 | 1010.2 |
| 20260506110907 | 7 | 315 | 6.4 | 11.3 | 0.00 | 1.75 | 0.15 | 90 | 1010.2 |
| 20260506110807 | 7 | 291 | 6.4 | 11.3 | 0.00 | 1.75 | 0.15 | 90 | 1010.2 |
| 20260506110707 | 7 | 330 | 6.4 | 11.3 | 0.00 | 1.75 | 0.15 | 90 | 1010.2 |
| 20260506110607 | 7 | 328 | 6.4 | 11.3 | 0.00 | 1.75 | 0.15 | 90 | 1010.2 |
| 20260506110507 | 7 | 323 | 6.4 | 11.3 | 0.00 | 1.75 | 0.15 | 90 | 1010.2 |
| 20260506110407 | 7 | 332 | 4.8 | 9.7 | 0.00 | 1.75 | 0.15 | 90 | 1010.2 |
| 20260506110307 | 7 | 322 | 3.2 | 9.7 | 0.00 | 1.75 | 0.15 | 90 | 1010.2 |
| 20260506110207 | 7 | 349 | 6.4 | 9.7 | 0.00 | 1.75 | 0.15 | 90 | 1010.2 |
| 20260506110107 | 7 | 353 | 6.4 | 9.7 | 0.00 | 1.75 | 0.15 | 90 | 1010.2 |
| 20260506110007 | 7 | 349 | 4.8 | 9.7 | 0.00 | 1.75 | 0.15 | 90 | 1010.2 |
| 20260506105907 | 7 | 328 | 3.2 | 11.3 | 0.00 | 1.75 | 0.15 | 90 | 1010.2 |
| 20260506105807 | 7 | 312 | 3.2 | 12.9 | 0.00 | 1.75 | 0.15 | 90 | 1010.2 |
| 20260506105707 | 7 | 339 | 6.4 | 12.9 | 0.00 | 1.75 | 0.15 | 89 | 1010.2 |
| 20260506105607 | 7 | 353 | 4.8 | 12.9 | 0.00 | 1.75 | 0.15 | 90 | 1010.2 |
| 20260506105507 | 7 | 277 | 3.2 | 12.9 | 0.00 | 1.75 | 0.15 | 90 | 1010.2 |
| 20260506105407 | 7 | 330 | 3.2 | 12.9 | 0.00 | 1.75 | 0.15 | 90 | 1010.2 |
| 20260506105307 | 7 | 321 | 3.2 | 12.9 | 0.00 | 1.75 | 0.15 | 90 | 1010.2 |
| 20260506105207 | 7 | 309 | 4.8 | 12.9 | 0.00 | 1.75 | 0.15 | 89 | 1010.2 |
| 20260506105107 | 7 | 340 | 6.4 | 12.9 | 0.00 | 1.75 | 0.15 | 89 | 1010.2 |
| 20260506105007 | 7 | 329 | 6.4 | 12.9 | 0.00 | 1.75 | 0.15 | 89 | 1010.2 |
| 20260506104907 | 7 | 340 | 9.7 | 12.9 | 0.00 | 1.75 | 0.15 | 90 | 1010.2 |
| 20260506104807 | 7 | 319 | 3.2 | 9.7 | 0.00 | 1.75 | 0.15 | 90 | 1010.2 |
| 20260506104707 | 7 | 323 | 6.4 | 9.7 | 0.00 | 1.75 | 0.15 | 90 | 1010.2 |
| 20260506104607 | 7 | 4 | 6.4 | 9.7 | 0.00 | 1.75 | 0.15 | 90 | 1010.2 |
| 20260506104507 | 7 | 15 | 6.4 | 9.7 | 0.00 | 1.75 | 0.15 | 90 | 1010.2 |
| 20260506104407 | 7 | 349 | 6.4 | 8.0 | 0.00 | 1.75 | 0.15 | 90 | 1010.2 |
| 20260506104307 | 7 | 347 | 4.8 | 8.0 | 0.00 | 1.75 | 0.15 | 90 | 1010.2 |
| 20260506104207 | 7 | 338 | 6.4 | 11.3 | 0.00 | 1.75 | 0.15 | 90 | 1010.2 |
| 20260506104107 | 7 | 338 | 4.8 | 11.3 | 0.00 | 1.75 | 0.15 | 90 | 1010.2 |
| 20260506104007 | 7 | 330 | 6.4 | 11.3 | 0.00 | 1.75 | 0.15 | 90 | 1009.9 |
| 20260506103907 | 7 | 335 | 6.4 | 11.3 | 0.00 | 1.75 | 0.15 | 90 | 1009.9 |
| 20260506103807 | 7 | 354 | 3.2 | 11.3 | 0.00 | 1.75 | 0.15 | 90 | 1009.9 |
| 20260506103707 | 7 | 347 | 3.2 | 11.3 | 0.00 | 1.75 | 0.15 | 90 | 1009.9 |
| 20260506103607 | 7 | 339 | 3.2 | 11.3 | 0.00 | 1.75 | 0.15 | 90 | 1010.2 |
| 20260506103507 | 7 | 346 | 4.8 | 11.3 | 0.00 | 1.75 | 0.15 | 90 | 1009.9 |
| 20260506103407 | 7 | 314 | 4.8 | 11.3 | 0.00 | 1.75 | 0.15 | 90 | 1009.9 |
| 20260506103307 | 7 | 359 | 8.0 | 11.3 | 0.00 | 1.75 | 0.15 | 89 | 1009.9 |
| 20260506103207 | 7 | 356 | 4.8 | 11.3 | 0.00 | 1.75 | 0.15 | 90 | 1009.9 |
| 20260506103107 | 7 | 354 | 4.8 | 11.3 | 0.00 | 1.75 | 0.15 | 90 | 1009.9 |
| 20260506103007 | 7 | 3 | 6.4 | 11.3 | 0.00 | 1.75 | 0.15 | 90 | 1009.9 |
| 20260506102907 | 7 | 346 | 6.4 | 11.3 | 0.00 | 1.75 | 0.15 | 90 | 1009.9 |
| 20260506102807 | 7 | 0 | 6.4 | 11.3 | 0.00 | 1.75 | 0.15 | 90 | 1009.9 |
| 20260506102707 | 6 | 323 | 9.7 | 11.3 | 0.00 | 1.75 | 0.15 | 90 | 1009.9 |
| 20260506102607 | 7 | 347 | 8.0 | 11.3 | 0.00 | 1.75 | 0.15 | 90 | 1009.9 |
| 20260506102507 | 7 | 328 | 1.6 | 11.3 | 0.00 | 1.75 | 0.15 | 90 | 1010.2 |
| 20260506102407 | 7 | 347 | 3.2 | 11.3 | 0.00 | 1.75 | 0.15 | 90 | 1010.2 |
| 20260506102307 | 7 | 38 | 3.2 | 11.3 | 0.00 | 1.75 | 0.15 | 90 | 1010.2 |
| 20260506102207 | 7 | 319 | 3.2 | 11.3 | 0.00 | 1.75 | 0.15 | 90 | 1010.2 |
| 20260506102107 | 7 | 347 | 3.2 | 11.3 | 0.00 | 1.75 | 0.15 | 90 | 1009.9 |
| 20260506102007 | 6 | 316 | 8.0 | 11.3 | 0.00 | 1.75 | 0.15 | 89 | 1009.9 |
| 20260506101907 | 7 | 3 | 8.0 | 11.3 | 0.00 | 1.75 | 0.15 | 90 | 1010.2 |
| 20260506101807 | 7 | 316 | 1.6 | 9.7 | 0.00 | 1.75 | 0.15 | 90 | 1010.2 |
| 20260506101707 | 7 | 305 | 1.6 | 14.5 | 0.00 | 1.75 | 0.15 | 90 | 1010.2 |
| 20260506101607 | 7 | 318 | 3.2 | 14.5 | 0.00 | 1.75 | 0.15 | 90 | 1010.2 |
| 20260506101507 | 7 | 333 | 3.2 | 14.5 | 0.00 | 1.75 | 0.15 | 90 | 1010.2 |
| 20260506101407 | 7 | 300 | 3.2 | 14.5 | 0.00 | 1.75 | 0.15 | 89 | 1010.2 |
| 20260506101307 | 6 | 349 | 6.4 | 14.5 | 0.00 | 1.75 | 0.15 | 89 | 1009.9 |
| 20260506101207 | 6 | 347 | 8.0 | 14.5 | 0.00 | 1.75 | 0.15 | 89 | 1009.9 |
| 20260506101107 | 7 | 0 | 4.8 | 14.5 | 0.00 | 1.75 | 0.15 | 89 | 1009.9 |
| 20260506101007 | 6 | 314 | 6.4 | 14.5 | 0.00 | 1.75 | 0.15 | 89 | 1009.9 |
| 20260506100907 | 6 | 352 | 4.8 | 14.5 | 0.00 | 1.75 | 0.15 | 89 | 1009.9 |
| 20260506100807 | 6 | 340 | 9.7 | 14.5 | 0.00 | 1.75 | 0.15 | 89 | 1009.9 |
| 20260506100707 | 6 | 336 | 6.4 | 11.3 | 0.00 | 1.75 | 0.15 | 89 | 1009.9 |
| 20260506100607 | 6 | 338 | 6.4 | 12.9 | 0.00 | 1.75 | 0.15 | 89 | 1009.5 |
| 20260506100507 | 6 | 354 | 8.0 | 12.9 | 0.00 | 1.75 | 0.15 | 90 | 1009.5 |
| 20260506100407 | 6 | 329 | 4.8 | 14.5 | 0.00 | 1.75 | 0.15 | 90 | 1009.5 |
| 20260506100307 | 6 | 350 | 6.4 | 14.5 | 0.00 | 1.75 | 0.15 | 89 | 1009.5 |
| 20260506100207 | 6 | 347 | 6.4 | 14.5 | 0.00 | 1.75 | 0.15 | 90 | 1009.5 |
| 20260506100107 | 6 | 359 | 6.4 | 14.5 | 0.00 | 1.75 | 0.15 | 90 | 1009.5 |
| 20260506100007 | 6 | 8 | 6.4 | 14.5 | 0.00 | 1.75 | 0.15 | 89 | 1009.5 |
| 20260506095907 | 6 | 18 | 6.4 | 16.1 | 0.00 | 1.75 | 0.15 | 90 | 1009.2 |
| 20260506095807 | 6 | 4 | 8.0 | 16.1 | 0.00 | 1.75 | 0.15 | 89 | 1009.5 |
| 20260506095707 | 6 | 15 | 9.7 | 16.1 | 0.00 | 1.75 | 0.15 | 90 | 1009.5 |
| 20260506095607 | 6 | 359 | 9.7 | 16.1 | 0.00 | 1.75 | 0.15 | 90 | 1009.5 |
| 20260506095507 | 6 | 4 | 9.7 | 16.1 | 0.00 | 1.75 | 0.15 | 90 | 1009.5 |
| 20260506095407 | 6 | 359 | 4.8 | 16.1 | 0.00 | 1.75 | 0.15 | 90 | 1009.5 |
| 20260506095307 | 6 | 350 | 6.4 | 16.1 | 0.00 | 1.75 | 0.15 | 90 | 1009.5 |
| 20260506095207 | 6 | 350 | 6.4 | 16.1 | 0.00 | 1.75 | 0.15 | 90 | 1009.5 |
| 20260506095107 | 6 | 352 | 6.4 | 16.1 | 0.00 | 1.75 | 0.15 | 90 | 1009.5 |
| 20260506095007 | 6 | 7 | 8.0 | 16.1 | 0.00 | 1.75 | 0.15 | 90 | 1009.5 |
| 20260506094907 | 6 | 329 | 6.4 | 16.1 | 0.00 | 1.75 | 0.15 | 90 | 1009.5 |
| 20260506094807 | 6 | 3 | 6.4 | 16.1 | 0.00 | 1.75 | 0.15 | 90 | 1009.5 |
| 20260506094707 | 7 | 49 | 1.6 | 16.1 | 0.00 | 1.75 | 0.15 | 90 | 1009.5 |
| 20260506094607 | 7 | 35 | 8.0 | 16.1 | 0.00 | 1.75 | 0.15 | 90 | 1009.5 |
| 20260506094507 | 6 | 343 | 9.7 | 12.9 | 0.00 | 1.75 | 0.15 | 91 | 1009.5 |
| 20260506094407 | 6 | 332 | 6.4 | 12.9 | 0.00 | 1.75 | 0.15 | 91 | 1009.9 |
| 20260506094307 | 7 | 359 | 4.8 | 12.9 | 0.00 | 1.75 | 0.15 | 91 | 1009.9 |
| 20260506094207 | 6 | 338 | 9.7 | 12.9 | 0.00 | 1.75 | 0.15 | 91 | 1009.9 |
| 20260506094107 | 6 | 343 | 8.0 | 12.9 | 0.00 | 1.75 | 0.15 | 91 | 1009.9 |
| 20260506094007 | 7 | 336 | 8.0 | 12.9 | 0.00 | 1.75 | 0.15 | 91 | 1009.9 |
| 20260506093907 | 7 | 326 | 4.8 | 12.9 | 0.00 | 1.75 | 0.15 | 91 | 1009.9 |
| 20260506093807 | 7 | 284 | 3.2 | 14.5 | 0.00 | 1.75 | 0.15 | 91 | 1009.9 |
| 20260506093707 | 7 | 23 | 3.2 | 14.5 | 0.00 | 1.75 | 0.15 | 91 | 1009.9 |
| 20260506093607 | 6 | 338 | 8.0 | 14.5 | 0.00 | 1.75 | 0.15 | 91 | 1009.5 |
| 20260506093507 | 6 | 338 | 9.7 | 14.5 | 0.00 | 1.75 | 0.15 | 91 | 1009.5 |
| 20260506093407 | 6 | 6 | 9.7 | 14.5 | 0.00 | 1.75 | 0.15 | 91 | 1009.5 |
| 20260506093307 | 6 | 330 | 6.4 | 14.5 | 0.00 | 1.75 | 0.15 | 91 | 1009.5 |
| 20260506093207 | 6 | 338 | 6.4 | 14.5 | 0.00 | 1.75 | 0.15 | 91 | 1009.5 |
| 20260506093107 | 6 | 332 | 6.4 | 16.1 | 0.00 | 1.75 | 0.15 | 91 | 1009.5 |
| 20260506093007 | 6 | 21 | 6.4 | 16.1 | 0.00 | 1.75 | 0.15 | 91 | 1009.5 |
| 20260506092907 | 6 | 32 | 8.0 | 16.1 | 0.00 | 1.75 | 0.15 | 91 | 1009.2 |
| 20260506092807 | 6 | 11 | 8.0 | 16.1 | 0.00 | 1.75 | 0.15 | 91 | 1009.2 |
| 20260506092707 | 6 | 14 | 9.7 | 16.1 | 0.00 | 1.75 | 0.15 | 91 | 1009.2 |
| 20260506092607 | 6 | 349 | 8.0 | 16.1 | 0.00 | 1.75 | 0.15 | 91 | 1009.5 |
| 20260506092507 | 6 | 346 | 8.0 | 16.1 | 0.00 | 1.75 | 0.15 | 91 | 1009.2 |
| 20260506092407 | 6 | 323 | 9.7 | 16.1 | 0.00 | 1.75 | 0.15 | 91 | 1009.2 |
| 20260506092307 | 6 | 4 | 8.0 | 16.1 | 0.00 | 1.75 | 0.15 | 91 | 1009.2 |
| 20260506092207 | 6 | 21 | 9.7 | 16.1 | 0.00 | 1.75 | 0.15 | 91 | 1009.5 |
| 20260506092107 | 6 | 339 | 6.4 | 16.1 | 0.00 | 1.75 | 0.15 | 91 | 1009.5 |
| 20260506092007 | 6 | 4 | 6.4 | 16.1 | 0.00 | 1.75 | 0.15 | 91 | 1009.5 |
| 20260506091907 | 6 | 342 | 6.4 | 16.1 | 0.00 | 1.75 | 0.15 | 91 | 1009.5 |
| 20260506091807 | 6 | 6 | 6.4 | 16.1 | 0.00 | 1.75 | 0.15 | 91 | 1009.5 |
| 20260506091707 | 6 | 359 | 8.0 | 16.1 | 0.00 | 1.75 | 0.15 | 91 | 1009.2 |
| 20260506091607 | 6 | 349 | 8.0 | 16.1 | 0.00 | 1.75 | 0.15 | 91 | 1009.2 |
| 20260506091507 | 6 | 326 | 6.4 | 16.1 | 0.00 | 1.75 | 0.15 | 91 | 1009.2 |
| 20260506091407 | 6 | 319 | 8.0 | 16.1 | 0.00 | 1.75 | 0.15 | 91 | 1008.8 |
| 20260506091307 | 6 | 319 | 11.3 | 16.1 | 0.00 | 1.75 | 0.15 | 91 | 1008.8 |
| 20260506091207 | 6 | 350 | 11.3 | 16.1 | 0.00 | 1.75 | 0.15 | 91 | 1008.8 |
| 20260506091107 | 6 | 339 | 9.7 | 16.1 | 0.00 | 1.75 | 0.15 | 91 | 1008.8 |